<?xml version="1.0" encoding="UTF-8" standalone="no" ?>
<gpx xmlns="http://www.topografix.com/GPX/1/1" xmlns:xsi="http://www.w3.org/2001/XMLSchema-instance" xsi:schemaLocation="http://www.topografix.com/GPX/1/1 http://www.topografix.com/GPX/1/1/gpx.xsd" version="1.1" creator="VisuGPX - https://www.visugpx.com">
  <metadata>
    <name>Les GRANDS MOULINS</name>
    <desc><![CDATA[Randonnée alpine, un peu prématurée (chute de neige récente) ]]></desc>
  </metadata>
  <trk>
    <name><![CDATA[2020-06-11 16-15-54]]></name>
    <trkseg>
      <trkpt lat="45.41854" lon="6.16822">
        <ele>1693.02</ele>
        <time>2020-06-11T07:06:45Z</time>
      </trkpt>
      <trkpt lat="45.41854" lon="6.16822">
        <ele>1692.54</ele>
        <time>2020-06-11T07:06:46Z</time>
      </trkpt>
      <trkpt lat="45.41851" lon="6.16823">
        <ele>1693.02</ele>
        <time>2020-06-11T07:07:43Z</time>
      </trkpt>
      <trkpt lat="45.4185" lon="6.16823">
        <ele>1693.02</ele>
        <time>2020-06-11T07:08:08Z</time>
      </trkpt>
      <trkpt lat="45.41849" lon="6.16824">
        <ele>1693.02</ele>
        <time>2020-06-11T07:08:25Z</time>
      </trkpt>
      <trkpt lat="45.41849" lon="6.16821">
        <ele>1693.02</ele>
        <time>2020-06-11T07:09:15Z</time>
      </trkpt>
      <trkpt lat="45.41849" lon="6.16822">
        <ele>1693.02</ele>
        <time>2020-06-11T07:10:27Z</time>
      </trkpt>
      <trkpt lat="45.41849" lon="6.16822">
        <ele>1693.02</ele>
        <time>2020-06-11T07:11:21Z</time>
      </trkpt>
      <trkpt lat="45.41849" lon="6.16823">
        <ele>1693.02</ele>
        <time>2020-06-11T07:12:00Z</time>
      </trkpt>
      <trkpt lat="45.41848" lon="6.16823">
        <ele>1693.02</ele>
        <time>2020-06-11T07:12:32Z</time>
      </trkpt>
      <trkpt lat="45.41848" lon="6.16824">
        <ele>1693.02</ele>
        <time>2020-06-11T07:13:09Z</time>
      </trkpt>
      <trkpt lat="45.41851" lon="6.16821">
        <ele>1693.02</ele>
        <time>2020-06-11T07:13:45Z</time>
      </trkpt>
      <trkpt lat="45.41851" lon="6.16822">
        <ele>1693.02</ele>
        <time>2020-06-11T07:14:15Z</time>
      </trkpt>
      <trkpt lat="45.41857" lon="6.16815">
        <ele>1694.46</ele>
        <time>2020-06-11T07:14:34Z</time>
      </trkpt>
      <trkpt lat="45.41862" lon="6.16809">
        <ele>1696.86</ele>
        <time>2020-06-11T07:14:48Z</time>
      </trkpt>
      <trkpt lat="45.41864" lon="6.16811">
        <ele>1697.83</ele>
        <time>2020-06-11T07:15:02Z</time>
      </trkpt>
      <trkpt lat="45.41868" lon="6.16812">
        <ele>1698.31</ele>
        <time>2020-06-11T07:15:12Z</time>
      </trkpt>
      <trkpt lat="45.41872" lon="6.16816">
        <ele>1693.98</ele>
        <time>2020-06-11T07:15:22Z</time>
      </trkpt>
      <trkpt lat="45.41873" lon="6.16818">
        <ele>1692.06</ele>
        <time>2020-06-11T07:15:24Z</time>
      </trkpt>
      <trkpt lat="45.41873" lon="6.16818">
        <ele>1696.38</ele>
        <time>2020-06-11T07:15:25Z</time>
      </trkpt>
      <trkpt lat="45.41873" lon="6.16819">
        <ele>1700.23</ele>
        <time>2020-06-11T07:15:26Z</time>
      </trkpt>
      <trkpt lat="45.41874" lon="6.1682">
        <ele>1703.59</ele>
        <time>2020-06-11T07:15:28Z</time>
      </trkpt>
      <trkpt lat="45.41878" lon="6.16825">
        <ele>1704.55</ele>
        <time>2020-06-11T07:15:37Z</time>
      </trkpt>
      <trkpt lat="45.41883" lon="6.16838">
        <ele>1704.55</ele>
        <time>2020-06-11T07:15:55Z</time>
      </trkpt>
      <trkpt lat="45.41887" lon="6.16853">
        <ele>1707.44</ele>
        <time>2020-06-11T07:16:14Z</time>
      </trkpt>
      <trkpt lat="45.4189" lon="6.1687">
        <ele>1710.32</ele>
        <time>2020-06-11T07:16:31Z</time>
      </trkpt>
      <trkpt lat="45.41892" lon="6.16879">
        <ele>1710.8</ele>
        <time>2020-06-11T07:16:38Z</time>
      </trkpt>
      <trkpt lat="45.4189" lon="6.16896">
        <ele>1711.76</ele>
        <time>2020-06-11T07:16:52Z</time>
      </trkpt>
      <trkpt lat="45.4189" lon="6.16904">
        <ele>1711.76</ele>
        <time>2020-06-11T07:17:07Z</time>
      </trkpt>
      <trkpt lat="45.41892" lon="6.16911">
        <ele>1709.36</ele>
        <time>2020-06-11T07:17:24Z</time>
      </trkpt>
      <trkpt lat="45.41895" lon="6.16919">
        <ele>1713.69</ele>
        <time>2020-06-11T07:17:36Z</time>
      </trkpt>
      <trkpt lat="45.41901" lon="6.16915">
        <ele>1714.17</ele>
        <time>2020-06-11T07:17:47Z</time>
      </trkpt>
      <trkpt lat="45.41915" lon="6.16902">
        <ele>1716.57</ele>
        <time>2020-06-11T07:18:04Z</time>
      </trkpt>
      <trkpt lat="45.41923" lon="6.16906">
        <ele>1717.53</ele>
        <time>2020-06-11T07:18:19Z</time>
      </trkpt>
      <trkpt lat="45.41924" lon="6.16909">
        <ele>1718.97</ele>
        <time>2020-06-11T07:18:25Z</time>
      </trkpt>
      <trkpt lat="45.41925" lon="6.1692">
        <ele>1719.94</ele>
        <time>2020-06-11T07:18:38Z</time>
      </trkpt>
      <trkpt lat="45.41927" lon="6.16935">
        <ele>1721.86</ele>
        <time>2020-06-11T07:18:54Z</time>
      </trkpt>
      <trkpt lat="45.41929" lon="6.16947">
        <ele>1723.3</ele>
        <time>2020-06-11T07:19:07Z</time>
      </trkpt>
      <trkpt lat="45.41932" lon="6.16959">
        <ele>1726.18</ele>
        <time>2020-06-11T07:19:22Z</time>
      </trkpt>
      <trkpt lat="45.41935" lon="6.16968">
        <ele>1728.59</ele>
        <time>2020-06-11T07:19:34Z</time>
      </trkpt>
      <trkpt lat="45.41938" lon="6.1698">
        <ele>1731.95</ele>
        <time>2020-06-11T07:19:51Z</time>
      </trkpt>
      <trkpt lat="45.41944" lon="6.16993">
        <ele>1734.36</ele>
        <time>2020-06-11T07:20:07Z</time>
      </trkpt>
      <trkpt lat="45.41947" lon="6.17001">
        <ele>1737.72</ele>
        <time>2020-06-11T07:20:18Z</time>
      </trkpt>
      <trkpt lat="45.41951" lon="6.17016">
        <ele>1740.6</ele>
        <time>2020-06-11T07:20:37Z</time>
      </trkpt>
      <trkpt lat="45.4195" lon="6.17029">
        <ele>1743.49</ele>
        <time>2020-06-11T07:20:54Z</time>
      </trkpt>
      <trkpt lat="45.41949" lon="6.1704">
        <ele>1746.37</ele>
        <time>2020-06-11T07:21:08Z</time>
      </trkpt>
      <trkpt lat="45.41948" lon="6.17047">
        <ele>1747.33</ele>
        <time>2020-06-11T07:21:27Z</time>
      </trkpt>
      <trkpt lat="45.41947" lon="6.17053">
        <ele>1750.22</ele>
        <time>2020-06-11T07:21:38Z</time>
      </trkpt>
      <trkpt lat="45.41947" lon="6.17054">
        <ele>1751.18</ele>
        <time>2020-06-11T07:21:40Z</time>
      </trkpt>
      <trkpt lat="45.41947" lon="6.17062">
        <ele>1752.62</ele>
        <time>2020-06-11T07:21:54Z</time>
      </trkpt>
      <trkpt lat="45.41949" lon="6.17078">
        <ele>1755.99</ele>
        <time>2020-06-11T07:22:12Z</time>
      </trkpt>
      <trkpt lat="45.41948" lon="6.17093">
        <ele>1758.39</ele>
        <time>2020-06-11T07:22:33Z</time>
      </trkpt>
      <trkpt lat="45.41951" lon="6.1711">
        <ele>1761.75</ele>
        <time>2020-06-11T07:22:53Z</time>
      </trkpt>
      <trkpt lat="45.41954" lon="6.17127">
        <ele>1764.64</ele>
        <time>2020-06-11T07:23:09Z</time>
      </trkpt>
      <trkpt lat="45.41954" lon="6.1714">
        <ele>1768</ele>
        <time>2020-06-11T07:23:23Z</time>
      </trkpt>
      <trkpt lat="45.41955" lon="6.17158">
        <ele>1770.89</ele>
        <time>2020-06-11T07:23:41Z</time>
      </trkpt>
      <trkpt lat="45.41956" lon="6.17182">
        <ele>1773.77</ele>
        <time>2020-06-11T07:24:01Z</time>
      </trkpt>
      <trkpt lat="45.41955" lon="6.17212">
        <ele>1777.13</ele>
        <time>2020-06-11T07:24:23Z</time>
      </trkpt>
      <trkpt lat="45.41954" lon="6.17216">
        <ele>1777.61</ele>
        <time>2020-06-11T07:24:26Z</time>
      </trkpt>
      <trkpt lat="45.41954" lon="6.17218">
        <ele>1777.61</ele>
        <time>2020-06-11T07:24:27Z</time>
      </trkpt>
      <trkpt lat="45.41954" lon="6.17219">
        <ele>1778.1</ele>
        <time>2020-06-11T07:24:28Z</time>
      </trkpt>
      <trkpt lat="45.41952" lon="6.17244">
        <ele>1780.5</ele>
        <time>2020-06-11T07:24:46Z</time>
      </trkpt>
      <trkpt lat="45.41952" lon="6.17247">
        <ele>1780.5</ele>
        <time>2020-06-11T07:24:48Z</time>
      </trkpt>
      <trkpt lat="45.41951" lon="6.1727">
        <ele>1781.94</ele>
        <time>2020-06-11T07:25:04Z</time>
      </trkpt>
      <trkpt lat="45.4195" lon="6.17291">
        <ele>1783.38</ele>
        <time>2020-06-11T07:25:22Z</time>
      </trkpt>
      <trkpt lat="45.41949" lon="6.17307">
        <ele>1786.27</ele>
        <time>2020-06-11T07:25:41Z</time>
      </trkpt>
      <trkpt lat="45.4195" lon="6.17319">
        <ele>1788.67</ele>
        <time>2020-06-11T07:25:56Z</time>
      </trkpt>
      <trkpt lat="45.41949" lon="6.17334">
        <ele>1792.03</ele>
        <time>2020-06-11T07:26:16Z</time>
      </trkpt>
      <trkpt lat="45.41948" lon="6.17349">
        <ele>1794.92</ele>
        <time>2020-06-11T07:26:34Z</time>
      </trkpt>
      <trkpt lat="45.41946" lon="6.17368">
        <ele>1797.8</ele>
        <time>2020-06-11T07:26:53Z</time>
      </trkpt>
      <trkpt lat="45.41939" lon="6.17388">
        <ele>1799.24</ele>
        <time>2020-06-11T07:27:09Z</time>
      </trkpt>
      <trkpt lat="45.4193" lon="6.17405">
        <ele>1799.24</ele>
        <time>2020-06-11T07:27:28Z</time>
      </trkpt>
      <trkpt lat="45.41926" lon="6.17407">
        <ele>1800.21</ele>
        <time>2020-06-11T07:27:42Z</time>
      </trkpt>
      <trkpt lat="45.41925" lon="6.17407">
        <ele>1802.61</ele>
        <time>2020-06-11T07:27:49Z</time>
      </trkpt>
      <trkpt lat="45.41923" lon="6.17409">
        <ele>1802.61</ele>
        <time>2020-06-11T07:28:04Z</time>
      </trkpt>
      <trkpt lat="45.41918" lon="6.1742">
        <ele>1803.09</ele>
        <time>2020-06-11T07:28:26Z</time>
      </trkpt>
      <trkpt lat="45.41905" lon="6.17437">
        <ele>1802.13</ele>
        <time>2020-06-11T07:28:48Z</time>
      </trkpt>
      <trkpt lat="45.4189" lon="6.17452">
        <ele>1801.65</ele>
        <time>2020-06-11T07:29:05Z</time>
      </trkpt>
      <trkpt lat="45.41877" lon="6.17463">
        <ele>1801.17</ele>
        <time>2020-06-11T07:29:22Z</time>
      </trkpt>
      <trkpt lat="45.41869" lon="6.17466">
        <ele>1800.21</ele>
        <time>2020-06-11T07:29:31Z</time>
      </trkpt>
      <trkpt lat="45.4186" lon="6.17473">
        <ele>1799.24</ele>
        <time>2020-06-11T07:29:43Z</time>
      </trkpt>
      <trkpt lat="45.41851" lon="6.17479">
        <ele>1799.73</ele>
        <time>2020-06-11T07:29:59Z</time>
      </trkpt>
      <trkpt lat="45.41843" lon="6.17484">
        <ele>1799.73</ele>
        <time>2020-06-11T07:30:10Z</time>
      </trkpt>
      <trkpt lat="45.41841" lon="6.17484">
        <ele>1800.21</ele>
        <time>2020-06-11T07:30:12Z</time>
      </trkpt>
      <trkpt lat="45.41837" lon="6.17486">
        <ele>1802.13</ele>
        <time>2020-06-11T07:30:16Z</time>
      </trkpt>
      <trkpt lat="45.41825" lon="6.17492">
        <ele>1803.57</ele>
        <time>2020-06-11T07:30:31Z</time>
      </trkpt>
      <trkpt lat="45.41811" lon="6.17502">
        <ele>1805.01</ele>
        <time>2020-06-11T07:30:49Z</time>
      </trkpt>
      <trkpt lat="45.41802" lon="6.17511">
        <ele>1805.49</ele>
        <time>2020-06-11T07:31:06Z</time>
      </trkpt>
      <trkpt lat="45.41788" lon="6.17527">
        <ele>1805.49</ele>
        <time>2020-06-11T07:31:29Z</time>
      </trkpt>
      <trkpt lat="45.41773" lon="6.17542">
        <ele>1806.45</ele>
        <time>2020-06-11T07:31:52Z</time>
      </trkpt>
      <trkpt lat="45.41758" lon="6.17557">
        <ele>1806.94</ele>
        <time>2020-06-11T07:32:13Z</time>
      </trkpt>
      <trkpt lat="45.41745" lon="6.17575">
        <ele>1808.38</ele>
        <time>2020-06-11T07:32:34Z</time>
      </trkpt>
      <trkpt lat="45.41729" lon="6.17586">
        <ele>1808.86</ele>
        <time>2020-06-11T07:32:53Z</time>
      </trkpt>
      <trkpt lat="45.41712" lon="6.17598">
        <ele>1809.82</ele>
        <time>2020-06-11T07:33:11Z</time>
      </trkpt>
      <trkpt lat="45.41706" lon="6.17607">
        <ele>1810.78</ele>
        <time>2020-06-11T07:33:29Z</time>
      </trkpt>
      <trkpt lat="45.41702" lon="6.17612">
        <ele>1811.26</ele>
        <time>2020-06-11T07:33:34Z</time>
      </trkpt>
      <trkpt lat="45.41693" lon="6.17625">
        <ele>1812.22</ele>
        <time>2020-06-11T07:33:50Z</time>
      </trkpt>
      <trkpt lat="45.41687" lon="6.17644">
        <ele>1814.15</ele>
        <time>2020-06-11T07:34:10Z</time>
      </trkpt>
      <trkpt lat="45.41678" lon="6.17671">
        <ele>1815.11</ele>
        <time>2020-06-11T07:34:34Z</time>
      </trkpt>
      <trkpt lat="45.41672" lon="6.17696">
        <ele>1814.63</ele>
        <time>2020-06-11T07:34:53Z</time>
      </trkpt>
      <trkpt lat="45.41666" lon="6.17722">
        <ele>1815.11</ele>
        <time>2020-06-11T07:35:13Z</time>
      </trkpt>
      <trkpt lat="45.41661" lon="6.17737">
        <ele>1815.11</ele>
        <time>2020-06-11T07:35:35Z</time>
      </trkpt>
      <trkpt lat="45.41653" lon="6.1776">
        <ele>1815.11</ele>
        <time>2020-06-11T07:35:55Z</time>
      </trkpt>
      <trkpt lat="45.41643" lon="6.17779">
        <ele>1815.11</ele>
        <time>2020-06-11T07:36:16Z</time>
      </trkpt>
      <trkpt lat="45.41642" lon="6.1778">
        <ele>1818.95</ele>
        <time>2020-06-11T07:36:23Z</time>
      </trkpt>
      <trkpt lat="45.41642" lon="6.1778">
        <ele>1818.47</ele>
        <time>2020-06-11T07:36:24Z</time>
      </trkpt>
      <trkpt lat="45.41641" lon="6.1778">
        <ele>1816.55</ele>
        <time>2020-06-11T07:36:26Z</time>
      </trkpt>
      <trkpt lat="45.4164" lon="6.17781">
        <ele>1819.43</ele>
        <time>2020-06-11T07:36:42Z</time>
      </trkpt>
      <trkpt lat="45.4163" lon="6.17791">
        <ele>1817.99</ele>
        <time>2020-06-11T07:36:59Z</time>
      </trkpt>
      <trkpt lat="45.41623" lon="6.17805">
        <ele>1817.03</ele>
        <time>2020-06-11T07:37:12Z</time>
      </trkpt>
      <trkpt lat="45.41622" lon="6.17806">
        <ele>1817.03</ele>
        <time>2020-06-11T07:37:13Z</time>
      </trkpt>
      <trkpt lat="45.41607" lon="6.17826">
        <ele>1817.03</ele>
        <time>2020-06-11T07:37:31Z</time>
      </trkpt>
      <trkpt lat="45.41596" lon="6.17846">
        <ele>1817.99</ele>
        <time>2020-06-11T07:37:48Z</time>
      </trkpt>
      <trkpt lat="45.41593" lon="6.17848">
        <ele>1817.99</ele>
        <time>2020-06-11T07:37:52Z</time>
      </trkpt>
      <trkpt lat="45.41589" lon="6.17854">
        <ele>1817.51</ele>
        <time>2020-06-11T07:38:04Z</time>
      </trkpt>
      <trkpt lat="45.41578" lon="6.17863">
        <ele>1819.91</ele>
        <time>2020-06-11T07:38:21Z</time>
      </trkpt>
      <trkpt lat="45.41577" lon="6.17863">
        <ele>1819.91</ele>
        <time>2020-06-11T07:38:22Z</time>
      </trkpt>
      <trkpt lat="45.41565" lon="6.17869">
        <ele>1819.91</ele>
        <time>2020-06-11T07:38:38Z</time>
      </trkpt>
      <trkpt lat="45.41548" lon="6.17875">
        <ele>1821.84</ele>
        <time>2020-06-11T07:38:56Z</time>
      </trkpt>
      <trkpt lat="45.41533" lon="6.17884">
        <ele>1822.8</ele>
        <time>2020-06-11T07:39:14Z</time>
      </trkpt>
      <trkpt lat="45.41521" lon="6.17893">
        <ele>1823.76</ele>
        <time>2020-06-11T07:39:29Z</time>
      </trkpt>
      <trkpt lat="45.41514" lon="6.17898">
        <ele>1824.24</ele>
        <time>2020-06-11T07:39:43Z</time>
      </trkpt>
      <trkpt lat="45.41504" lon="6.17906">
        <ele>1825.68</ele>
        <time>2020-06-11T07:39:59Z</time>
      </trkpt>
      <trkpt lat="45.41491" lon="6.17908">
        <ele>1828.56</ele>
        <time>2020-06-11T07:40:15Z</time>
      </trkpt>
      <trkpt lat="45.41478" lon="6.17912">
        <ele>1829.05</ele>
        <time>2020-06-11T07:40:30Z</time>
      </trkpt>
      <trkpt lat="45.41457" lon="6.17918">
        <ele>1830.49</ele>
        <time>2020-06-11T07:40:52Z</time>
      </trkpt>
      <trkpt lat="45.41445" lon="6.17926">
        <ele>1831.45</ele>
        <time>2020-06-11T07:41:09Z</time>
      </trkpt>
      <trkpt lat="45.41428" lon="6.17936">
        <ele>1832.89</ele>
        <time>2020-06-11T07:41:28Z</time>
      </trkpt>
      <trkpt lat="45.41409" lon="6.1794">
        <ele>1833.37</ele>
        <time>2020-06-11T07:41:48Z</time>
      </trkpt>
      <trkpt lat="45.41396" lon="6.1794">
        <ele>1833.85</ele>
        <time>2020-06-11T07:42:05Z</time>
      </trkpt>
      <trkpt lat="45.41385" lon="6.17944">
        <ele>1834.33</ele>
        <time>2020-06-11T07:42:23Z</time>
      </trkpt>
      <trkpt lat="45.41371" lon="6.17945">
        <ele>1835.77</ele>
        <time>2020-06-11T07:42:42Z</time>
      </trkpt>
      <trkpt lat="45.41356" lon="6.17949">
        <ele>1838.18</ele>
        <time>2020-06-11T07:43:01Z</time>
      </trkpt>
      <trkpt lat="45.41341" lon="6.17958">
        <ele>1839.62</ele>
        <time>2020-06-11T07:43:23Z</time>
      </trkpt>
      <trkpt lat="45.41336" lon="6.17966">
        <ele>1840.1</ele>
        <time>2020-06-11T07:43:30Z</time>
      </trkpt>
      <trkpt lat="45.41337" lon="6.17972">
        <ele>1839.62</ele>
        <time>2020-06-11T07:43:35Z</time>
      </trkpt>
      <trkpt lat="45.41337" lon="6.17992">
        <ele>1840.1</ele>
        <time>2020-06-11T07:43:52Z</time>
      </trkpt>
      <trkpt lat="45.41339" lon="6.18023">
        <ele>1843.47</ele>
        <time>2020-06-11T07:44:16Z</time>
      </trkpt>
      <trkpt lat="45.41337" lon="6.18049">
        <ele>1846.35</ele>
        <time>2020-06-11T07:44:38Z</time>
      </trkpt>
      <trkpt lat="45.41337" lon="6.18054">
        <ele>1846.83</ele>
        <time>2020-06-11T07:44:42Z</time>
      </trkpt>
      <trkpt lat="45.41339" lon="6.18073">
        <ele>1849.71</ele>
        <time>2020-06-11T07:45:02Z</time>
      </trkpt>
      <trkpt lat="45.41342" lon="6.1809">
        <ele>1853.08</ele>
        <time>2020-06-11T07:45:20Z</time>
      </trkpt>
      <trkpt lat="45.4134" lon="6.1811">
        <ele>1855</ele>
        <time>2020-06-11T07:45:41Z</time>
      </trkpt>
      <trkpt lat="45.41336" lon="6.1813">
        <ele>1857.4</ele>
        <time>2020-06-11T07:45:59Z</time>
      </trkpt>
      <trkpt lat="45.41334" lon="6.18137">
        <ele>1857.4</ele>
        <time>2020-06-11T07:46:04Z</time>
      </trkpt>
      <trkpt lat="45.41329" lon="6.18165">
        <ele>1855.96</ele>
        <time>2020-06-11T07:46:24Z</time>
      </trkpt>
      <trkpt lat="45.41322" lon="6.18193">
        <ele>1855.96</ele>
        <time>2020-06-11T07:46:43Z</time>
      </trkpt>
      <trkpt lat="45.41317" lon="6.18215">
        <ele>1855.96</ele>
        <time>2020-06-11T07:46:58Z</time>
      </trkpt>
      <trkpt lat="45.41308" lon="6.18225">
        <ele>1856.92</ele>
        <time>2020-06-11T07:47:09Z</time>
      </trkpt>
      <trkpt lat="45.41307" lon="6.18226">
        <ele>1856.92</ele>
        <time>2020-06-11T07:47:10Z</time>
      </trkpt>
      <trkpt lat="45.41305" lon="6.18231">
        <ele>1857.4</ele>
        <time>2020-06-11T07:47:14Z</time>
      </trkpt>
      <trkpt lat="45.41305" lon="6.18233">
        <ele>1857.89</ele>
        <time>2020-06-11T07:47:15Z</time>
      </trkpt>
      <trkpt lat="45.41305" lon="6.18234">
        <ele>1857.89</ele>
        <time>2020-06-11T07:47:16Z</time>
      </trkpt>
      <trkpt lat="45.41304" lon="6.18236">
        <ele>1857.89</ele>
        <time>2020-06-11T07:47:17Z</time>
      </trkpt>
      <trkpt lat="45.41304" lon="6.18238">
        <ele>1857.89</ele>
        <time>2020-06-11T07:47:18Z</time>
      </trkpt>
      <trkpt lat="45.41303" lon="6.1824">
        <ele>1857.89</ele>
        <time>2020-06-11T07:47:19Z</time>
      </trkpt>
      <trkpt lat="45.41303" lon="6.18242">
        <ele>1857.89</ele>
        <time>2020-06-11T07:47:20Z</time>
      </trkpt>
      <trkpt lat="45.41303" lon="6.18244">
        <ele>1857.89</ele>
        <time>2020-06-11T07:47:21Z</time>
      </trkpt>
      <trkpt lat="45.41302" lon="6.18253">
        <ele>1857.89</ele>
        <time>2020-06-11T07:47:28Z</time>
      </trkpt>
      <trkpt lat="45.413" lon="6.18274">
        <ele>1858.37</ele>
        <time>2020-06-11T07:47:48Z</time>
      </trkpt>
      <trkpt lat="45.41298" lon="6.18276">
        <ele>1858.37</ele>
        <time>2020-06-11T07:47:50Z</time>
      </trkpt>
      <trkpt lat="45.41295" lon="6.18292">
        <ele>1860.29</ele>
        <time>2020-06-11T07:48:05Z</time>
      </trkpt>
      <trkpt lat="45.41285" lon="6.18309">
        <ele>1863.17</ele>
        <time>2020-06-11T07:48:24Z</time>
      </trkpt>
      <trkpt lat="45.41282" lon="6.18325">
        <ele>1866.54</ele>
        <time>2020-06-11T07:48:40Z</time>
      </trkpt>
      <trkpt lat="45.41277" lon="6.18344">
        <ele>1868.94</ele>
        <time>2020-06-11T07:49:01Z</time>
      </trkpt>
      <trkpt lat="45.41278" lon="6.18347">
        <ele>1869.42</ele>
        <time>2020-06-11T07:49:21Z</time>
      </trkpt>
      <trkpt lat="45.41275" lon="6.18346">
        <ele>1867.98</ele>
        <time>2020-06-11T07:49:44Z</time>
      </trkpt>
      <trkpt lat="45.41273" lon="6.18345">
        <ele>1870.38</ele>
        <time>2020-06-11T07:50:21Z</time>
      </trkpt>
      <trkpt lat="45.41274" lon="6.18346">
        <ele>1870.38</ele>
        <time>2020-06-11T07:51:08Z</time>
      </trkpt>
      <trkpt lat="45.41273" lon="6.18344">
        <ele>1870.38</ele>
        <time>2020-06-11T07:52:34Z</time>
      </trkpt>
      <trkpt lat="45.41273" lon="6.18345">
        <ele>1870.38</ele>
        <time>2020-06-11T07:52:59Z</time>
      </trkpt>
      <trkpt lat="45.41273" lon="6.18346">
        <ele>1870.38</ele>
        <time>2020-06-11T07:53:28Z</time>
      </trkpt>
      <trkpt lat="45.41272" lon="6.18345">
        <ele>1870.38</ele>
        <time>2020-06-11T07:53:50Z</time>
      </trkpt>
      <trkpt lat="45.41271" lon="6.18345">
        <ele>1870.38</ele>
        <time>2020-06-11T07:54:20Z</time>
      </trkpt>
      <trkpt lat="45.41268" lon="6.18358">
        <ele>1870.38</ele>
        <time>2020-06-11T07:54:36Z</time>
      </trkpt>
      <trkpt lat="45.41256" lon="6.18374">
        <ele>1870.38</ele>
        <time>2020-06-11T07:54:52Z</time>
      </trkpt>
      <trkpt lat="45.41243" lon="6.18389">
        <ele>1870.38</ele>
        <time>2020-06-11T07:55:06Z</time>
      </trkpt>
      <trkpt lat="45.41242" lon="6.18389">
        <ele>1870.86</ele>
        <time>2020-06-11T07:55:07Z</time>
      </trkpt>
      <trkpt lat="45.41242" lon="6.1839">
        <ele>1870.86</ele>
        <time>2020-06-11T07:55:08Z</time>
      </trkpt>
      <trkpt lat="45.41241" lon="6.18391">
        <ele>1870.86</ele>
        <time>2020-06-11T07:55:09Z</time>
      </trkpt>
      <trkpt lat="45.41226" lon="6.18404">
        <ele>1871.34</ele>
        <time>2020-06-11T07:55:28Z</time>
      </trkpt>
      <trkpt lat="45.41209" lon="6.18416">
        <ele>1873.75</ele>
        <time>2020-06-11T07:55:45Z</time>
      </trkpt>
      <trkpt lat="45.41191" lon="6.18428">
        <ele>1875.19</ele>
        <time>2020-06-11T07:56:03Z</time>
      </trkpt>
      <trkpt lat="45.41187" lon="6.18436">
        <ele>1875.19</ele>
        <time>2020-06-11T07:56:09Z</time>
      </trkpt>
      <trkpt lat="45.41186" lon="6.18437">
        <ele>1875.19</ele>
        <time>2020-06-11T07:56:10Z</time>
      </trkpt>
      <trkpt lat="45.41168" lon="6.18447">
        <ele>1875.19</ele>
        <time>2020-06-11T07:56:28Z</time>
      </trkpt>
      <trkpt lat="45.41159" lon="6.18451">
        <ele>1875.19</ele>
        <time>2020-06-11T07:56:38Z</time>
      </trkpt>
      <trkpt lat="45.41158" lon="6.18452">
        <ele>1875.19</ele>
        <time>2020-06-11T07:56:39Z</time>
      </trkpt>
      <trkpt lat="45.41157" lon="6.18452">
        <ele>1875.19</ele>
        <time>2020-06-11T07:56:40Z</time>
      </trkpt>
      <trkpt lat="45.41148" lon="6.18453">
        <ele>1874.71</ele>
        <time>2020-06-11T07:56:48Z</time>
      </trkpt>
      <trkpt lat="45.41142" lon="6.18454">
        <ele>1874.23</ele>
        <time>2020-06-11T07:56:53Z</time>
      </trkpt>
      <trkpt lat="45.41123" lon="6.18452">
        <ele>1872.79</ele>
        <time>2020-06-11T07:57:09Z</time>
      </trkpt>
      <trkpt lat="45.41105" lon="6.18451">
        <ele>1870.86</ele>
        <time>2020-06-11T07:57:25Z</time>
      </trkpt>
      <trkpt lat="45.41099" lon="6.18452">
        <ele>1869.9</ele>
        <time>2020-06-11T07:57:31Z</time>
      </trkpt>
      <trkpt lat="45.41097" lon="6.18451">
        <ele>1869.9</ele>
        <time>2020-06-11T07:57:32Z</time>
      </trkpt>
      <trkpt lat="45.41096" lon="6.18451">
        <ele>1869.9</ele>
        <time>2020-06-11T07:57:33Z</time>
      </trkpt>
      <trkpt lat="45.41095" lon="6.1845">
        <ele>1869.9</ele>
        <time>2020-06-11T07:57:34Z</time>
      </trkpt>
      <trkpt lat="45.41094" lon="6.1845">
        <ele>1869.42</ele>
        <time>2020-06-11T07:57:35Z</time>
      </trkpt>
      <trkpt lat="45.41087" lon="6.18448">
        <ele>1868.94</ele>
        <time>2020-06-11T07:57:43Z</time>
      </trkpt>
      <trkpt lat="45.41086" lon="6.18447">
        <ele>1868.94</ele>
        <time>2020-06-11T07:57:44Z</time>
      </trkpt>
      <trkpt lat="45.41081" lon="6.18445">
        <ele>1868.94</ele>
        <time>2020-06-11T07:57:49Z</time>
      </trkpt>
      <trkpt lat="45.4108" lon="6.18445">
        <ele>1868.94</ele>
        <time>2020-06-11T07:57:50Z</time>
      </trkpt>
      <trkpt lat="45.41079" lon="6.18445">
        <ele>1868.94</ele>
        <time>2020-06-11T07:57:51Z</time>
      </trkpt>
      <trkpt lat="45.41078" lon="6.18445">
        <ele>1868.94</ele>
        <time>2020-06-11T07:57:52Z</time>
      </trkpt>
      <trkpt lat="45.41077" lon="6.18444">
        <ele>1868.46</ele>
        <time>2020-06-11T07:57:53Z</time>
      </trkpt>
      <trkpt lat="45.41075" lon="6.18444">
        <ele>1868.46</ele>
        <time>2020-06-11T07:57:54Z</time>
      </trkpt>
      <trkpt lat="45.41074" lon="6.18444">
        <ele>1868.46</ele>
        <time>2020-06-11T07:57:55Z</time>
      </trkpt>
      <trkpt lat="45.41066" lon="6.18446">
        <ele>1868.94</ele>
        <time>2020-06-11T07:58:03Z</time>
      </trkpt>
      <trkpt lat="45.41063" lon="6.18449">
        <ele>1868.94</ele>
        <time>2020-06-11T07:58:07Z</time>
      </trkpt>
      <trkpt lat="45.41062" lon="6.18449">
        <ele>1868.94</ele>
        <time>2020-06-11T07:58:08Z</time>
      </trkpt>
      <trkpt lat="45.41061" lon="6.18449">
        <ele>1868.94</ele>
        <time>2020-06-11T07:58:09Z</time>
      </trkpt>
      <trkpt lat="45.41041" lon="6.18456">
        <ele>1869.9</ele>
        <time>2020-06-11T07:58:27Z</time>
      </trkpt>
      <trkpt lat="45.41024" lon="6.18463">
        <ele>1870.38</ele>
        <time>2020-06-11T07:58:45Z</time>
      </trkpt>
      <trkpt lat="45.41022" lon="6.18465">
        <ele>1869.9</ele>
        <time>2020-06-11T07:58:48Z</time>
      </trkpt>
      <trkpt lat="45.41006" lon="6.18477">
        <ele>1867.02</ele>
        <time>2020-06-11T07:59:04Z</time>
      </trkpt>
      <trkpt lat="45.40989" lon="6.18472">
        <ele>1866.54</ele>
        <time>2020-06-11T07:59:19Z</time>
      </trkpt>
      <trkpt lat="45.40977" lon="6.18471">
        <ele>1867.98</ele>
        <time>2020-06-11T07:59:32Z</time>
      </trkpt>
      <trkpt lat="45.40977" lon="6.18471">
        <ele>1867.98</ele>
        <time>2020-06-11T07:59:33Z</time>
      </trkpt>
      <trkpt lat="45.40976" lon="6.18473">
        <ele>1867.98</ele>
        <time>2020-06-11T07:59:34Z</time>
      </trkpt>
      <trkpt lat="45.40975" lon="6.18473">
        <ele>1867.98</ele>
        <time>2020-06-11T07:59:35Z</time>
      </trkpt>
      <trkpt lat="45.40974" lon="6.18474">
        <ele>1867.98</ele>
        <time>2020-06-11T07:59:36Z</time>
      </trkpt>
      <trkpt lat="45.40972" lon="6.18475">
        <ele>1867.98</ele>
        <time>2020-06-11T07:59:37Z</time>
      </trkpt>
      <trkpt lat="45.40971" lon="6.18475">
        <ele>1867.98</ele>
        <time>2020-06-11T07:59:38Z</time>
      </trkpt>
      <trkpt lat="45.4097" lon="6.18475">
        <ele>1867.98</ele>
        <time>2020-06-11T07:59:39Z</time>
      </trkpt>
      <trkpt lat="45.40969" lon="6.18476">
        <ele>1867.98</ele>
        <time>2020-06-11T07:59:40Z</time>
      </trkpt>
      <trkpt lat="45.40952" lon="6.18474">
        <ele>1866.06</ele>
        <time>2020-06-11T07:59:55Z</time>
      </trkpt>
      <trkpt lat="45.40934" lon="6.18471">
        <ele>1865.58</ele>
        <time>2020-06-11T08:00:11Z</time>
      </trkpt>
      <trkpt lat="45.40933" lon="6.18471">
        <ele>1865.58</ele>
        <time>2020-06-11T08:00:12Z</time>
      </trkpt>
      <trkpt lat="45.40927" lon="6.1847">
        <ele>1864.61</ele>
        <time>2020-06-11T08:00:24Z</time>
      </trkpt>
      <trkpt lat="45.40922" lon="6.18472">
        <ele>1864.13</ele>
        <time>2020-06-11T08:00:40Z</time>
      </trkpt>
      <trkpt lat="45.40919" lon="6.18475">
        <ele>1864.13</ele>
        <time>2020-06-11T08:00:45Z</time>
      </trkpt>
      <trkpt lat="45.40917" lon="6.18475">
        <ele>1863.65</ele>
        <time>2020-06-11T08:00:47Z</time>
      </trkpt>
      <trkpt lat="45.40911" lon="6.18477">
        <ele>1862.21</ele>
        <time>2020-06-11T08:00:56Z</time>
      </trkpt>
      <trkpt lat="45.40906" lon="6.18476">
        <ele>1861.73</ele>
        <time>2020-06-11T08:01:01Z</time>
      </trkpt>
      <trkpt lat="45.40905" lon="6.18475">
        <ele>1861.73</ele>
        <time>2020-06-11T08:01:02Z</time>
      </trkpt>
      <trkpt lat="45.40904" lon="6.18475">
        <ele>1861.73</ele>
        <time>2020-06-11T08:01:03Z</time>
      </trkpt>
      <trkpt lat="45.40903" lon="6.18475">
        <ele>1861.73</ele>
        <time>2020-06-11T08:01:04Z</time>
      </trkpt>
      <trkpt lat="45.40902" lon="6.18475">
        <ele>1861.73</ele>
        <time>2020-06-11T08:01:05Z</time>
      </trkpt>
      <trkpt lat="45.40887" lon="6.18479">
        <ele>1860.29</ele>
        <time>2020-06-11T08:01:21Z</time>
      </trkpt>
      <trkpt lat="45.40884" lon="6.1848">
        <ele>1859.81</ele>
        <time>2020-06-11T08:01:24Z</time>
      </trkpt>
      <trkpt lat="45.40876" lon="6.18489">
        <ele>1857.89</ele>
        <time>2020-06-11T08:01:34Z</time>
      </trkpt>
      <trkpt lat="45.40865" lon="6.18494">
        <ele>1856.92</ele>
        <time>2020-06-11T08:01:44Z</time>
      </trkpt>
      <trkpt lat="45.4085" lon="6.18496">
        <ele>1857.4</ele>
        <time>2020-06-11T08:01:59Z</time>
      </trkpt>
      <trkpt lat="45.40849" lon="6.18497">
        <ele>1857.4</ele>
        <time>2020-06-11T08:02:00Z</time>
      </trkpt>
      <trkpt lat="45.40847" lon="6.18499">
        <ele>1856.92</ele>
        <time>2020-06-11T08:02:02Z</time>
      </trkpt>
      <trkpt lat="45.40846" lon="6.18499">
        <ele>1856.92</ele>
        <time>2020-06-11T08:02:03Z</time>
      </trkpt>
      <trkpt lat="45.40845" lon="6.18499">
        <ele>1856.92</ele>
        <time>2020-06-11T08:02:04Z</time>
      </trkpt>
      <trkpt lat="45.40827" lon="6.18499">
        <ele>1855.48</ele>
        <time>2020-06-11T08:02:22Z</time>
      </trkpt>
      <trkpt lat="45.40826" lon="6.18499">
        <ele>1855.48</ele>
        <time>2020-06-11T08:02:23Z</time>
      </trkpt>
      <trkpt lat="45.40825" lon="6.18499">
        <ele>1855.48</ele>
        <time>2020-06-11T08:02:24Z</time>
      </trkpt>
      <trkpt lat="45.40824" lon="6.18499">
        <ele>1855.48</ele>
        <time>2020-06-11T08:02:25Z</time>
      </trkpt>
      <trkpt lat="45.40809" lon="6.18504">
        <ele>1852.6</ele>
        <time>2020-06-11T08:02:41Z</time>
      </trkpt>
      <trkpt lat="45.40795" lon="6.18504">
        <ele>1851.16</ele>
        <time>2020-06-11T08:02:56Z</time>
      </trkpt>
      <trkpt lat="45.4079" lon="6.18511">
        <ele>1849.71</ele>
        <time>2020-06-11T08:03:04Z</time>
      </trkpt>
      <trkpt lat="45.40784" lon="6.18521">
        <ele>1849.23</ele>
        <time>2020-06-11T08:03:18Z</time>
      </trkpt>
      <trkpt lat="45.40781" lon="6.1853">
        <ele>1845.87</ele>
        <time>2020-06-11T08:03:32Z</time>
      </trkpt>
      <trkpt lat="45.40781" lon="6.18537">
        <ele>1844.43</ele>
        <time>2020-06-11T08:03:48Z</time>
      </trkpt>
      <trkpt lat="45.4078" lon="6.1854">
        <ele>1843.95</ele>
        <time>2020-06-11T08:03:52Z</time>
      </trkpt>
      <trkpt lat="45.4078" lon="6.18542">
        <ele>1843.95</ele>
        <time>2020-06-11T08:03:53Z</time>
      </trkpt>
      <trkpt lat="45.4078" lon="6.18543">
        <ele>1843.95</ele>
        <time>2020-06-11T08:03:54Z</time>
      </trkpt>
      <trkpt lat="45.4078" lon="6.18545">
        <ele>1843.47</ele>
        <time>2020-06-11T08:03:55Z</time>
      </trkpt>
      <trkpt lat="45.4078" lon="6.18547">
        <ele>1843.47</ele>
        <time>2020-06-11T08:03:56Z</time>
      </trkpt>
      <trkpt lat="45.4078" lon="6.1855">
        <ele>1842.98</ele>
        <time>2020-06-11T08:04:07Z</time>
      </trkpt>
      <trkpt lat="45.40781" lon="6.18557">
        <ele>1842.5</ele>
        <time>2020-06-11T08:04:34Z</time>
      </trkpt>
      <trkpt lat="45.40781" lon="6.18574">
        <ele>1844.43</ele>
        <time>2020-06-11T08:04:52Z</time>
      </trkpt>
      <trkpt lat="45.40784" lon="6.18591">
        <ele>1847.79</ele>
        <time>2020-06-11T08:05:11Z</time>
      </trkpt>
      <trkpt lat="45.40788" lon="6.18601">
        <ele>1850.19</ele>
        <time>2020-06-11T08:05:25Z</time>
      </trkpt>
      <trkpt lat="45.40789" lon="6.18612">
        <ele>1853.08</ele>
        <time>2020-06-11T08:05:41Z</time>
      </trkpt>
      <trkpt lat="45.40783" lon="6.18625">
        <ele>1853.56</ele>
        <time>2020-06-11T08:05:57Z</time>
      </trkpt>
      <trkpt lat="45.40777" lon="6.18629">
        <ele>1853.56</ele>
        <time>2020-06-11T08:06:09Z</time>
      </trkpt>
      <trkpt lat="45.40771" lon="6.18632">
        <ele>1852.6</ele>
        <time>2020-06-11T08:06:17Z</time>
      </trkpt>
      <trkpt lat="45.40763" lon="6.18646">
        <ele>1852.12</ele>
        <time>2020-06-11T08:06:31Z</time>
      </trkpt>
      <trkpt lat="45.40757" lon="6.18651">
        <ele>1851.64</ele>
        <time>2020-06-11T08:06:45Z</time>
      </trkpt>
      <trkpt lat="45.4075" lon="6.18653">
        <ele>1850.19</ele>
        <time>2020-06-11T08:06:56Z</time>
      </trkpt>
      <trkpt lat="45.40748" lon="6.18654">
        <ele>1850.19</ele>
        <time>2020-06-11T08:06:59Z</time>
      </trkpt>
      <trkpt lat="45.40747" lon="6.18654">
        <ele>1850.19</ele>
        <time>2020-06-11T08:07:00Z</time>
      </trkpt>
      <trkpt lat="45.40739" lon="6.18662">
        <ele>1849.71</ele>
        <time>2020-06-11T08:07:13Z</time>
      </trkpt>
      <trkpt lat="45.40734" lon="6.18669">
        <ele>1851.16</ele>
        <time>2020-06-11T08:07:30Z</time>
      </trkpt>
      <trkpt lat="45.40724" lon="6.18671">
        <ele>1852.6</ele>
        <time>2020-06-11T08:07:49Z</time>
      </trkpt>
      <trkpt lat="45.40713" lon="6.18673">
        <ele>1853.56</ele>
        <time>2020-06-11T08:08:09Z</time>
      </trkpt>
      <trkpt lat="45.40705" lon="6.18683">
        <ele>1855.96</ele>
        <time>2020-06-11T08:08:29Z</time>
      </trkpt>
      <trkpt lat="45.40701" lon="6.18686">
        <ele>1855.96</ele>
        <time>2020-06-11T08:08:50Z</time>
      </trkpt>
      <trkpt lat="45.40701" lon="6.18689">
        <ele>1856.92</ele>
        <time>2020-06-11T08:09:16Z</time>
      </trkpt>
      <trkpt lat="45.40697" lon="6.18697">
        <ele>1856.44</ele>
        <time>2020-06-11T08:10:04Z</time>
      </trkpt>
      <trkpt lat="45.4069" lon="6.18708">
        <ele>1856.44</ele>
        <time>2020-06-11T08:10:25Z</time>
      </trkpt>
      <trkpt lat="45.40681" lon="6.1871">
        <ele>1859.81</ele>
        <time>2020-06-11T08:10:37Z</time>
      </trkpt>
      <trkpt lat="45.4068" lon="6.18711">
        <ele>1863.17</ele>
        <time>2020-06-11T08:10:39Z</time>
      </trkpt>
      <trkpt lat="45.40679" lon="6.18712">
        <ele>1864.13</ele>
        <time>2020-06-11T08:10:41Z</time>
      </trkpt>
      <trkpt lat="45.40675" lon="6.18717">
        <ele>1864.61</ele>
        <time>2020-06-11T08:10:47Z</time>
      </trkpt>
      <trkpt lat="45.40666" lon="6.18729">
        <ele>1864.61</ele>
        <time>2020-06-11T08:11:00Z</time>
      </trkpt>
      <trkpt lat="45.40654" lon="6.18736">
        <ele>1865.09</ele>
        <time>2020-06-11T08:11:17Z</time>
      </trkpt>
      <trkpt lat="45.40645" lon="6.18746">
        <ele>1864.61</ele>
        <time>2020-06-11T08:11:33Z</time>
      </trkpt>
      <trkpt lat="45.40645" lon="6.18759">
        <ele>1863.65</ele>
        <time>2020-06-11T08:11:49Z</time>
      </trkpt>
      <trkpt lat="45.40644" lon="6.18762">
        <ele>1864.13</ele>
        <time>2020-06-11T08:12:13Z</time>
      </trkpt>
      <trkpt lat="45.40635" lon="6.18774">
        <ele>1863.65</ele>
        <time>2020-06-11T08:12:33Z</time>
      </trkpt>
      <trkpt lat="45.4063" lon="6.18781">
        <ele>1865.09</ele>
        <time>2020-06-11T08:12:55Z</time>
      </trkpt>
      <trkpt lat="45.40625" lon="6.18801">
        <ele>1866.54</ele>
        <time>2020-06-11T08:13:15Z</time>
      </trkpt>
      <trkpt lat="45.4062" lon="6.18809">
        <ele>1869.42</ele>
        <time>2020-06-11T08:13:35Z</time>
      </trkpt>
      <trkpt lat="45.40616" lon="6.18822">
        <ele>1871.34</ele>
        <time>2020-06-11T08:13:55Z</time>
      </trkpt>
      <trkpt lat="45.4061" lon="6.1883">
        <ele>1874.23</ele>
        <time>2020-06-11T08:14:11Z</time>
      </trkpt>
      <trkpt lat="45.40602" lon="6.1884">
        <ele>1877.11</ele>
        <time>2020-06-11T08:14:32Z</time>
      </trkpt>
      <trkpt lat="45.40588" lon="6.18851">
        <ele>1880</ele>
        <time>2020-06-11T08:14:54Z</time>
      </trkpt>
      <trkpt lat="45.4058" lon="6.18858">
        <ele>1881.92</ele>
        <time>2020-06-11T08:15:17Z</time>
      </trkpt>
      <trkpt lat="45.40568" lon="6.18865">
        <ele>1885.28</ele>
        <time>2020-06-11T08:15:37Z</time>
      </trkpt>
      <trkpt lat="45.40557" lon="6.18868">
        <ele>1888.17</ele>
        <time>2020-06-11T08:15:57Z</time>
      </trkpt>
      <trkpt lat="45.40556" lon="6.18868">
        <ele>1890.09</ele>
        <time>2020-06-11T08:16:24Z</time>
      </trkpt>
      <trkpt lat="45.40551" lon="6.18874">
        <ele>1891.53</ele>
        <time>2020-06-11T08:16:46Z</time>
      </trkpt>
      <trkpt lat="45.40541" lon="6.18886">
        <ele>1894.42</ele>
        <time>2020-06-11T08:17:08Z</time>
      </trkpt>
      <trkpt lat="45.40535" lon="6.18894">
        <ele>1897.3</ele>
        <time>2020-06-11T08:17:28Z</time>
      </trkpt>
      <trkpt lat="45.40525" lon="6.18901">
        <ele>1898.74</ele>
        <time>2020-06-11T08:17:50Z</time>
      </trkpt>
      <trkpt lat="45.40514" lon="6.18907">
        <ele>1899.22</ele>
        <time>2020-06-11T08:18:07Z</time>
      </trkpt>
      <trkpt lat="45.40495" lon="6.18914">
        <ele>1902.11</ele>
        <time>2020-06-11T08:18:30Z</time>
      </trkpt>
      <trkpt lat="45.40486" lon="6.18915">
        <ele>1904.99</ele>
        <time>2020-06-11T08:18:44Z</time>
      </trkpt>
      <trkpt lat="45.40481" lon="6.18919">
        <ele>1908.35</ele>
        <time>2020-06-11T08:18:59Z</time>
      </trkpt>
      <trkpt lat="45.40473" lon="6.18923">
        <ele>1911.24</ele>
        <time>2020-06-11T08:19:20Z</time>
      </trkpt>
      <trkpt lat="45.40457" lon="6.18941">
        <ele>1913.64</ele>
        <time>2020-06-11T08:19:46Z</time>
      </trkpt>
      <trkpt lat="45.40453" lon="6.18954">
        <ele>1915.56</ele>
        <time>2020-06-11T08:20:09Z</time>
      </trkpt>
      <trkpt lat="45.40448" lon="6.18957">
        <ele>1917.49</ele>
        <time>2020-06-11T08:20:26Z</time>
      </trkpt>
      <trkpt lat="45.4044" lon="6.18957">
        <ele>1917.97</ele>
        <time>2020-06-11T08:20:43Z</time>
      </trkpt>
      <trkpt lat="45.40435" lon="6.18956">
        <ele>1918.45</ele>
        <time>2020-06-11T08:20:50Z</time>
      </trkpt>
      <trkpt lat="45.40434" lon="6.18955">
        <ele>1918.45</ele>
        <time>2020-06-11T08:20:51Z</time>
      </trkpt>
      <trkpt lat="45.40419" lon="6.18959">
        <ele>1918.93</ele>
        <time>2020-06-11T08:21:10Z</time>
      </trkpt>
      <trkpt lat="45.40407" lon="6.18962">
        <ele>1921.81</ele>
        <time>2020-06-11T08:21:30Z</time>
      </trkpt>
      <trkpt lat="45.40401" lon="6.18961">
        <ele>1925.18</ele>
        <time>2020-06-11T08:21:50Z</time>
      </trkpt>
      <trkpt lat="45.40397" lon="6.18961">
        <ele>1925.66</ele>
        <time>2020-06-11T08:22:09Z</time>
      </trkpt>
      <trkpt lat="45.40397" lon="6.18961">
        <ele>1923.25</ele>
        <time>2020-06-11T08:22:22Z</time>
      </trkpt>
      <trkpt lat="45.40397" lon="6.18961">
        <ele>1926.62</ele>
        <time>2020-06-11T08:22:29Z</time>
      </trkpt>
      <trkpt lat="45.40397" lon="6.18961">
        <ele>1928.06</ele>
        <time>2020-06-11T08:22:32Z</time>
      </trkpt>
      <trkpt lat="45.40397" lon="6.18962">
        <ele>1925.66</ele>
        <time>2020-06-11T08:22:56Z</time>
      </trkpt>
      <trkpt lat="45.40388" lon="6.18969">
        <ele>1925.18</ele>
        <time>2020-06-11T08:23:18Z</time>
      </trkpt>
      <trkpt lat="45.40386" lon="6.18969">
        <ele>1925.18</ele>
        <time>2020-06-11T08:23:20Z</time>
      </trkpt>
      <trkpt lat="45.40384" lon="6.18971">
        <ele>1925.18</ele>
        <time>2020-06-11T08:23:23Z</time>
      </trkpt>
      <trkpt lat="45.40371" lon="6.18976">
        <ele>1927.1</ele>
        <time>2020-06-11T08:23:42Z</time>
      </trkpt>
      <trkpt lat="45.40366" lon="6.18978">
        <ele>1927.58</ele>
        <time>2020-06-11T08:23:47Z</time>
      </trkpt>
      <trkpt lat="45.40352" lon="6.18987">
        <ele>1926.62</ele>
        <time>2020-06-11T08:24:03Z</time>
      </trkpt>
      <trkpt lat="45.40344" lon="6.18999">
        <ele>1929.5</ele>
        <time>2020-06-11T08:24:29Z</time>
      </trkpt>
      <trkpt lat="45.40337" lon="6.19011">
        <ele>1932.39</ele>
        <time>2020-06-11T08:24:47Z</time>
      </trkpt>
      <trkpt lat="45.40328" lon="6.19014">
        <ele>1932.39</ele>
        <time>2020-06-11T08:25:04Z</time>
      </trkpt>
      <trkpt lat="45.40314" lon="6.1902">
        <ele>1935.27</ele>
        <time>2020-06-11T08:25:23Z</time>
      </trkpt>
      <trkpt lat="45.40297" lon="6.19025">
        <ele>1938.16</ele>
        <time>2020-06-11T08:25:45Z</time>
      </trkpt>
      <trkpt lat="45.40281" lon="6.19037">
        <ele>1941.52</ele>
        <time>2020-06-11T08:26:09Z</time>
      </trkpt>
      <trkpt lat="45.40263" lon="6.19053">
        <ele>1944.4</ele>
        <time>2020-06-11T08:26:36Z</time>
      </trkpt>
      <trkpt lat="45.40252" lon="6.19072">
        <ele>1946.81</ele>
        <time>2020-06-11T08:27:01Z</time>
      </trkpt>
      <trkpt lat="45.40241" lon="6.19082">
        <ele>1949.21</ele>
        <time>2020-06-11T08:27:19Z</time>
      </trkpt>
      <trkpt lat="45.40238" lon="6.19099">
        <ele>1952.09</ele>
        <time>2020-06-11T08:27:40Z</time>
      </trkpt>
      <trkpt lat="45.40234" lon="6.19104">
        <ele>1954.98</ele>
        <time>2020-06-11T08:28:03Z</time>
      </trkpt>
      <trkpt lat="45.40226" lon="6.19114">
        <ele>1957.38</ele>
        <time>2020-06-11T08:28:26Z</time>
      </trkpt>
      <trkpt lat="45.4022" lon="6.19123">
        <ele>1960.75</ele>
        <time>2020-06-11T08:28:45Z</time>
      </trkpt>
      <trkpt lat="45.40217" lon="6.19131">
        <ele>1963.63</ele>
        <time>2020-06-11T08:29:03Z</time>
      </trkpt>
      <trkpt lat="45.40213" lon="6.19141">
        <ele>1966.99</ele>
        <time>2020-06-11T08:29:23Z</time>
      </trkpt>
      <trkpt lat="45.40206" lon="6.19151">
        <ele>1970.36</ele>
        <time>2020-06-11T08:29:43Z</time>
      </trkpt>
      <trkpt lat="45.40203" lon="6.19159">
        <ele>1973.24</ele>
        <time>2020-06-11T08:30:01Z</time>
      </trkpt>
      <trkpt lat="45.402" lon="6.19165">
        <ele>1976.61</ele>
        <time>2020-06-11T08:30:18Z</time>
      </trkpt>
      <trkpt lat="45.40195" lon="6.19174">
        <ele>1979.49</ele>
        <time>2020-06-11T08:30:38Z</time>
      </trkpt>
      <trkpt lat="45.40195" lon="6.19185">
        <ele>1982.38</ele>
        <time>2020-06-11T08:30:54Z</time>
      </trkpt>
      <trkpt lat="45.40194" lon="6.19192">
        <ele>1985.74</ele>
        <time>2020-06-11T08:31:09Z</time>
      </trkpt>
      <trkpt lat="45.40186" lon="6.19202">
        <ele>1988.62</ele>
        <time>2020-06-11T08:31:28Z</time>
      </trkpt>
      <trkpt lat="45.40174" lon="6.19211">
        <ele>1991.51</ele>
        <time>2020-06-11T08:31:53Z</time>
      </trkpt>
      <trkpt lat="45.40167" lon="6.19221">
        <ele>1991.99</ele>
        <time>2020-06-11T08:32:09Z</time>
      </trkpt>
      <trkpt lat="45.40155" lon="6.19224">
        <ele>1991.51</ele>
        <time>2020-06-11T08:32:25Z</time>
      </trkpt>
      <trkpt lat="45.40145" lon="6.19225">
        <ele>1991.51</ele>
        <time>2020-06-11T08:32:40Z</time>
      </trkpt>
      <trkpt lat="45.40136" lon="6.19235">
        <ele>1991.99</ele>
        <time>2020-06-11T08:32:58Z</time>
      </trkpt>
      <trkpt lat="45.40134" lon="6.19241">
        <ele>1993.43</ele>
        <time>2020-06-11T08:33:12Z</time>
      </trkpt>
      <trkpt lat="45.40124" lon="6.19249">
        <ele>1991.03</ele>
        <time>2020-06-11T08:33:31Z</time>
      </trkpt>
      <trkpt lat="45.40117" lon="6.19255">
        <ele>1988.14</ele>
        <time>2020-06-11T08:33:48Z</time>
      </trkpt>
      <trkpt lat="45.40111" lon="6.19267">
        <ele>1985.74</ele>
        <time>2020-06-11T08:34:07Z</time>
      </trkpt>
      <trkpt lat="45.4011" lon="6.19269">
        <ele>1985.74</ele>
        <time>2020-06-11T08:34:08Z</time>
      </trkpt>
      <trkpt lat="45.40109" lon="6.1927">
        <ele>1985.74</ele>
        <time>2020-06-11T08:34:09Z</time>
      </trkpt>
      <trkpt lat="45.40102" lon="6.19282">
        <ele>1984.78</ele>
        <time>2020-06-11T08:34:26Z</time>
      </trkpt>
      <trkpt lat="45.40097" lon="6.19289">
        <ele>1982.86</ele>
        <time>2020-06-11T08:34:38Z</time>
      </trkpt>
      <trkpt lat="45.40096" lon="6.1929">
        <ele>1982.86</ele>
        <time>2020-06-11T08:34:39Z</time>
      </trkpt>
      <trkpt lat="45.40095" lon="6.19292">
        <ele>1982.86</ele>
        <time>2020-06-11T08:34:40Z</time>
      </trkpt>
      <trkpt lat="45.40095" lon="6.19293">
        <ele>1982.38</ele>
        <time>2020-06-11T08:34:41Z</time>
      </trkpt>
      <trkpt lat="45.40094" lon="6.19294">
        <ele>1982.38</ele>
        <time>2020-06-11T08:34:42Z</time>
      </trkpt>
      <trkpt lat="45.40094" lon="6.19295">
        <ele>1982.38</ele>
        <time>2020-06-11T08:34:43Z</time>
      </trkpt>
      <trkpt lat="45.40085" lon="6.19308">
        <ele>1981.41</ele>
        <time>2020-06-11T08:34:59Z</time>
      </trkpt>
      <trkpt lat="45.40084" lon="6.19322">
        <ele>1980.93</ele>
        <time>2020-06-11T08:35:13Z</time>
      </trkpt>
      <trkpt lat="45.40079" lon="6.19332">
        <ele>1979.97</ele>
        <time>2020-06-11T08:35:34Z</time>
      </trkpt>
      <trkpt lat="45.40078" lon="6.19333">
        <ele>1979.97</ele>
        <time>2020-06-11T08:35:35Z</time>
      </trkpt>
      <trkpt lat="45.40077" lon="6.19336">
        <ele>1979.49</ele>
        <time>2020-06-11T08:35:38Z</time>
      </trkpt>
      <trkpt lat="45.40076" lon="6.19337">
        <ele>1979.01</ele>
        <time>2020-06-11T08:35:39Z</time>
      </trkpt>
      <trkpt lat="45.40076" lon="6.19338">
        <ele>1979.01</ele>
        <time>2020-06-11T08:35:40Z</time>
      </trkpt>
      <trkpt lat="45.40075" lon="6.19339">
        <ele>1979.01</ele>
        <time>2020-06-11T08:35:41Z</time>
      </trkpt>
      <trkpt lat="45.40075" lon="6.19341">
        <ele>1978.53</ele>
        <time>2020-06-11T08:35:42Z</time>
      </trkpt>
      <trkpt lat="45.40069" lon="6.1936">
        <ele>1976.13</ele>
        <time>2020-06-11T08:35:58Z</time>
      </trkpt>
      <trkpt lat="45.40069" lon="6.19376">
        <ele>1976.61</ele>
        <time>2020-06-11T08:36:12Z</time>
      </trkpt>
      <trkpt lat="45.40064" lon="6.19398">
        <ele>1977.09</ele>
        <time>2020-06-11T08:36:34Z</time>
      </trkpt>
      <trkpt lat="45.40057" lon="6.19412">
        <ele>1978.53</ele>
        <time>2020-06-11T08:36:56Z</time>
      </trkpt>
      <trkpt lat="45.40046" lon="6.19422">
        <ele>1978.05</ele>
        <time>2020-06-11T08:37:15Z</time>
      </trkpt>
      <trkpt lat="45.40033" lon="6.19443">
        <ele>1979.49</ele>
        <time>2020-06-11T08:37:39Z</time>
      </trkpt>
      <trkpt lat="45.40027" lon="6.19464">
        <ele>1982.86</ele>
        <time>2020-06-11T08:38:01Z</time>
      </trkpt>
      <trkpt lat="45.40031" lon="6.19478">
        <ele>1986.22</ele>
        <time>2020-06-11T08:38:18Z</time>
      </trkpt>
      <trkpt lat="45.40021" lon="6.19504">
        <ele>1989.1</ele>
        <time>2020-06-11T08:38:46Z</time>
      </trkpt>
      <trkpt lat="45.40018" lon="6.19522">
        <ele>1991.99</ele>
        <time>2020-06-11T08:39:10Z</time>
      </trkpt>
      <trkpt lat="45.40016" lon="6.19533">
        <ele>1994.87</ele>
        <time>2020-06-11T08:39:30Z</time>
      </trkpt>
      <trkpt lat="45.40013" lon="6.19541">
        <ele>1998.24</ele>
        <time>2020-06-11T08:39:48Z</time>
      </trkpt>
      <trkpt lat="45.40007" lon="6.19549">
        <ele>2001.6</ele>
        <time>2020-06-11T08:40:07Z</time>
      </trkpt>
      <trkpt lat="45.40002" lon="6.19562">
        <ele>2004.49</ele>
        <time>2020-06-11T08:40:29Z</time>
      </trkpt>
      <trkpt lat="45.39999" lon="6.19574">
        <ele>2007.37</ele>
        <time>2020-06-11T08:40:51Z</time>
      </trkpt>
      <trkpt lat="45.39995" lon="6.19584">
        <ele>2010.25</ele>
        <time>2020-06-11T08:41:13Z</time>
      </trkpt>
      <trkpt lat="45.3999" lon="6.19593">
        <ele>2012.18</ele>
        <time>2020-06-11T08:41:33Z</time>
      </trkpt>
      <trkpt lat="45.39983" lon="6.19611">
        <ele>2015.06</ele>
        <time>2020-06-11T08:41:55Z</time>
      </trkpt>
      <trkpt lat="45.39976" lon="6.19623">
        <ele>2017.94</ele>
        <time>2020-06-11T08:42:17Z</time>
      </trkpt>
      <trkpt lat="45.39973" lon="6.1963">
        <ele>2021.31</ele>
        <time>2020-06-11T08:42:32Z</time>
      </trkpt>
      <trkpt lat="45.39969" lon="6.19634">
        <ele>2024.19</ele>
        <time>2020-06-11T08:42:45Z</time>
      </trkpt>
      <trkpt lat="45.39965" lon="6.19642">
        <ele>2027.56</ele>
        <time>2020-06-11T08:43:01Z</time>
      </trkpt>
      <trkpt lat="45.39961" lon="6.1965">
        <ele>2030.92</ele>
        <time>2020-06-11T08:43:20Z</time>
      </trkpt>
      <trkpt lat="45.39958" lon="6.19658">
        <ele>2033.81</ele>
        <time>2020-06-11T08:43:36Z</time>
      </trkpt>
      <trkpt lat="45.39958" lon="6.19662">
        <ele>2034.77</ele>
        <time>2020-06-11T08:43:57Z</time>
      </trkpt>
      <trkpt lat="45.39957" lon="6.19663">
        <ele>2033.81</ele>
        <time>2020-06-11T08:44:05Z</time>
      </trkpt>
      <trkpt lat="45.39958" lon="6.19663">
        <ele>2036.21</ele>
        <time>2020-06-11T08:44:10Z</time>
      </trkpt>
      <trkpt lat="45.39958" lon="6.19662">
        <ele>2036.69</ele>
        <time>2020-06-11T08:44:19Z</time>
      </trkpt>
      <trkpt lat="45.39957" lon="6.19663">
        <ele>2036.21</ele>
        <time>2020-06-11T08:44:40Z</time>
      </trkpt>
      <trkpt lat="45.3995" lon="6.19667">
        <ele>2037.17</ele>
        <time>2020-06-11T08:44:57Z</time>
      </trkpt>
      <trkpt lat="45.39949" lon="6.19674">
        <ele>2038.61</ele>
        <time>2020-06-11T08:45:15Z</time>
      </trkpt>
      <trkpt lat="45.39949" lon="6.19685">
        <ele>2039.57</ele>
        <time>2020-06-11T08:45:35Z</time>
      </trkpt>
      <trkpt lat="45.39942" lon="6.19686">
        <ele>2041.02</ele>
        <time>2020-06-11T08:45:55Z</time>
      </trkpt>
      <trkpt lat="45.39942" lon="6.19688">
        <ele>2041.98</ele>
        <time>2020-06-11T08:46:13Z</time>
      </trkpt>
      <trkpt lat="45.39939" lon="6.19691">
        <ele>2042.94</ele>
        <time>2020-06-11T08:46:33Z</time>
      </trkpt>
      <trkpt lat="45.39941" lon="6.19698">
        <ele>2043.42</ele>
        <time>2020-06-11T08:46:45Z</time>
      </trkpt>
      <trkpt lat="45.39941" lon="6.19708">
        <ele>2043.9</ele>
        <time>2020-06-11T08:47:03Z</time>
      </trkpt>
      <trkpt lat="45.39946" lon="6.19715">
        <ele>2044.86</ele>
        <time>2020-06-11T08:47:17Z</time>
      </trkpt>
      <trkpt lat="45.39953" lon="6.19717">
        <ele>2047.26</ele>
        <time>2020-06-11T08:47:36Z</time>
      </trkpt>
      <trkpt lat="45.39958" lon="6.19718">
        <ele>2048.71</ele>
        <time>2020-06-11T08:47:48Z</time>
      </trkpt>
      <trkpt lat="45.39962" lon="6.19715">
        <ele>2051.11</ele>
        <time>2020-06-11T08:48:09Z</time>
      </trkpt>
      <trkpt lat="45.39966" lon="6.19713">
        <ele>2053.99</ele>
        <time>2020-06-11T08:48:27Z</time>
      </trkpt>
      <trkpt lat="45.3997" lon="6.19717">
        <ele>2056.88</ele>
        <time>2020-06-11T08:48:46Z</time>
      </trkpt>
      <trkpt lat="45.39971" lon="6.19721">
        <ele>2057.84</ele>
        <time>2020-06-11T08:49:06Z</time>
      </trkpt>
      <trkpt lat="45.39974" lon="6.19727">
        <ele>2058.8</ele>
        <time>2020-06-11T08:49:24Z</time>
      </trkpt>
      <trkpt lat="45.39974" lon="6.19733">
        <ele>2061.68</ele>
        <time>2020-06-11T08:49:38Z</time>
      </trkpt>
      <trkpt lat="45.39978" lon="6.19735">
        <ele>2064.57</ele>
        <time>2020-06-11T08:49:55Z</time>
      </trkpt>
      <trkpt lat="45.39981" lon="6.1974">
        <ele>2067.93</ele>
        <time>2020-06-11T08:50:13Z</time>
      </trkpt>
      <trkpt lat="45.39982" lon="6.19745">
        <ele>2070.82</ele>
        <time>2020-06-11T08:50:30Z</time>
      </trkpt>
      <trkpt lat="45.39982" lon="6.1975">
        <ele>2073.22</ele>
        <time>2020-06-11T08:50:47Z</time>
      </trkpt>
      <trkpt lat="45.39983" lon="6.19754">
        <ele>2075.14</ele>
        <time>2020-06-11T08:51:01Z</time>
      </trkpt>
      <trkpt lat="45.39983" lon="6.19764">
        <ele>2078.03</ele>
        <time>2020-06-11T08:51:21Z</time>
      </trkpt>
      <trkpt lat="45.39978" lon="6.19778">
        <ele>2081.39</ele>
        <time>2020-06-11T08:51:42Z</time>
      </trkpt>
      <trkpt lat="45.39974" lon="6.19796">
        <ele>2084.28</ele>
        <time>2020-06-11T08:52:07Z</time>
      </trkpt>
      <trkpt lat="45.39971" lon="6.19808">
        <ele>2086.68</ele>
        <time>2020-06-11T08:52:27Z</time>
      </trkpt>
      <trkpt lat="45.39964" lon="6.19819">
        <ele>2089.56</ele>
        <time>2020-06-11T08:52:49Z</time>
      </trkpt>
      <trkpt lat="45.39956" lon="6.19827">
        <ele>2091.97</ele>
        <time>2020-06-11T08:53:08Z</time>
      </trkpt>
      <trkpt lat="45.39951" lon="6.1984">
        <ele>2094.37</ele>
        <time>2020-06-11T08:53:32Z</time>
      </trkpt>
      <trkpt lat="45.39949" lon="6.1985">
        <ele>2097.73</ele>
        <time>2020-06-11T08:53:50Z</time>
      </trkpt>
      <trkpt lat="45.39943" lon="6.19855">
        <ele>2100.62</ele>
        <time>2020-06-11T08:54:05Z</time>
      </trkpt>
      <trkpt lat="45.39936" lon="6.19862">
        <ele>2103.98</ele>
        <time>2020-06-11T08:54:24Z</time>
      </trkpt>
      <trkpt lat="45.39928" lon="6.19874">
        <ele>2105.42</ele>
        <time>2020-06-11T08:54:41Z</time>
      </trkpt>
      <trkpt lat="45.39927" lon="6.19876">
        <ele>2102.06</ele>
        <time>2020-06-11T08:54:51Z</time>
      </trkpt>
      <trkpt lat="45.39927" lon="6.19876">
        <ele>2101.58</ele>
        <time>2020-06-11T08:54:53Z</time>
      </trkpt>
      <trkpt lat="45.39927" lon="6.19877">
        <ele>2104.94</ele>
        <time>2020-06-11T08:54:59Z</time>
      </trkpt>
      <trkpt lat="45.39926" lon="6.19877">
        <ele>2108.31</ele>
        <time>2020-06-11T08:55:02Z</time>
      </trkpt>
      <trkpt lat="45.39924" lon="6.1988">
        <ele>2107.83</ele>
        <time>2020-06-11T08:55:18Z</time>
      </trkpt>
      <trkpt lat="45.39929" lon="6.19879">
        <ele>2108.79</ele>
        <time>2020-06-11T08:55:46Z</time>
      </trkpt>
      <trkpt lat="45.39936" lon="6.19873">
        <ele>2109.75</ele>
        <time>2020-06-11T08:56:04Z</time>
      </trkpt>
      <trkpt lat="45.39946" lon="6.19868">
        <ele>2112.15</ele>
        <time>2020-06-11T08:56:24Z</time>
      </trkpt>
      <trkpt lat="45.39957" lon="6.19865">
        <ele>2112.63</ele>
        <time>2020-06-11T08:56:46Z</time>
      </trkpt>
      <trkpt lat="45.39967" lon="6.19863">
        <ele>2114.08</ele>
        <time>2020-06-11T08:57:03Z</time>
      </trkpt>
      <trkpt lat="45.39971" lon="6.19864">
        <ele>2116.96</ele>
        <time>2020-06-11T08:57:23Z</time>
      </trkpt>
      <trkpt lat="45.39976" lon="6.19864">
        <ele>2119.84</ele>
        <time>2020-06-11T08:57:45Z</time>
      </trkpt>
      <trkpt lat="45.39979" lon="6.19858">
        <ele>2121.77</ele>
        <time>2020-06-11T08:58:03Z</time>
      </trkpt>
      <trkpt lat="45.3998" lon="6.19854">
        <ele>2123.21</ele>
        <time>2020-06-11T08:58:12Z</time>
      </trkpt>
      <trkpt lat="45.39981" lon="6.19852">
        <ele>2124.65</ele>
        <time>2020-06-11T08:58:25Z</time>
      </trkpt>
      <trkpt lat="45.39985" lon="6.19848">
        <ele>2126.09</ele>
        <time>2020-06-11T08:58:41Z</time>
      </trkpt>
      <trkpt lat="45.39987" lon="6.19849">
        <ele>2128.98</ele>
        <time>2020-06-11T08:59:00Z</time>
      </trkpt>
      <trkpt lat="45.39992" lon="6.19852">
        <ele>2131.38</ele>
        <time>2020-06-11T08:59:23Z</time>
      </trkpt>
      <trkpt lat="45.39998" lon="6.19853">
        <ele>2133.3</ele>
        <time>2020-06-11T08:59:38Z</time>
      </trkpt>
      <trkpt lat="45.40006" lon="6.19853">
        <ele>2135.71</ele>
        <time>2020-06-11T08:59:56Z</time>
      </trkpt>
      <trkpt lat="45.40014" lon="6.19854">
        <ele>2138.59</ele>
        <time>2020-06-11T09:00:18Z</time>
      </trkpt>
      <trkpt lat="45.40018" lon="6.19853">
        <ele>2141.47</ele>
        <time>2020-06-11T09:00:36Z</time>
      </trkpt>
      <trkpt lat="45.40022" lon="6.19854">
        <ele>2143.88</ele>
        <time>2020-06-11T09:00:57Z</time>
      </trkpt>
      <trkpt lat="45.40026" lon="6.19852">
        <ele>2145.8</ele>
        <time>2020-06-11T09:01:16Z</time>
      </trkpt>
      <trkpt lat="45.40032" lon="6.1985">
        <ele>2147.72</ele>
        <time>2020-06-11T09:01:37Z</time>
      </trkpt>
      <trkpt lat="45.40034" lon="6.1985">
        <ele>2150.13</ele>
        <time>2020-06-11T09:01:52Z</time>
      </trkpt>
      <trkpt lat="45.40033" lon="6.19851">
        <ele>2151.09</ele>
        <time>2020-06-11T09:02:18Z</time>
      </trkpt>
      <trkpt lat="45.40034" lon="6.19851">
        <ele>2150.61</ele>
        <time>2020-06-11T09:02:48Z</time>
      </trkpt>
      <trkpt lat="45.40033" lon="6.19852">
        <ele>2150.61</ele>
        <time>2020-06-11T09:03:18Z</time>
      </trkpt>
      <trkpt lat="45.40032" lon="6.19853">
        <ele>2148.68</ele>
        <time>2020-06-11T09:05:51Z</time>
      </trkpt>
      <trkpt lat="45.40034" lon="6.19854">
        <ele>2148.68</ele>
        <time>2020-06-11T09:06:18Z</time>
      </trkpt>
      <trkpt lat="45.40033" lon="6.19857">
        <ele>2148.68</ele>
        <time>2020-06-11T09:06:46Z</time>
      </trkpt>
      <trkpt lat="45.40034" lon="6.19858">
        <ele>2148.68</ele>
        <time>2020-06-11T09:07:18Z</time>
      </trkpt>
      <trkpt lat="45.40038" lon="6.19858">
        <ele>2148.68</ele>
        <time>2020-06-11T09:07:40Z</time>
      </trkpt>
      <trkpt lat="45.40041" lon="6.19855">
        <ele>2151.57</ele>
        <time>2020-06-11T09:07:52Z</time>
      </trkpt>
      <trkpt lat="45.40048" lon="6.19858">
        <ele>2154.93</ele>
        <time>2020-06-11T09:08:13Z</time>
      </trkpt>
      <trkpt lat="45.40051" lon="6.19862">
        <ele>2157.82</ele>
        <time>2020-06-11T09:08:32Z</time>
      </trkpt>
      <trkpt lat="45.40056" lon="6.19861">
        <ele>2160.7</ele>
        <time>2020-06-11T09:08:50Z</time>
      </trkpt>
      <trkpt lat="45.40065" lon="6.19863">
        <ele>2163.1</ele>
        <time>2020-06-11T09:09:08Z</time>
      </trkpt>
      <trkpt lat="45.40075" lon="6.19864">
        <ele>2164.55</ele>
        <time>2020-06-11T09:09:29Z</time>
      </trkpt>
      <trkpt lat="45.40078" lon="6.19865">
        <ele>2165.99</ele>
        <time>2020-06-11T09:09:45Z</time>
      </trkpt>
      <trkpt lat="45.40083" lon="6.19863">
        <ele>2168.39</ele>
        <time>2020-06-11T09:10:08Z</time>
      </trkpt>
      <trkpt lat="45.40086" lon="6.1986">
        <ele>2169.83</ele>
        <time>2020-06-11T09:10:26Z</time>
      </trkpt>
      <trkpt lat="45.40091" lon="6.19857">
        <ele>2172.24</ele>
        <time>2020-06-11T09:10:46Z</time>
      </trkpt>
      <trkpt lat="45.40096" lon="6.19856">
        <ele>2174.16</ele>
        <time>2020-06-11T09:11:08Z</time>
      </trkpt>
      <trkpt lat="45.40102" lon="6.19851">
        <ele>2173.68</ele>
        <time>2020-06-11T09:11:25Z</time>
      </trkpt>
      <trkpt lat="45.40112" lon="6.19845">
        <ele>2176.08</ele>
        <time>2020-06-11T09:11:45Z</time>
      </trkpt>
      <trkpt lat="45.4012" lon="6.19838">
        <ele>2178.48</ele>
        <time>2020-06-11T09:12:04Z</time>
      </trkpt>
      <trkpt lat="45.40126" lon="6.1983">
        <ele>2179.93</ele>
        <time>2020-06-11T09:12:22Z</time>
      </trkpt>
      <trkpt lat="45.40131" lon="6.19821">
        <ele>2181.85</ele>
        <time>2020-06-11T09:12:40Z</time>
      </trkpt>
      <trkpt lat="45.40137" lon="6.19813">
        <ele>2184.73</ele>
        <time>2020-06-11T09:13:00Z</time>
      </trkpt>
      <trkpt lat="45.4014" lon="6.19806">
        <ele>2187.14</ele>
        <time>2020-06-11T09:13:18Z</time>
      </trkpt>
      <trkpt lat="45.40142" lon="6.19798">
        <ele>2189.06</ele>
        <time>2020-06-11T09:13:36Z</time>
      </trkpt>
      <trkpt lat="45.40146" lon="6.19792">
        <ele>2191.46</ele>
        <time>2020-06-11T09:13:53Z</time>
      </trkpt>
      <trkpt lat="45.4015" lon="6.19784">
        <ele>2192.9</ele>
        <time>2020-06-11T09:14:09Z</time>
      </trkpt>
      <trkpt lat="45.40155" lon="6.19779">
        <ele>2195.31</ele>
        <time>2020-06-11T09:14:26Z</time>
      </trkpt>
      <trkpt lat="45.40161" lon="6.19783">
        <ele>2197.23</ele>
        <time>2020-06-11T09:14:52Z</time>
      </trkpt>
      <trkpt lat="45.40163" lon="6.19789">
        <ele>2198.19</ele>
        <time>2020-06-11T09:15:11Z</time>
      </trkpt>
      <trkpt lat="45.4017" lon="6.19797">
        <ele>2197.71</ele>
        <time>2020-06-11T09:15:40Z</time>
      </trkpt>
      <trkpt lat="45.40179" lon="6.19808">
        <ele>2195.79</ele>
        <time>2020-06-11T09:16:04Z</time>
      </trkpt>
      <trkpt lat="45.40186" lon="6.19814">
        <ele>2196.27</ele>
        <time>2020-06-11T09:16:31Z</time>
      </trkpt>
      <trkpt lat="45.40186" lon="6.19816">
        <ele>2195.79</ele>
        <time>2020-06-11T09:16:40Z</time>
      </trkpt>
      <trkpt lat="45.40192" lon="6.1982">
        <ele>2195.79</ele>
        <time>2020-06-11T09:17:07Z</time>
      </trkpt>
      <trkpt lat="45.40197" lon="6.19818">
        <ele>2195.79</ele>
        <time>2020-06-11T09:17:34Z</time>
      </trkpt>
      <trkpt lat="45.40197" lon="6.19814">
        <ele>2195.79</ele>
        <time>2020-06-11T09:17:48Z</time>
      </trkpt>
      <trkpt lat="45.402" lon="6.19812">
        <ele>2195.79</ele>
        <time>2020-06-11T09:18:07Z</time>
      </trkpt>
      <trkpt lat="45.40203" lon="6.19817">
        <ele>2195.79</ele>
        <time>2020-06-11T09:18:30Z</time>
      </trkpt>
      <trkpt lat="45.40208" lon="6.19818">
        <ele>2195.79</ele>
        <time>2020-06-11T09:18:51Z</time>
      </trkpt>
      <trkpt lat="45.40216" lon="6.19816">
        <ele>2195.79</ele>
        <time>2020-06-11T09:19:12Z</time>
      </trkpt>
      <trkpt lat="45.40223" lon="6.19814">
        <ele>2195.79</ele>
        <time>2020-06-11T09:19:36Z</time>
      </trkpt>
      <trkpt lat="45.40231" lon="6.19804">
        <ele>2195.79</ele>
        <time>2020-06-11T09:19:56Z</time>
      </trkpt>
      <trkpt lat="45.4024" lon="6.19791">
        <ele>2195.79</ele>
        <time>2020-06-11T09:20:17Z</time>
      </trkpt>
      <trkpt lat="45.40244" lon="6.19785">
        <ele>2195.79</ele>
        <time>2020-06-11T09:20:28Z</time>
      </trkpt>
      <trkpt lat="45.40251" lon="6.19775">
        <ele>2195.79</ele>
        <time>2020-06-11T09:20:46Z</time>
      </trkpt>
      <trkpt lat="45.40255" lon="6.1977">
        <ele>2201.56</ele>
        <time>2020-06-11T09:20:58Z</time>
      </trkpt>
      <trkpt lat="45.40255" lon="6.19769">
        <ele>2200.59</ele>
        <time>2020-06-11T09:20:59Z</time>
      </trkpt>
      <trkpt lat="45.40255" lon="6.19768">
        <ele>2199.63</ele>
        <time>2020-06-11T09:21:01Z</time>
      </trkpt>
      <trkpt lat="45.40259" lon="6.1976">
        <ele>2200.59</ele>
        <time>2020-06-11T09:21:21Z</time>
      </trkpt>
      <trkpt lat="45.40263" lon="6.19754">
        <ele>2202.04</ele>
        <time>2020-06-11T09:21:40Z</time>
      </trkpt>
      <trkpt lat="45.40266" lon="6.19758">
        <ele>2203.96</ele>
        <time>2020-06-11T09:22:00Z</time>
      </trkpt>
      <trkpt lat="45.40269" lon="6.1977">
        <ele>2206.36</ele>
        <time>2020-06-11T09:22:24Z</time>
      </trkpt>
      <trkpt lat="45.40268" lon="6.19777">
        <ele>2207.32</ele>
        <time>2020-06-11T09:22:43Z</time>
      </trkpt>
      <trkpt lat="45.40265" lon="6.19785">
        <ele>2207.81</ele>
        <time>2020-06-11T09:22:59Z</time>
      </trkpt>
      <trkpt lat="45.40261" lon="6.19793">
        <ele>2208.77</ele>
        <time>2020-06-11T09:23:16Z</time>
      </trkpt>
      <trkpt lat="45.4026" lon="6.19801">
        <ele>2211.17</ele>
        <time>2020-06-11T09:23:31Z</time>
      </trkpt>
      <trkpt lat="45.40259" lon="6.19812">
        <ele>2213.57</ele>
        <time>2020-06-11T09:23:53Z</time>
      </trkpt>
      <trkpt lat="45.40255" lon="6.19822">
        <ele>2215.98</ele>
        <time>2020-06-11T09:24:16Z</time>
      </trkpt>
      <trkpt lat="45.40253" lon="6.19833">
        <ele>2218.86</ele>
        <time>2020-06-11T09:24:37Z</time>
      </trkpt>
      <trkpt lat="45.40252" lon="6.19837">
        <ele>2221.74</ele>
        <time>2020-06-11T09:24:56Z</time>
      </trkpt>
      <trkpt lat="45.40253" lon="6.19841">
        <ele>2223.19</ele>
        <time>2020-06-11T09:25:11Z</time>
      </trkpt>
      <trkpt lat="45.40251" lon="6.1984">
        <ele>2223.67</ele>
        <time>2020-06-11T09:25:18Z</time>
      </trkpt>
      <trkpt lat="45.4025" lon="6.19843">
        <ele>2223.19</ele>
        <time>2020-06-11T09:25:43Z</time>
      </trkpt>
      <trkpt lat="45.40247" lon="6.19847">
        <ele>2225.59</ele>
        <time>2020-06-11T09:26:05Z</time>
      </trkpt>
      <trkpt lat="45.40241" lon="6.19852">
        <ele>2228.47</ele>
        <time>2020-06-11T09:26:25Z</time>
      </trkpt>
      <trkpt lat="45.40237" lon="6.19855">
        <ele>2230.4</ele>
        <time>2020-06-11T09:26:43Z</time>
      </trkpt>
      <trkpt lat="45.40233" lon="6.19858">
        <ele>2232.32</ele>
        <time>2020-06-11T09:27:01Z</time>
      </trkpt>
      <trkpt lat="45.40232" lon="6.19862">
        <ele>2233.76</ele>
        <time>2020-06-11T09:27:18Z</time>
      </trkpt>
      <trkpt lat="45.40233" lon="6.19863">
        <ele>2234.72</ele>
        <time>2020-06-11T09:27:38Z</time>
      </trkpt>
      <trkpt lat="45.40232" lon="6.19866">
        <ele>2235.2</ele>
        <time>2020-06-11T09:28:05Z</time>
      </trkpt>
      <trkpt lat="45.40232" lon="6.19868">
        <ele>2235.2</ele>
        <time>2020-06-11T09:28:23Z</time>
      </trkpt>
      <trkpt lat="45.40232" lon="6.19871">
        <ele>2236.64</ele>
        <time>2020-06-11T09:28:38Z</time>
      </trkpt>
      <trkpt lat="45.40235" lon="6.19877">
        <ele>2238.09</ele>
        <time>2020-06-11T09:28:57Z</time>
      </trkpt>
      <trkpt lat="45.40235" lon="6.19884">
        <ele>2240.49</ele>
        <time>2020-06-11T09:29:19Z</time>
      </trkpt>
      <trkpt lat="45.40234" lon="6.19886">
        <ele>2242.41</ele>
        <time>2020-06-11T09:29:45Z</time>
      </trkpt>
      <trkpt lat="45.40232" lon="6.19888">
        <ele>2242.41</ele>
        <time>2020-06-11T09:30:08Z</time>
      </trkpt>
      <trkpt lat="45.4023" lon="6.19894">
        <ele>2244.82</ele>
        <time>2020-06-11T09:30:27Z</time>
      </trkpt>
      <trkpt lat="45.40232" lon="6.19897">
        <ele>2248.18</ele>
        <time>2020-06-11T09:30:47Z</time>
      </trkpt>
      <trkpt lat="45.40231" lon="6.199">
        <ele>2251.06</ele>
        <time>2020-06-11T09:31:06Z</time>
      </trkpt>
      <trkpt lat="45.40229" lon="6.19903">
        <ele>2253.95</ele>
        <time>2020-06-11T09:31:25Z</time>
      </trkpt>
      <trkpt lat="45.4023" lon="6.19906">
        <ele>2255.39</ele>
        <time>2020-06-11T09:31:48Z</time>
      </trkpt>
      <trkpt lat="45.40239" lon="6.19908">
        <ele>2257.79</ele>
        <time>2020-06-11T09:32:06Z</time>
      </trkpt>
      <trkpt lat="45.40247" lon="6.19907">
        <ele>2260.68</ele>
        <time>2020-06-11T09:32:30Z</time>
      </trkpt>
      <trkpt lat="45.40254" lon="6.19905">
        <ele>2263.56</ele>
        <time>2020-06-11T09:32:53Z</time>
      </trkpt>
      <trkpt lat="45.40257" lon="6.19903">
        <ele>2265</ele>
        <time>2020-06-11T09:33:09Z</time>
      </trkpt>
      <trkpt lat="45.40261" lon="6.19899">
        <ele>2266.93</ele>
        <time>2020-06-11T09:33:29Z</time>
      </trkpt>
      <trkpt lat="45.40262" lon="6.19896">
        <ele>2268.37</ele>
        <time>2020-06-11T09:33:45Z</time>
      </trkpt>
      <trkpt lat="45.40264" lon="6.19894">
        <ele>2269.81</ele>
        <time>2020-06-11T09:33:58Z</time>
      </trkpt>
      <trkpt lat="45.40266" lon="6.19898">
        <ele>2272.21</ele>
        <time>2020-06-11T09:34:16Z</time>
      </trkpt>
      <trkpt lat="45.40272" lon="6.19897">
        <ele>2274.62</ele>
        <time>2020-06-11T09:34:36Z</time>
      </trkpt>
      <trkpt lat="45.4027" lon="6.19899">
        <ele>2276.06</ele>
        <time>2020-06-11T09:34:54Z</time>
      </trkpt>
      <trkpt lat="45.40272" lon="6.19901">
        <ele>2278.46</ele>
        <time>2020-06-11T09:35:16Z</time>
      </trkpt>
      <trkpt lat="45.40272" lon="6.19905">
        <ele>2280.87</ele>
        <time>2020-06-11T09:35:35Z</time>
      </trkpt>
      <trkpt lat="45.40273" lon="6.19907">
        <ele>2282.79</ele>
        <time>2020-06-11T09:35:50Z</time>
      </trkpt>
      <trkpt lat="45.40274" lon="6.19908">
        <ele>2283.75</ele>
        <time>2020-06-11T09:36:21Z</time>
      </trkpt>
      <trkpt lat="45.40275" lon="6.19909">
        <ele>2284.23</ele>
        <time>2020-06-11T09:36:40Z</time>
      </trkpt>
      <trkpt lat="45.40276" lon="6.1991">
        <ele>2282.79</ele>
        <time>2020-06-11T09:37:05Z</time>
      </trkpt>
      <trkpt lat="45.40277" lon="6.19913">
        <ele>2283.75</ele>
        <time>2020-06-11T09:37:22Z</time>
      </trkpt>
      <trkpt lat="45.40281" lon="6.19915">
        <ele>2286.15</ele>
        <time>2020-06-11T09:37:39Z</time>
      </trkpt>
      <trkpt lat="45.40281" lon="6.19919">
        <ele>2288.08</ele>
        <time>2020-06-11T09:37:56Z</time>
      </trkpt>
      <trkpt lat="45.40283" lon="6.19923">
        <ele>2290.48</ele>
        <time>2020-06-11T09:38:15Z</time>
      </trkpt>
      <trkpt lat="45.40288" lon="6.19923">
        <ele>2292.4</ele>
        <time>2020-06-11T09:38:33Z</time>
      </trkpt>
      <trkpt lat="45.40293" lon="6.19921">
        <ele>2294.32</ele>
        <time>2020-06-11T09:38:53Z</time>
      </trkpt>
      <trkpt lat="45.40296" lon="6.19921">
        <ele>2296.25</ele>
        <time>2020-06-11T09:39:10Z</time>
      </trkpt>
      <trkpt lat="45.40303" lon="6.19918">
        <ele>2299.13</ele>
        <time>2020-06-11T09:39:30Z</time>
      </trkpt>
      <trkpt lat="45.40307" lon="6.19917">
        <ele>2300.09</ele>
        <time>2020-06-11T09:39:45Z</time>
      </trkpt>
      <trkpt lat="45.40313" lon="6.19916">
        <ele>2301.53</ele>
        <time>2020-06-11T09:40:04Z</time>
      </trkpt>
      <trkpt lat="45.40318" lon="6.19917">
        <ele>2302.98</ele>
        <time>2020-06-11T09:40:19Z</time>
      </trkpt>
      <trkpt lat="45.40322" lon="6.19911">
        <ele>2306.34</ele>
        <time>2020-06-11T09:40:35Z</time>
      </trkpt>
      <trkpt lat="45.40322" lon="6.19911">
        <ele>2308.26</ele>
        <time>2020-06-11T09:41:08Z</time>
      </trkpt>
      <trkpt lat="45.40324" lon="6.19911">
        <ele>2308.26</ele>
        <time>2020-06-11T09:41:12Z</time>
      </trkpt>
      <trkpt lat="45.40327" lon="6.19913">
        <ele>2309.7</ele>
        <time>2020-06-11T09:41:26Z</time>
      </trkpt>
      <trkpt lat="45.40333" lon="6.19911">
        <ele>2312.59</ele>
        <time>2020-06-11T09:41:44Z</time>
      </trkpt>
      <trkpt lat="45.40338" lon="6.19911">
        <ele>2314.51</ele>
        <time>2020-06-11T09:42:03Z</time>
      </trkpt>
      <trkpt lat="45.40342" lon="6.19912">
        <ele>2316.43</ele>
        <time>2020-06-11T09:42:20Z</time>
      </trkpt>
      <trkpt lat="45.40345" lon="6.19916">
        <ele>2318.84</ele>
        <time>2020-06-11T09:42:43Z</time>
      </trkpt>
      <trkpt lat="45.40346" lon="6.19919">
        <ele>2320.76</ele>
        <time>2020-06-11T09:42:58Z</time>
      </trkpt>
      <trkpt lat="45.40348" lon="6.19922">
        <ele>2323.16</ele>
        <time>2020-06-11T09:43:13Z</time>
      </trkpt>
      <trkpt lat="45.40351" lon="6.19924">
        <ele>2325.57</ele>
        <time>2020-06-11T09:43:32Z</time>
      </trkpt>
      <trkpt lat="45.40352" lon="6.19928">
        <ele>2327.49</ele>
        <time>2020-06-11T09:43:49Z</time>
      </trkpt>
      <trkpt lat="45.40353" lon="6.19932">
        <ele>2328.93</ele>
        <time>2020-06-11T09:44:05Z</time>
      </trkpt>
      <trkpt lat="45.40355" lon="6.19937">
        <ele>2331.81</ele>
        <time>2020-06-11T09:44:25Z</time>
      </trkpt>
      <trkpt lat="45.40356" lon="6.19942">
        <ele>2334.22</ele>
        <time>2020-06-11T09:44:42Z</time>
      </trkpt>
      <trkpt lat="45.4036" lon="6.19944">
        <ele>2335.18</ele>
        <time>2020-06-11T09:45:05Z</time>
      </trkpt>
      <trkpt lat="45.40361" lon="6.19944">
        <ele>2334.22</ele>
        <time>2020-06-11T09:45:43Z</time>
      </trkpt>
      <trkpt lat="45.40361" lon="6.19944">
        <ele>2334.7</ele>
        <time>2020-06-11T09:46:05Z</time>
      </trkpt>
      <trkpt lat="45.40362" lon="6.19946">
        <ele>2335.18</ele>
        <time>2020-06-11T09:46:49Z</time>
      </trkpt>
      <trkpt lat="45.40363" lon="6.19943">
        <ele>2335.66</ele>
        <time>2020-06-11T09:47:16Z</time>
      </trkpt>
      <trkpt lat="45.40362" lon="6.19943">
        <ele>2336.62</ele>
        <time>2020-06-11T09:47:44Z</time>
      </trkpt>
      <trkpt lat="45.40365" lon="6.19942">
        <ele>2337.1</ele>
        <time>2020-06-11T09:48:18Z</time>
      </trkpt>
      <trkpt lat="45.40366" lon="6.19941">
        <ele>2338.06</ele>
        <time>2020-06-11T09:48:44Z</time>
      </trkpt>
      <trkpt lat="45.40367" lon="6.19943">
        <ele>2339.99</ele>
        <time>2020-06-11T09:49:03Z</time>
      </trkpt>
      <trkpt lat="45.40369" lon="6.19946">
        <ele>2341.91</ele>
        <time>2020-06-11T09:49:20Z</time>
      </trkpt>
      <trkpt lat="45.40374" lon="6.19941">
        <ele>2343.35</ele>
        <time>2020-06-11T09:49:37Z</time>
      </trkpt>
      <trkpt lat="45.40376" lon="6.19937">
        <ele>2344.31</ele>
        <time>2020-06-11T09:49:56Z</time>
      </trkpt>
      <trkpt lat="45.40379" lon="6.19936">
        <ele>2344.79</ele>
        <time>2020-06-11T09:50:17Z</time>
      </trkpt>
      <trkpt lat="45.4038" lon="6.19939">
        <ele>2345.27</ele>
        <time>2020-06-11T09:50:35Z</time>
      </trkpt>
      <trkpt lat="45.40381" lon="6.19935">
        <ele>2347.2</ele>
        <time>2020-06-11T09:50:53Z</time>
      </trkpt>
      <trkpt lat="45.40384" lon="6.19934">
        <ele>2348.64</ele>
        <time>2020-06-11T09:51:09Z</time>
      </trkpt>
      <trkpt lat="45.40388" lon="6.19933">
        <ele>2349.6</ele>
        <time>2020-06-11T09:51:25Z</time>
      </trkpt>
      <trkpt lat="45.40394" lon="6.19931">
        <ele>2350.56</ele>
        <time>2020-06-11T09:51:43Z</time>
      </trkpt>
      <trkpt lat="45.40397" lon="6.19928">
        <ele>2351.52</ele>
        <time>2020-06-11T09:51:58Z</time>
      </trkpt>
      <trkpt lat="45.40402" lon="6.19927">
        <ele>2353.44</ele>
        <time>2020-06-11T09:52:16Z</time>
      </trkpt>
      <trkpt lat="45.40405" lon="6.19928">
        <ele>2355.85</ele>
        <time>2020-06-11T09:52:33Z</time>
      </trkpt>
      <trkpt lat="45.40409" lon="6.19926">
        <ele>2357.77</ele>
        <time>2020-06-11T09:52:50Z</time>
      </trkpt>
      <trkpt lat="45.40412" lon="6.19925">
        <ele>2360.65</ele>
        <time>2020-06-11T09:53:09Z</time>
      </trkpt>
      <trkpt lat="45.40413" lon="6.19922">
        <ele>2363.06</ele>
        <time>2020-06-11T09:53:24Z</time>
      </trkpt>
      <trkpt lat="45.40415" lon="6.19921">
        <ele>2364.98</ele>
        <time>2020-06-11T09:53:40Z</time>
      </trkpt>
      <trkpt lat="45.40419" lon="6.19921">
        <ele>2366.42</ele>
        <time>2020-06-11T09:53:57Z</time>
      </trkpt>
      <trkpt lat="45.40422" lon="6.19923">
        <ele>2369.31</ele>
        <time>2020-06-11T09:54:15Z</time>
      </trkpt>
      <trkpt lat="45.40425" lon="6.19918">
        <ele>2371.23</ele>
        <time>2020-06-11T09:54:33Z</time>
      </trkpt>
      <trkpt lat="45.40427" lon="6.19922">
        <ele>2372.19</ele>
        <time>2020-06-11T09:54:49Z</time>
      </trkpt>
      <trkpt lat="45.40428" lon="6.19927">
        <ele>2374.59</ele>
        <time>2020-06-11T09:55:07Z</time>
      </trkpt>
      <trkpt lat="45.40429" lon="6.1993">
        <ele>2377.48</ele>
        <time>2020-06-11T09:55:24Z</time>
      </trkpt>
      <trkpt lat="45.40429" lon="6.19933">
        <ele>2378.44</ele>
        <time>2020-06-11T09:55:37Z</time>
      </trkpt>
      <trkpt lat="45.40429" lon="6.19936">
        <ele>2379.4</ele>
        <time>2020-06-11T09:55:53Z</time>
      </trkpt>
      <trkpt lat="45.40428" lon="6.19941">
        <ele>2382.28</ele>
        <time>2020-06-11T09:56:08Z</time>
      </trkpt>
      <trkpt lat="45.40428" lon="6.19943">
        <ele>2383.73</ele>
        <time>2020-06-11T09:56:23Z</time>
      </trkpt>
      <trkpt lat="45.40428" lon="6.19946">
        <ele>2384.21</ele>
        <time>2020-06-11T09:56:41Z</time>
      </trkpt>
      <trkpt lat="45.40428" lon="6.19953">
        <ele>2384.21</ele>
        <time>2020-06-11T09:57:01Z</time>
      </trkpt>
      <trkpt lat="45.4043" lon="6.19956">
        <ele>2385.65</ele>
        <time>2020-06-11T09:57:17Z</time>
      </trkpt>
      <trkpt lat="45.40433" lon="6.19959">
        <ele>2388.53</ele>
        <time>2020-06-11T09:57:35Z</time>
      </trkpt>
      <trkpt lat="45.40435" lon="6.19962">
        <ele>2390.94</ele>
        <time>2020-06-11T09:57:53Z</time>
      </trkpt>
      <trkpt lat="45.40438" lon="6.19962">
        <ele>2392.38</ele>
        <time>2020-06-11T09:58:16Z</time>
      </trkpt>
      <trkpt lat="45.4044" lon="6.19961">
        <ele>2394.78</ele>
        <time>2020-06-11T09:58:32Z</time>
      </trkpt>
      <trkpt lat="45.40443" lon="6.19961">
        <ele>2394.3</ele>
        <time>2020-06-11T09:59:11Z</time>
      </trkpt>
      <trkpt lat="45.40443" lon="6.19959">
        <ele>2394.78</ele>
        <time>2020-06-11T09:59:29Z</time>
      </trkpt>
      <trkpt lat="45.40446" lon="6.19957">
        <ele>2395.74</ele>
        <time>2020-06-11T09:59:50Z</time>
      </trkpt>
      <trkpt lat="45.40448" lon="6.19958">
        <ele>2397.67</ele>
        <time>2020-06-11T10:00:15Z</time>
      </trkpt>
      <trkpt lat="45.40449" lon="6.19955">
        <ele>2398.63</ele>
        <time>2020-06-11T10:00:48Z</time>
      </trkpt>
      <trkpt lat="45.40453" lon="6.19951">
        <ele>2399.11</ele>
        <time>2020-06-11T10:01:06Z</time>
      </trkpt>
      <trkpt lat="45.40457" lon="6.19946">
        <ele>2400.55</ele>
        <time>2020-06-11T10:01:23Z</time>
      </trkpt>
      <trkpt lat="45.40459" lon="6.19946">
        <ele>2401.99</ele>
        <time>2020-06-11T10:01:35Z</time>
      </trkpt>
      <trkpt lat="45.40461" lon="6.1994">
        <ele>2404.39</ele>
        <time>2020-06-11T10:01:54Z</time>
      </trkpt>
      <trkpt lat="45.40463" lon="6.19937">
        <ele>2407.28</ele>
        <time>2020-06-11T10:02:13Z</time>
      </trkpt>
      <trkpt lat="45.40468" lon="6.19936">
        <ele>2408.72</ele>
        <time>2020-06-11T10:02:36Z</time>
      </trkpt>
      <trkpt lat="45.40471" lon="6.19936">
        <ele>2410.16</ele>
        <time>2020-06-11T10:02:56Z</time>
      </trkpt>
      <trkpt lat="45.40475" lon="6.19936">
        <ele>2412.57</ele>
        <time>2020-06-11T10:03:14Z</time>
      </trkpt>
      <trkpt lat="45.40478" lon="6.19933">
        <ele>2414.01</ele>
        <time>2020-06-11T10:03:33Z</time>
      </trkpt>
      <trkpt lat="45.40481" lon="6.19934">
        <ele>2415.45</ele>
        <time>2020-06-11T10:03:55Z</time>
      </trkpt>
      <trkpt lat="45.40485" lon="6.19932">
        <ele>2417.37</ele>
        <time>2020-06-11T10:04:28Z</time>
      </trkpt>
      <trkpt lat="45.40488" lon="6.19932">
        <ele>2419.3</ele>
        <time>2020-06-11T10:04:52Z</time>
      </trkpt>
      <trkpt lat="45.4049" lon="6.1993">
        <ele>2420.74</ele>
        <time>2020-06-11T10:05:10Z</time>
      </trkpt>
      <trkpt lat="45.40494" lon="6.19929">
        <ele>2422.18</ele>
        <time>2020-06-11T10:05:27Z</time>
      </trkpt>
      <trkpt lat="45.40492" lon="6.19932">
        <ele>2423.62</ele>
        <time>2020-06-11T10:05:46Z</time>
      </trkpt>
      <trkpt lat="45.40494" lon="6.19936">
        <ele>2424.1</ele>
        <time>2020-06-11T10:06:06Z</time>
      </trkpt>
      <trkpt lat="45.40497" lon="6.19936">
        <ele>2426.02</ele>
        <time>2020-06-11T10:06:26Z</time>
      </trkpt>
      <trkpt lat="45.405" lon="6.19935">
        <ele>2427.95</ele>
        <time>2020-06-11T10:06:43Z</time>
      </trkpt>
      <trkpt lat="45.40504" lon="6.19933">
        <ele>2429.39</ele>
        <time>2020-06-11T10:07:01Z</time>
      </trkpt>
      <trkpt lat="45.40508" lon="6.1993">
        <ele>2431.79</ele>
        <time>2020-06-11T10:07:19Z</time>
      </trkpt>
      <trkpt lat="45.40513" lon="6.19927">
        <ele>2433.71</ele>
        <time>2020-06-11T10:07:39Z</time>
      </trkpt>
      <trkpt lat="45.40516" lon="6.19926">
        <ele>2435.64</ele>
        <time>2020-06-11T10:07:57Z</time>
      </trkpt>
      <trkpt lat="45.40521" lon="6.19924">
        <ele>2437.08</ele>
        <time>2020-06-11T10:08:16Z</time>
      </trkpt>
      <trkpt lat="45.40525" lon="6.1992">
        <ele>2439.48</ele>
        <time>2020-06-11T10:08:34Z</time>
      </trkpt>
      <trkpt lat="45.40527" lon="6.19915">
        <ele>2441.89</ele>
        <time>2020-06-11T10:08:53Z</time>
      </trkpt>
      <trkpt lat="45.40532" lon="6.19914">
        <ele>2443.81</ele>
        <time>2020-06-11T10:09:13Z</time>
      </trkpt>
      <trkpt lat="45.40535" lon="6.1991">
        <ele>2445.25</ele>
        <time>2020-06-11T10:09:27Z</time>
      </trkpt>
      <trkpt lat="45.4054" lon="6.19903">
        <ele>2447.17</ele>
        <time>2020-06-11T10:09:47Z</time>
      </trkpt>
      <trkpt lat="45.40545" lon="6.19895">
        <ele>2447.65</ele>
        <time>2020-06-11T10:10:02Z</time>
      </trkpt>
      <trkpt lat="45.40547" lon="6.19894">
        <ele>2449.58</ele>
        <time>2020-06-11T10:10:17Z</time>
      </trkpt>
      <trkpt lat="45.4055" lon="6.19889">
        <ele>2451.02</ele>
        <time>2020-06-11T10:10:35Z</time>
      </trkpt>
      <trkpt lat="45.40553" lon="6.19887">
        <ele>2452.46</ele>
        <time>2020-06-11T10:10:50Z</time>
      </trkpt>
      <trkpt lat="45.40559" lon="6.19885">
        <ele>2455.34</ele>
        <time>2020-06-11T10:11:07Z</time>
      </trkpt>
      <trkpt lat="45.40564" lon="6.19881">
        <ele>2458.23</ele>
        <time>2020-06-11T10:11:25Z</time>
      </trkpt>
      <trkpt lat="45.40569" lon="6.19877">
        <ele>2459.19</ele>
        <time>2020-06-11T10:11:41Z</time>
      </trkpt>
      <trkpt lat="45.40574" lon="6.19875">
        <ele>2461.11</ele>
        <time>2020-06-11T10:12:03Z</time>
      </trkpt>
      <trkpt lat="45.40578" lon="6.19873">
        <ele>2463.04</ele>
        <time>2020-06-11T10:12:22Z</time>
      </trkpt>
      <trkpt lat="45.40582" lon="6.19877">
        <ele>2464.48</ele>
        <time>2020-06-11T10:12:44Z</time>
      </trkpt>
      <trkpt lat="45.40584" lon="6.19875">
        <ele>2465.44</ele>
        <time>2020-06-11T10:12:57Z</time>
      </trkpt>
      <trkpt lat="45.40586" lon="6.19874">
        <ele>2467.36</ele>
        <time>2020-06-11T10:13:12Z</time>
      </trkpt>
      <trkpt lat="45.40587" lon="6.19873">
        <ele>2469.76</ele>
        <time>2020-06-11T10:13:29Z</time>
      </trkpt>
      <trkpt lat="45.40589" lon="6.19871">
        <ele>2472.17</ele>
        <time>2020-06-11T10:13:45Z</time>
      </trkpt>
      <trkpt lat="45.40592" lon="6.19871">
        <ele>2474.09</ele>
        <time>2020-06-11T10:14:00Z</time>
      </trkpt>
      <trkpt lat="45.40595" lon="6.19869">
        <ele>2475.05</ele>
        <time>2020-06-11T10:14:14Z</time>
      </trkpt>
      <trkpt lat="45.40599" lon="6.19867">
        <ele>2476.49</ele>
        <time>2020-06-11T10:14:32Z</time>
      </trkpt>
      <trkpt lat="45.40603" lon="6.19864">
        <ele>2475.53</ele>
        <time>2020-06-11T10:14:51Z</time>
      </trkpt>
      <trkpt lat="45.40607" lon="6.19863">
        <ele>2474.57</ele>
        <time>2020-06-11T10:15:09Z</time>
      </trkpt>
      <trkpt lat="45.40611" lon="6.19864">
        <ele>2474.57</ele>
        <time>2020-06-11T10:15:30Z</time>
      </trkpt>
      <trkpt lat="45.40617" lon="6.19863">
        <ele>2472.17</ele>
        <time>2020-06-11T10:15:49Z</time>
      </trkpt>
      <trkpt lat="45.4062" lon="6.19861">
        <ele>2471.21</ele>
        <time>2020-06-11T10:16:11Z</time>
      </trkpt>
      <trkpt lat="45.40627" lon="6.19861">
        <ele>2470.73</ele>
        <time>2020-06-11T10:16:32Z</time>
      </trkpt>
      <trkpt lat="45.40633" lon="6.19857">
        <ele>2469.28</ele>
        <time>2020-06-11T10:16:48Z</time>
      </trkpt>
      <trkpt lat="45.4064" lon="6.19854">
        <ele>2470.24</ele>
        <time>2020-06-11T10:17:04Z</time>
      </trkpt>
      <trkpt lat="45.40643" lon="6.19849">
        <ele>2471.69</ele>
        <time>2020-06-11T10:17:24Z</time>
      </trkpt>
      <trkpt lat="45.40647" lon="6.19845">
        <ele>2473.61</ele>
        <time>2020-06-11T10:17:41Z</time>
      </trkpt>
      <trkpt lat="45.4065" lon="6.19841">
        <ele>2474.57</ele>
        <time>2020-06-11T10:18:02Z</time>
      </trkpt>
      <trkpt lat="45.40652" lon="6.19839">
        <ele>2474.09</ele>
        <time>2020-06-11T10:18:25Z</time>
      </trkpt>
      <trkpt lat="45.40654" lon="6.19837">
        <ele>2474.57</ele>
        <time>2020-06-11T10:18:49Z</time>
      </trkpt>
      <trkpt lat="45.40657" lon="6.19836">
        <ele>2474.57</ele>
        <time>2020-06-11T10:19:11Z</time>
      </trkpt>
      <trkpt lat="45.40657" lon="6.19835">
        <ele>2474.57</ele>
        <time>2020-06-11T10:19:44Z</time>
      </trkpt>
      <trkpt lat="45.40657" lon="6.19833">
        <ele>2474.57</ele>
        <time>2020-06-11T10:20:13Z</time>
      </trkpt>
      <trkpt lat="45.40657" lon="6.19832">
        <ele>2474.57</ele>
        <time>2020-06-11T10:20:53Z</time>
      </trkpt>
      <trkpt lat="45.40658" lon="6.19829">
        <ele>2474.57</ele>
        <time>2020-06-11T10:21:36Z</time>
      </trkpt>
      <trkpt lat="45.40659" lon="6.19828">
        <ele>2474.57</ele>
        <time>2020-06-11T10:22:21Z</time>
      </trkpt>
      <trkpt lat="45.40657" lon="6.19829">
        <ele>2474.57</ele>
        <time>2020-06-11T10:23:07Z</time>
      </trkpt>
      <trkpt lat="45.40658" lon="6.1983">
        <ele>2474.57</ele>
        <time>2020-06-11T10:23:56Z</time>
      </trkpt>
      <trkpt lat="45.40658" lon="6.1983">
        <ele>2469.76</ele>
        <time>2020-06-11T10:24:00Z</time>
      </trkpt>
      <trkpt lat="45.40658" lon="6.1983">
        <ele>2468.8</ele>
        <time>2020-06-11T10:24:02Z</time>
      </trkpt>
      <trkpt lat="45.40658" lon="6.1983">
        <ele>2472.17</ele>
        <time>2020-06-11T10:24:12Z</time>
      </trkpt>
      <trkpt lat="45.40658" lon="6.19829">
        <ele>2472.65</ele>
        <time>2020-06-11T10:24:14Z</time>
      </trkpt>
      <trkpt lat="45.40659" lon="6.19828">
        <ele>2474.57</ele>
        <time>2020-06-11T10:25:00Z</time>
      </trkpt>
      <trkpt lat="45.40659" lon="6.19829">
        <ele>2475.53</ele>
        <time>2020-06-11T10:25:45Z</time>
      </trkpt>
      <trkpt lat="45.40659" lon="6.19828">
        <ele>2478.9</ele>
        <time>2020-06-11T10:26:49Z</time>
      </trkpt>
      <trkpt lat="45.40659" lon="6.19828">
        <ele>2476.49</ele>
        <time>2020-06-11T10:27:40Z</time>
      </trkpt>
      <trkpt lat="45.40658" lon="6.19829">
        <ele>2473.13</ele>
        <time>2020-06-11T10:27:56Z</time>
      </trkpt>
      <trkpt lat="45.40658" lon="6.19829">
        <ele>2469.76</ele>
        <time>2020-06-11T10:27:58Z</time>
      </trkpt>
      <trkpt lat="45.40658" lon="6.19829">
        <ele>2474.57</ele>
        <time>2020-06-11T10:28:03Z</time>
      </trkpt>
      <trkpt lat="45.40657" lon="6.1983">
        <ele>2475.53</ele>
        <time>2020-06-11T10:28:48Z</time>
      </trkpt>
      <trkpt lat="45.40658" lon="6.19829">
        <ele>2471.21</ele>
        <time>2020-06-11T10:29:23Z</time>
      </trkpt>
      <trkpt lat="45.40658" lon="6.19829">
        <ele>2474.57</ele>
        <time>2020-06-11T10:29:32Z</time>
      </trkpt>
      <trkpt lat="45.40658" lon="6.19829">
        <ele>2477.94</ele>
        <time>2020-06-11T10:29:39Z</time>
      </trkpt>
      <trkpt lat="45.40658" lon="6.19831">
        <ele>2476.97</ele>
        <time>2020-06-11T10:30:18Z</time>
      </trkpt>
      <trkpt lat="45.40658" lon="6.19833">
        <ele>2476.97</ele>
        <time>2020-06-11T10:31:06Z</time>
      </trkpt>
      <trkpt lat="45.40658" lon="6.19833">
        <ele>2476.97</ele>
        <time>2020-06-11T10:31:25Z</time>
      </trkpt>
      <trkpt lat="45.40657" lon="6.19832">
        <ele>2476.97</ele>
        <time>2020-06-11T10:31:48Z</time>
      </trkpt>
      <trkpt lat="45.40656" lon="6.19832">
        <ele>2473.61</ele>
        <time>2020-06-11T10:32:09Z</time>
      </trkpt>
      <trkpt lat="45.40656" lon="6.19832">
        <ele>2473.61</ele>
        <time>2020-06-11T10:32:10Z</time>
      </trkpt>
      <trkpt lat="45.40655" lon="6.19832">
        <ele>2474.57</ele>
        <time>2020-06-11T10:32:46Z</time>
      </trkpt>
      <trkpt lat="45.40656" lon="6.19832">
        <ele>2476.01</ele>
        <time>2020-06-11T10:33:16Z</time>
      </trkpt>
      <trkpt lat="45.40656" lon="6.19834">
        <ele>2477.45</ele>
        <time>2020-06-11T10:34:15Z</time>
      </trkpt>
      <trkpt lat="45.40657" lon="6.19833">
        <ele>2474.57</ele>
        <time>2020-06-11T10:34:49Z</time>
      </trkpt>
      <trkpt lat="45.40657" lon="6.19833">
        <ele>2471.69</ele>
        <time>2020-06-11T10:34:51Z</time>
      </trkpt>
      <trkpt lat="45.40657" lon="6.19832">
        <ele>2471.69</ele>
        <time>2020-06-11T10:34:52Z</time>
      </trkpt>
      <trkpt lat="45.40657" lon="6.19832">
        <ele>2474.57</ele>
        <time>2020-06-11T10:34:58Z</time>
      </trkpt>
      <trkpt lat="45.40657" lon="6.19833">
        <ele>2477.45</ele>
        <time>2020-06-11T10:35:44Z</time>
      </trkpt>
      <trkpt lat="45.40657" lon="6.19832">
        <ele>2477.45</ele>
        <time>2020-06-11T10:36:24Z</time>
      </trkpt>
      <trkpt lat="45.40657" lon="6.19834">
        <ele>2477.45</ele>
        <time>2020-06-11T10:37:19Z</time>
      </trkpt>
      <trkpt lat="45.40658" lon="6.19833">
        <ele>2477.45</ele>
        <time>2020-06-11T10:38:09Z</time>
      </trkpt>
      <trkpt lat="45.40657" lon="6.19833">
        <ele>2477.45</ele>
        <time>2020-06-11T10:39:04Z</time>
      </trkpt>
      <trkpt lat="45.40657" lon="6.19834">
        <ele>2477.45</ele>
        <time>2020-06-11T10:40:49Z</time>
      </trkpt>
      <trkpt lat="45.40657" lon="6.19834">
        <ele>2477.45</ele>
        <time>2020-06-11T10:41:57Z</time>
      </trkpt>
      <trkpt lat="45.40657" lon="6.19834">
        <ele>2477.45</ele>
        <time>2020-06-11T10:43:55Z</time>
      </trkpt>
      <trkpt lat="45.40658" lon="6.19833">
        <ele>2477.45</ele>
        <time>2020-06-11T10:45:46Z</time>
      </trkpt>
      <trkpt lat="45.40658" lon="6.19832">
        <ele>2477.45</ele>
        <time>2020-06-11T10:47:05Z</time>
      </trkpt>
      <trkpt lat="45.40658" lon="6.19833">
        <ele>2477.45</ele>
        <time>2020-06-11T10:48:45Z</time>
      </trkpt>
      <trkpt lat="45.40658" lon="6.19833">
        <ele>2477.45</ele>
        <time>2020-06-11T10:49:33Z</time>
      </trkpt>
      <trkpt lat="45.40658" lon="6.19833">
        <ele>2477.45</ele>
        <time>2020-06-11T10:50:38Z</time>
      </trkpt>
      <trkpt lat="45.40659" lon="6.19831">
        <ele>2477.45</ele>
        <time>2020-06-11T10:51:31Z</time>
      </trkpt>
      <trkpt lat="45.40659" lon="6.19832">
        <ele>2477.45</ele>
        <time>2020-06-11T10:52:31Z</time>
      </trkpt>
      <trkpt lat="45.40659" lon="6.19832">
        <ele>2477.45</ele>
        <time>2020-06-11T10:53:27Z</time>
      </trkpt>
      <trkpt lat="45.40659" lon="6.19834">
        <ele>2477.45</ele>
        <time>2020-06-11T10:54:42Z</time>
      </trkpt>
      <trkpt lat="45.40659" lon="6.19834">
        <ele>2477.45</ele>
        <time>2020-06-11T10:56:21Z</time>
      </trkpt>
      <trkpt lat="45.40659" lon="6.19832">
        <ele>2477.45</ele>
        <time>2020-06-11T10:57:21Z</time>
      </trkpt>
      <trkpt lat="45.40658" lon="6.19833">
        <ele>2477.45</ele>
        <time>2020-06-11T10:58:01Z</time>
      </trkpt>
      <trkpt lat="45.40656" lon="6.19833">
        <ele>2477.45</ele>
        <time>2020-06-11T10:59:01Z</time>
      </trkpt>
      <trkpt lat="45.40655" lon="6.19835">
        <ele>2477.45</ele>
        <time>2020-06-11T11:00:01Z</time>
      </trkpt>
      <trkpt lat="45.40654" lon="6.19834">
        <ele>2477.45</ele>
        <time>2020-06-11T11:00:49Z</time>
      </trkpt>
      <trkpt lat="45.40655" lon="6.19832">
        <ele>2477.45</ele>
        <time>2020-06-11T11:01:18Z</time>
      </trkpt>
      <trkpt lat="45.40656" lon="6.19833">
        <ele>2477.45</ele>
        <time>2020-06-11T11:02:05Z</time>
      </trkpt>
      <trkpt lat="45.40656" lon="6.19832">
        <ele>2477.45</ele>
        <time>2020-06-11T11:02:23Z</time>
      </trkpt>
      <trkpt lat="45.40657" lon="6.19832">
        <ele>2477.45</ele>
        <time>2020-06-11T11:02:46Z</time>
      </trkpt>
      <trkpt lat="45.40657" lon="6.19832">
        <ele>2477.45</ele>
        <time>2020-06-11T11:03:07Z</time>
      </trkpt>
      <trkpt lat="45.40657" lon="6.19832">
        <ele>2477.45</ele>
        <time>2020-06-11T11:03:27Z</time>
      </trkpt>
      <trkpt lat="45.40658" lon="6.1983">
        <ele>2477.45</ele>
        <time>2020-06-11T11:03:50Z</time>
      </trkpt>
      <trkpt lat="45.40657" lon="6.19833">
        <ele>2477.45</ele>
        <time>2020-06-11T11:04:05Z</time>
      </trkpt>
      <trkpt lat="45.40654" lon="6.19835">
        <ele>2477.45</ele>
        <time>2020-06-11T11:04:17Z</time>
      </trkpt>
      <trkpt lat="45.4065" lon="6.19838">
        <ele>2477.45</ele>
        <time>2020-06-11T11:04:29Z</time>
      </trkpt>
      <trkpt lat="45.40649" lon="6.1984">
        <ele>2477.45</ele>
        <time>2020-06-11T11:04:44Z</time>
      </trkpt>
      <trkpt lat="45.40645" lon="6.19846">
        <ele>2477.45</ele>
        <time>2020-06-11T11:04:57Z</time>
      </trkpt>
      <trkpt lat="45.40642" lon="6.19848">
        <ele>2477.45</ele>
        <time>2020-06-11T11:05:10Z</time>
      </trkpt>
      <trkpt lat="45.40638" lon="6.19851">
        <ele>2477.45</ele>
        <time>2020-06-11T11:05:23Z</time>
      </trkpt>
      <trkpt lat="45.40633" lon="6.19854">
        <ele>2477.45</ele>
        <time>2020-06-11T11:05:33Z</time>
      </trkpt>
      <trkpt lat="45.40631" lon="6.19856">
        <ele>2474.09</ele>
        <time>2020-06-11T11:05:38Z</time>
      </trkpt>
      <trkpt lat="45.4063" lon="6.19856">
        <ele>2470.24</ele>
        <time>2020-06-11T11:05:40Z</time>
      </trkpt>
      <trkpt lat="45.40629" lon="6.19857">
        <ele>2468.8</ele>
        <time>2020-06-11T11:05:43Z</time>
      </trkpt>
      <trkpt lat="45.40625" lon="6.1986">
        <ele>2468.32</ele>
        <time>2020-06-11T11:05:59Z</time>
      </trkpt>
      <trkpt lat="45.40619" lon="6.1986">
        <ele>2468.8</ele>
        <time>2020-06-11T11:06:15Z</time>
      </trkpt>
      <trkpt lat="45.40616" lon="6.19859">
        <ele>2468.8</ele>
        <time>2020-06-11T11:06:30Z</time>
      </trkpt>
      <trkpt lat="45.40613" lon="6.19862">
        <ele>2469.28</ele>
        <time>2020-06-11T11:06:44Z</time>
      </trkpt>
      <trkpt lat="45.40609" lon="6.19862">
        <ele>2470.73</ele>
        <time>2020-06-11T11:07:00Z</time>
      </trkpt>
      <trkpt lat="45.40605" lon="6.19861">
        <ele>2471.21</ele>
        <time>2020-06-11T11:07:15Z</time>
      </trkpt>
      <trkpt lat="45.40603" lon="6.19863">
        <ele>2471.21</ele>
        <time>2020-06-11T11:07:28Z</time>
      </trkpt>
      <trkpt lat="45.406" lon="6.19864">
        <ele>2470.24</ele>
        <time>2020-06-11T11:07:43Z</time>
      </trkpt>
      <trkpt lat="45.40597" lon="6.19866">
        <ele>2470.73</ele>
        <time>2020-06-11T11:08:01Z</time>
      </trkpt>
      <trkpt lat="45.40596" lon="6.19868">
        <ele>2469.76</ele>
        <time>2020-06-11T11:08:13Z</time>
      </trkpt>
      <trkpt lat="45.40596" lon="6.19868">
        <ele>2469.76</ele>
        <time>2020-06-11T11:08:31Z</time>
      </trkpt>
      <trkpt lat="45.40595" lon="6.19868">
        <ele>2469.76</ele>
        <time>2020-06-11T11:08:55Z</time>
      </trkpt>
      <trkpt lat="45.40596" lon="6.19867">
        <ele>2469.76</ele>
        <time>2020-06-11T11:09:47Z</time>
      </trkpt>
      <trkpt lat="45.40596" lon="6.19867">
        <ele>2469.76</ele>
        <time>2020-06-11T11:10:20Z</time>
      </trkpt>
      <trkpt lat="45.40594" lon="6.19868">
        <ele>2469.76</ele>
        <time>2020-06-11T11:10:51Z</time>
      </trkpt>
      <trkpt lat="45.40588" lon="6.1987">
        <ele>2469.76</ele>
        <time>2020-06-11T11:11:14Z</time>
      </trkpt>
      <trkpt lat="45.40586" lon="6.19872">
        <ele>2469.76</ele>
        <time>2020-06-11T11:11:29Z</time>
      </trkpt>
      <trkpt lat="45.40584" lon="6.19872">
        <ele>2469.76</ele>
        <time>2020-06-11T11:11:44Z</time>
      </trkpt>
      <trkpt lat="45.40584" lon="6.19872">
        <ele>2465.92</ele>
        <time>2020-06-11T11:11:46Z</time>
      </trkpt>
      <trkpt lat="45.40584" lon="6.19872">
        <ele>2465.92</ele>
        <time>2020-06-11T11:11:47Z</time>
      </trkpt>
      <trkpt lat="45.40583" lon="6.19872">
        <ele>2465.92</ele>
        <time>2020-06-11T11:12:10Z</time>
      </trkpt>
      <trkpt lat="45.40581" lon="6.19874">
        <ele>2464.96</ele>
        <time>2020-06-11T11:12:28Z</time>
      </trkpt>
      <trkpt lat="45.40578" lon="6.19875">
        <ele>2463.04</ele>
        <time>2020-06-11T11:12:40Z</time>
      </trkpt>
      <trkpt lat="45.40574" lon="6.19873">
        <ele>2461.59</ele>
        <time>2020-06-11T11:12:55Z</time>
      </trkpt>
      <trkpt lat="45.40572" lon="6.19875">
        <ele>2460.63</ele>
        <time>2020-06-11T11:13:07Z</time>
      </trkpt>
      <trkpt lat="45.40566" lon="6.19877">
        <ele>2458.71</ele>
        <time>2020-06-11T11:13:20Z</time>
      </trkpt>
      <trkpt lat="45.40561" lon="6.19879">
        <ele>2456.79</ele>
        <time>2020-06-11T11:13:32Z</time>
      </trkpt>
      <trkpt lat="45.40555" lon="6.19885">
        <ele>2454.86</ele>
        <time>2020-06-11T11:13:45Z</time>
      </trkpt>
      <trkpt lat="45.40552" lon="6.19885">
        <ele>2453.9</ele>
        <time>2020-06-11T11:14:10Z</time>
      </trkpt>
      <trkpt lat="45.40549" lon="6.1989">
        <ele>2452.46</ele>
        <time>2020-06-11T11:14:22Z</time>
      </trkpt>
      <trkpt lat="45.40544" lon="6.19897">
        <ele>2450.06</ele>
        <time>2020-06-11T11:14:37Z</time>
      </trkpt>
      <trkpt lat="45.40538" lon="6.19905">
        <ele>2448.62</ele>
        <time>2020-06-11T11:14:51Z</time>
      </trkpt>
      <trkpt lat="45.40534" lon="6.1991">
        <ele>2447.17</ele>
        <time>2020-06-11T11:15:04Z</time>
      </trkpt>
      <trkpt lat="45.40531" lon="6.19914">
        <ele>2445.73</ele>
        <time>2020-06-11T11:15:18Z</time>
      </trkpt>
      <trkpt lat="45.40529" lon="6.19915">
        <ele>2444.29</ele>
        <time>2020-06-11T11:15:37Z</time>
      </trkpt>
      <trkpt lat="45.40525" lon="6.19919">
        <ele>2442.37</ele>
        <time>2020-06-11T11:15:54Z</time>
      </trkpt>
      <trkpt lat="45.40523" lon="6.19923">
        <ele>2439.96</ele>
        <time>2020-06-11T11:16:11Z</time>
      </trkpt>
      <trkpt lat="45.40524" lon="6.19923">
        <ele>2439.96</ele>
        <time>2020-06-11T11:16:42Z</time>
      </trkpt>
      <trkpt lat="45.40522" lon="6.19924">
        <ele>2439</ele>
        <time>2020-06-11T11:17:00Z</time>
      </trkpt>
      <trkpt lat="45.40519" lon="6.19925">
        <ele>2437.08</ele>
        <time>2020-06-11T11:17:13Z</time>
      </trkpt>
      <trkpt lat="45.40515" lon="6.19926">
        <ele>2434.68</ele>
        <time>2020-06-11T11:17:26Z</time>
      </trkpt>
      <trkpt lat="45.4051" lon="6.19929">
        <ele>2431.79</ele>
        <time>2020-06-11T11:17:42Z</time>
      </trkpt>
      <trkpt lat="45.40508" lon="6.19931">
        <ele>2430.35</ele>
        <time>2020-06-11T11:17:56Z</time>
      </trkpt>
      <trkpt lat="45.40506" lon="6.19933">
        <ele>2429.39</ele>
        <time>2020-06-11T11:18:21Z</time>
      </trkpt>
      <trkpt lat="45.40503" lon="6.19935">
        <ele>2428.43</ele>
        <time>2020-06-11T11:18:48Z</time>
      </trkpt>
      <trkpt lat="45.40498" lon="6.19936">
        <ele>2426.99</ele>
        <time>2020-06-11T11:19:02Z</time>
      </trkpt>
      <trkpt lat="45.40494" lon="6.19937">
        <ele>2425.54</ele>
        <time>2020-06-11T11:19:16Z</time>
      </trkpt>
      <trkpt lat="45.40493" lon="6.19934">
        <ele>2422.66</ele>
        <time>2020-06-11T11:19:34Z</time>
      </trkpt>
      <trkpt lat="45.40493" lon="6.19929">
        <ele>2421.22</ele>
        <time>2020-06-11T11:19:49Z</time>
      </trkpt>
      <trkpt lat="45.4049" lon="6.19931">
        <ele>2419.3</ele>
        <time>2020-06-11T11:20:09Z</time>
      </trkpt>
      <trkpt lat="45.40487" lon="6.19931">
        <ele>2419.3</ele>
        <time>2020-06-11T11:20:31Z</time>
      </trkpt>
      <trkpt lat="45.40483" lon="6.1993">
        <ele>2418.33</ele>
        <time>2020-06-11T11:20:52Z</time>
      </trkpt>
      <trkpt lat="45.40479" lon="6.19933">
        <ele>2416.41</ele>
        <time>2020-06-11T11:21:10Z</time>
      </trkpt>
      <trkpt lat="45.40475" lon="6.19934">
        <ele>2414.49</ele>
        <time>2020-06-11T11:21:24Z</time>
      </trkpt>
      <trkpt lat="45.40471" lon="6.19935">
        <ele>2412.57</ele>
        <time>2020-06-11T11:21:42Z</time>
      </trkpt>
      <trkpt lat="45.40469" lon="6.19936">
        <ele>2411.12</ele>
        <time>2020-06-11T11:22:00Z</time>
      </trkpt>
      <trkpt lat="45.40464" lon="6.19935">
        <ele>2408.72</ele>
        <time>2020-06-11T11:22:15Z</time>
      </trkpt>
      <trkpt lat="45.40461" lon="6.19939">
        <ele>2407.76</ele>
        <time>2020-06-11T11:22:28Z</time>
      </trkpt>
      <trkpt lat="45.4046" lon="6.19943">
        <ele>2404.39</ele>
        <time>2020-06-11T11:22:48Z</time>
      </trkpt>
      <trkpt lat="45.40457" lon="6.19946">
        <ele>2402.47</ele>
        <time>2020-06-11T11:23:06Z</time>
      </trkpt>
      <trkpt lat="45.40457" lon="6.19946">
        <ele>2401.99</ele>
        <time>2020-06-11T11:23:31Z</time>
      </trkpt>
      <trkpt lat="45.40453" lon="6.1995">
        <ele>2402.47</ele>
        <time>2020-06-11T11:23:53Z</time>
      </trkpt>
      <trkpt lat="45.40449" lon="6.19954">
        <ele>2401.03</ele>
        <time>2020-06-11T11:24:07Z</time>
      </trkpt>
      <trkpt lat="45.40445" lon="6.19956">
        <ele>2400.07</ele>
        <time>2020-06-11T11:24:19Z</time>
      </trkpt>
      <trkpt lat="45.40441" lon="6.19959">
        <ele>2398.63</ele>
        <time>2020-06-11T11:24:31Z</time>
      </trkpt>
      <trkpt lat="45.40436" lon="6.19961">
        <ele>2395.26</ele>
        <time>2020-06-11T11:24:46Z</time>
      </trkpt>
      <trkpt lat="45.40435" lon="6.19961">
        <ele>2392.86</ele>
        <time>2020-06-11T11:25:03Z</time>
      </trkpt>
      <trkpt lat="45.40435" lon="6.19959">
        <ele>2391.42</ele>
        <time>2020-06-11T11:25:16Z</time>
      </trkpt>
      <trkpt lat="45.40432" lon="6.19958">
        <ele>2389.97</ele>
        <time>2020-06-11T11:25:29Z</time>
      </trkpt>
      <trkpt lat="45.4043" lon="6.19956">
        <ele>2388.05</ele>
        <time>2020-06-11T11:26:02Z</time>
      </trkpt>
      <trkpt lat="45.40427" lon="6.19953">
        <ele>2386.61</ele>
        <time>2020-06-11T11:26:16Z</time>
      </trkpt>
      <trkpt lat="45.40429" lon="6.1995">
        <ele>2384.21</ele>
        <time>2020-06-11T11:26:33Z</time>
      </trkpt>
      <trkpt lat="45.4043" lon="6.19947">
        <ele>2382.28</ele>
        <time>2020-06-11T11:26:46Z</time>
      </trkpt>
      <trkpt lat="45.4043" lon="6.19943">
        <ele>2381.32</ele>
        <time>2020-06-11T11:27:02Z</time>
      </trkpt>
      <trkpt lat="45.4043" lon="6.1994">
        <ele>2379.4</ele>
        <time>2020-06-11T11:27:16Z</time>
      </trkpt>
      <trkpt lat="45.4043" lon="6.19937">
        <ele>2377</ele>
        <time>2020-06-11T11:27:32Z</time>
      </trkpt>
      <trkpt lat="45.4043" lon="6.19934">
        <ele>2374.59</ele>
        <time>2020-06-11T11:27:54Z</time>
      </trkpt>
      <trkpt lat="45.40429" lon="6.1993">
        <ele>2373.15</ele>
        <time>2020-06-11T11:28:05Z</time>
      </trkpt>
      <trkpt lat="45.40429" lon="6.19924">
        <ele>2370.75</ele>
        <time>2020-06-11T11:28:19Z</time>
      </trkpt>
      <trkpt lat="45.40429" lon="6.1992">
        <ele>2368.83</ele>
        <time>2020-06-11T11:28:32Z</time>
      </trkpt>
      <trkpt lat="45.40426" lon="6.19919">
        <ele>2366.9</ele>
        <time>2020-06-11T11:28:49Z</time>
      </trkpt>
      <trkpt lat="45.40422" lon="6.19922">
        <ele>2366.42</ele>
        <time>2020-06-11T11:29:03Z</time>
      </trkpt>
      <trkpt lat="45.4042" lon="6.19918">
        <ele>2365.46</ele>
        <time>2020-06-11T11:29:15Z</time>
      </trkpt>
      <trkpt lat="45.40416" lon="6.19921">
        <ele>2363.54</ele>
        <time>2020-06-11T11:29:28Z</time>
      </trkpt>
      <trkpt lat="45.40412" lon="6.19924">
        <ele>2361.62</ele>
        <time>2020-06-11T11:29:40Z</time>
      </trkpt>
      <trkpt lat="45.40408" lon="6.19923">
        <ele>2359.69</ele>
        <time>2020-06-11T11:29:51Z</time>
      </trkpt>
      <trkpt lat="45.40404" lon="6.19926">
        <ele>2356.81</ele>
        <time>2020-06-11T11:30:05Z</time>
      </trkpt>
      <trkpt lat="45.40401" lon="6.19927">
        <ele>2355.37</ele>
        <time>2020-06-11T11:30:17Z</time>
      </trkpt>
      <trkpt lat="45.40396" lon="6.19929">
        <ele>2352.48</ele>
        <time>2020-06-11T11:30:30Z</time>
      </trkpt>
      <trkpt lat="45.40391" lon="6.19932">
        <ele>2350.08</ele>
        <time>2020-06-11T11:30:45Z</time>
      </trkpt>
      <trkpt lat="45.40387" lon="6.19934">
        <ele>2347.68</ele>
        <time>2020-06-11T11:30:59Z</time>
      </trkpt>
      <trkpt lat="45.40383" lon="6.19937">
        <ele>2346.23</ele>
        <time>2020-06-11T11:31:12Z</time>
      </trkpt>
      <trkpt lat="45.4038" lon="6.19939">
        <ele>2343.83</ele>
        <time>2020-06-11T11:31:28Z</time>
      </trkpt>
      <trkpt lat="45.40379" lon="6.19937">
        <ele>2341.43</ele>
        <time>2020-06-11T11:31:55Z</time>
      </trkpt>
      <trkpt lat="45.40375" lon="6.19936">
        <ele>2339.99</ele>
        <time>2020-06-11T11:32:09Z</time>
      </trkpt>
      <trkpt lat="45.40373" lon="6.19942">
        <ele>2338.54</ele>
        <time>2020-06-11T11:32:16Z</time>
      </trkpt>
      <trkpt lat="45.4037" lon="6.19948">
        <ele>2337.58</ele>
        <time>2020-06-11T11:32:29Z</time>
      </trkpt>
      <trkpt lat="45.40368" lon="6.19952">
        <ele>2335.66</ele>
        <time>2020-06-11T11:32:43Z</time>
      </trkpt>
      <trkpt lat="45.40365" lon="6.19951">
        <ele>2334.7</ele>
        <time>2020-06-11T11:32:54Z</time>
      </trkpt>
      <trkpt lat="45.40361" lon="6.19944">
        <ele>2333.26</ele>
        <time>2020-06-11T11:33:07Z</time>
      </trkpt>
      <trkpt lat="45.40358" lon="6.19941">
        <ele>2331.81</ele>
        <time>2020-06-11T11:33:18Z</time>
      </trkpt>
      <trkpt lat="45.40357" lon="6.19937">
        <ele>2329.41</ele>
        <time>2020-06-11T11:33:32Z</time>
      </trkpt>
      <trkpt lat="45.40356" lon="6.19932">
        <ele>2327.49</ele>
        <time>2020-06-11T11:33:50Z</time>
      </trkpt>
      <trkpt lat="45.40356" lon="6.19926">
        <ele>2326.05</ele>
        <time>2020-06-11T11:34:04Z</time>
      </trkpt>
      <trkpt lat="45.40354" lon="6.19922">
        <ele>2323.64</ele>
        <time>2020-06-11T11:34:20Z</time>
      </trkpt>
      <trkpt lat="45.40351" lon="6.19922">
        <ele>2321.72</ele>
        <time>2020-06-11T11:34:34Z</time>
      </trkpt>
      <trkpt lat="45.40348" lon="6.19921">
        <ele>2320.76</ele>
        <time>2020-06-11T11:34:48Z</time>
      </trkpt>
      <trkpt lat="45.40346" lon="6.19917">
        <ele>2319.8</ele>
        <time>2020-06-11T11:35:01Z</time>
      </trkpt>
      <trkpt lat="45.40344" lon="6.19915">
        <ele>2316.91</ele>
        <time>2020-06-11T11:35:15Z</time>
      </trkpt>
      <trkpt lat="45.4034" lon="6.19912">
        <ele>2314.51</ele>
        <time>2020-06-11T11:35:28Z</time>
      </trkpt>
      <trkpt lat="45.40337" lon="6.19912">
        <ele>2312.59</ele>
        <time>2020-06-11T11:35:40Z</time>
      </trkpt>
      <trkpt lat="45.4033" lon="6.19913">
        <ele>2310.19</ele>
        <time>2020-06-11T11:35:55Z</time>
      </trkpt>
      <trkpt lat="45.40326" lon="6.19913">
        <ele>2308.74</ele>
        <time>2020-06-11T11:36:09Z</time>
      </trkpt>
      <trkpt lat="45.4032" lon="6.19914">
        <ele>2306.82</ele>
        <time>2020-06-11T11:36:22Z</time>
      </trkpt>
      <trkpt lat="45.40314" lon="6.19915">
        <ele>2305.38</ele>
        <time>2020-06-11T11:36:35Z</time>
      </trkpt>
      <trkpt lat="45.40309" lon="6.19918">
        <ele>2303.94</ele>
        <time>2020-06-11T11:36:49Z</time>
      </trkpt>
      <trkpt lat="45.40304" lon="6.19919">
        <ele>2302.01</ele>
        <time>2020-06-11T11:37:05Z</time>
      </trkpt>
      <trkpt lat="45.403" lon="6.19921">
        <ele>2301.05</ele>
        <time>2020-06-11T11:37:17Z</time>
      </trkpt>
      <trkpt lat="45.40298" lon="6.19923">
        <ele>2299.61</ele>
        <time>2020-06-11T11:37:32Z</time>
      </trkpt>
      <trkpt lat="45.40296" lon="6.19923">
        <ele>2298.17</ele>
        <time>2020-06-11T11:37:50Z</time>
      </trkpt>
      <trkpt lat="45.40288" lon="6.19923">
        <ele>2295.77</ele>
        <time>2020-06-11T11:38:04Z</time>
      </trkpt>
      <trkpt lat="45.40284" lon="6.19922">
        <ele>2293.84</ele>
        <time>2020-06-11T11:38:17Z</time>
      </trkpt>
      <trkpt lat="45.40282" lon="6.19921">
        <ele>2291.92</ele>
        <time>2020-06-11T11:38:30Z</time>
      </trkpt>
      <trkpt lat="45.40282" lon="6.19918">
        <ele>2290.96</ele>
        <time>2020-06-11T11:38:42Z</time>
      </trkpt>
      <trkpt lat="45.40279" lon="6.19915">
        <ele>2289.04</ele>
        <time>2020-06-11T11:38:53Z</time>
      </trkpt>
      <trkpt lat="45.40278" lon="6.19916">
        <ele>2287.59</ele>
        <time>2020-06-11T11:39:10Z</time>
      </trkpt>
      <trkpt lat="45.40276" lon="6.19915">
        <ele>2286.63</ele>
        <time>2020-06-11T11:39:29Z</time>
      </trkpt>
      <trkpt lat="45.40276" lon="6.19915">
        <ele>2286.15</ele>
        <time>2020-06-11T11:39:48Z</time>
      </trkpt>
      <trkpt lat="45.40276" lon="6.19916">
        <ele>2285.67</ele>
        <time>2020-06-11T11:40:07Z</time>
      </trkpt>
      <trkpt lat="45.40276" lon="6.19915">
        <ele>2286.15</ele>
        <time>2020-06-11T11:40:30Z</time>
      </trkpt>
      <trkpt lat="45.40275" lon="6.19914">
        <ele>2285.19</ele>
        <time>2020-06-11T11:40:45Z</time>
      </trkpt>
      <trkpt lat="45.40276" lon="6.19912">
        <ele>2284.71</ele>
        <time>2020-06-11T11:41:11Z</time>
      </trkpt>
      <trkpt lat="45.40275" lon="6.19908">
        <ele>2283.27</ele>
        <time>2020-06-11T11:41:26Z</time>
      </trkpt>
      <trkpt lat="45.40275" lon="6.19906">
        <ele>2281.83</ele>
        <time>2020-06-11T11:41:40Z</time>
      </trkpt>
      <trkpt lat="45.40275" lon="6.19904">
        <ele>2279.42</ele>
        <time>2020-06-11T11:41:53Z</time>
      </trkpt>
      <trkpt lat="45.40274" lon="6.19903">
        <ele>2277.98</ele>
        <time>2020-06-11T11:42:07Z</time>
      </trkpt>
      <trkpt lat="45.40272" lon="6.19901">
        <ele>2276.06</ele>
        <time>2020-06-11T11:42:37Z</time>
      </trkpt>
      <trkpt lat="45.40272" lon="6.19896">
        <ele>2274.62</ele>
        <time>2020-06-11T11:42:55Z</time>
      </trkpt>
      <trkpt lat="45.40267" lon="6.19899">
        <ele>2272.21</ele>
        <time>2020-06-11T11:43:12Z</time>
      </trkpt>
      <trkpt lat="45.40269" lon="6.19901">
        <ele>2270.77</ele>
        <time>2020-06-11T11:43:38Z</time>
      </trkpt>
      <trkpt lat="45.40265" lon="6.19904">
        <ele>2269.33</ele>
        <time>2020-06-11T11:43:56Z</time>
      </trkpt>
      <trkpt lat="45.40263" lon="6.19905">
        <ele>2267.41</ele>
        <time>2020-06-11T11:44:15Z</time>
      </trkpt>
      <trkpt lat="45.40261" lon="6.19905">
        <ele>2266.45</ele>
        <time>2020-06-11T11:44:32Z</time>
      </trkpt>
      <trkpt lat="45.40261" lon="6.19907">
        <ele>2265.96</ele>
        <time>2020-06-11T11:44:47Z</time>
      </trkpt>
      <trkpt lat="45.40259" lon="6.19907">
        <ele>2265</ele>
        <time>2020-06-11T11:45:01Z</time>
      </trkpt>
      <trkpt lat="45.40256" lon="6.19907">
        <ele>2263.56</ele>
        <time>2020-06-11T11:45:15Z</time>
      </trkpt>
      <trkpt lat="45.40251" lon="6.19911">
        <ele>2261.64</ele>
        <time>2020-06-11T11:45:28Z</time>
      </trkpt>
      <trkpt lat="45.40242" lon="6.19913">
        <ele>2259.24</ele>
        <time>2020-06-11T11:45:42Z</time>
      </trkpt>
      <trkpt lat="45.40236" lon="6.19913">
        <ele>2258.27</ele>
        <time>2020-06-11T11:45:55Z</time>
      </trkpt>
      <trkpt lat="45.40234" lon="6.19912">
        <ele>2256.83</ele>
        <time>2020-06-11T11:46:09Z</time>
      </trkpt>
      <trkpt lat="45.40235" lon="6.1991">
        <ele>2254.43</ele>
        <time>2020-06-11T11:46:23Z</time>
      </trkpt>
      <trkpt lat="45.40236" lon="6.19906">
        <ele>2253.95</ele>
        <time>2020-06-11T11:46:37Z</time>
      </trkpt>
      <trkpt lat="45.40238" lon="6.199">
        <ele>2250.58</ele>
        <time>2020-06-11T11:46:53Z</time>
      </trkpt>
      <trkpt lat="45.40239" lon="6.19894">
        <ele>2247.7</ele>
        <time>2020-06-11T11:47:07Z</time>
      </trkpt>
      <trkpt lat="45.40239" lon="6.19888">
        <ele>2244.82</ele>
        <time>2020-06-11T11:47:21Z</time>
      </trkpt>
      <trkpt lat="45.4024" lon="6.19882">
        <ele>2241.93</ele>
        <time>2020-06-11T11:47:33Z</time>
      </trkpt>
      <trkpt lat="45.40241" lon="6.19879">
        <ele>2238.57</ele>
        <time>2020-06-11T11:47:46Z</time>
      </trkpt>
      <trkpt lat="45.40239" lon="6.19873">
        <ele>2236.16</ele>
        <time>2020-06-11T11:47:57Z</time>
      </trkpt>
      <trkpt lat="45.40241" lon="6.19867">
        <ele>2233.28</ele>
        <time>2020-06-11T11:48:11Z</time>
      </trkpt>
      <trkpt lat="45.40243" lon="6.19865">
        <ele>2230.4</ele>
        <time>2020-06-11T11:48:26Z</time>
      </trkpt>
      <trkpt lat="45.40248" lon="6.1986">
        <ele>2227.99</ele>
        <time>2020-06-11T11:48:41Z</time>
      </trkpt>
      <trkpt lat="45.40255" lon="6.19852">
        <ele>2224.63</ele>
        <time>2020-06-11T11:48:56Z</time>
      </trkpt>
      <trkpt lat="45.40254" lon="6.19847">
        <ele>2222.22</ele>
        <time>2020-06-11T11:49:10Z</time>
      </trkpt>
      <trkpt lat="45.4026" lon="6.1984">
        <ele>2220.3</ele>
        <time>2020-06-11T11:49:25Z</time>
      </trkpt>
      <trkpt lat="45.40262" lon="6.19832">
        <ele>2217.42</ele>
        <time>2020-06-11T11:49:39Z</time>
      </trkpt>
      <trkpt lat="45.40264" lon="6.19832">
        <ele>2216.94</ele>
        <time>2020-06-11T11:50:00Z</time>
      </trkpt>
      <trkpt lat="45.40263" lon="6.19832">
        <ele>2213.57</ele>
        <time>2020-06-11T11:50:25Z</time>
      </trkpt>
      <trkpt lat="45.40263" lon="6.19831">
        <ele>2210.69</ele>
        <time>2020-06-11T11:50:28Z</time>
      </trkpt>
      <trkpt lat="45.40262" lon="6.19829">
        <ele>2215.01</ele>
        <time>2020-06-11T11:50:34Z</time>
      </trkpt>
      <trkpt lat="45.40262" lon="6.19829">
        <ele>2218.38</ele>
        <time>2020-06-11T11:50:37Z</time>
      </trkpt>
      <trkpt lat="45.40262" lon="6.19829">
        <ele>2218.86</ele>
        <time>2020-06-11T11:50:38Z</time>
      </trkpt>
      <trkpt lat="45.40262" lon="6.19829">
        <ele>2215.98</ele>
        <time>2020-06-11T11:51:08Z</time>
      </trkpt>
      <trkpt lat="45.40262" lon="6.19829">
        <ele>2212.61</ele>
        <time>2020-06-11T11:51:27Z</time>
      </trkpt>
      <trkpt lat="45.40262" lon="6.19829">
        <ele>2210.69</ele>
        <time>2020-06-11T11:51:30Z</time>
      </trkpt>
      <trkpt lat="45.40262" lon="6.19829">
        <ele>2212.61</ele>
        <time>2020-06-11T11:51:36Z</time>
      </trkpt>
      <trkpt lat="45.40262" lon="6.19829">
        <ele>2215.98</ele>
        <time>2020-06-11T11:51:41Z</time>
      </trkpt>
      <trkpt lat="45.40262" lon="6.1983">
        <ele>2218.38</ele>
        <time>2020-06-11T11:52:08Z</time>
      </trkpt>
      <trkpt lat="45.40263" lon="6.1983">
        <ele>2215.01</ele>
        <time>2020-06-11T11:53:32Z</time>
      </trkpt>
      <trkpt lat="45.40263" lon="6.1983">
        <ele>2215.98</ele>
        <time>2020-06-11T11:53:39Z</time>
      </trkpt>
      <trkpt lat="45.40265" lon="6.19833">
        <ele>2216.94</ele>
        <time>2020-06-11T11:54:19Z</time>
      </trkpt>
      <trkpt lat="45.40265" lon="6.19833">
        <ele>2215.98</ele>
        <time>2020-06-11T11:54:43Z</time>
      </trkpt>
      <trkpt lat="45.40265" lon="6.19833">
        <ele>2211.17</ele>
        <time>2020-06-11T11:54:48Z</time>
      </trkpt>
      <trkpt lat="45.40265" lon="6.19834">
        <ele>2210.21</ele>
        <time>2020-06-11T11:54:50Z</time>
      </trkpt>
      <trkpt lat="45.40265" lon="6.19834">
        <ele>2213.57</ele>
        <time>2020-06-11T11:54:52Z</time>
      </trkpt>
      <trkpt lat="45.40265" lon="6.19834">
        <ele>2216.94</ele>
        <time>2020-06-11T11:54:54Z</time>
      </trkpt>
      <trkpt lat="45.40267" lon="6.19834">
        <ele>2216.94</ele>
        <time>2020-06-11T11:55:14Z</time>
      </trkpt>
      <trkpt lat="45.40267" lon="6.19834">
        <ele>2213.57</ele>
        <time>2020-06-11T11:55:32Z</time>
      </trkpt>
      <trkpt lat="45.40267" lon="6.19834">
        <ele>2215.01</ele>
        <time>2020-06-11T11:55:52Z</time>
      </trkpt>
      <trkpt lat="45.40267" lon="6.19833">
        <ele>2214.05</ele>
        <time>2020-06-11T11:56:17Z</time>
      </trkpt>
      <trkpt lat="45.40266" lon="6.19828">
        <ele>2213.57</ele>
        <time>2020-06-11T11:56:37Z</time>
      </trkpt>
      <trkpt lat="45.40269" lon="6.19819">
        <ele>2212.13</ele>
        <time>2020-06-11T11:56:52Z</time>
      </trkpt>
      <trkpt lat="45.40269" lon="6.19809">
        <ele>2210.21</ele>
        <time>2020-06-11T11:57:06Z</time>
      </trkpt>
      <trkpt lat="45.4027" lon="6.198">
        <ele>2207.32</ele>
        <time>2020-06-11T11:57:20Z</time>
      </trkpt>
      <trkpt lat="45.40272" lon="6.19788">
        <ele>2204.92</ele>
        <time>2020-06-11T11:57:35Z</time>
      </trkpt>
      <trkpt lat="45.40272" lon="6.19777">
        <ele>2203.48</ele>
        <time>2020-06-11T11:57:52Z</time>
      </trkpt>
      <trkpt lat="45.40271" lon="6.19768">
        <ele>2201.56</ele>
        <time>2020-06-11T11:58:05Z</time>
      </trkpt>
      <trkpt lat="45.40269" lon="6.1976">
        <ele>2199.63</ele>
        <time>2020-06-11T11:58:18Z</time>
      </trkpt>
      <trkpt lat="45.40265" lon="6.19769">
        <ele>2197.23</ele>
        <time>2020-06-11T11:58:34Z</time>
      </trkpt>
      <trkpt lat="45.40259" lon="6.19781">
        <ele>2194.35</ele>
        <time>2020-06-11T11:58:53Z</time>
      </trkpt>
      <trkpt lat="45.40253" lon="6.19789">
        <ele>2193.39</ele>
        <time>2020-06-11T11:59:04Z</time>
      </trkpt>
      <trkpt lat="45.40248" lon="6.19798">
        <ele>2193.39</ele>
        <time>2020-06-11T11:59:17Z</time>
      </trkpt>
      <trkpt lat="45.40239" lon="6.19812">
        <ele>2193.39</ele>
        <time>2020-06-11T11:59:33Z</time>
      </trkpt>
      <trkpt lat="45.40231" lon="6.19822">
        <ele>2193.39</ele>
        <time>2020-06-11T11:59:48Z</time>
      </trkpt>
      <trkpt lat="45.40217" lon="6.19825">
        <ele>2193.87</ele>
        <time>2020-06-11T12:00:09Z</time>
      </trkpt>
      <trkpt lat="45.4021" lon="6.19826">
        <ele>2192.9</ele>
        <time>2020-06-11T12:00:22Z</time>
      </trkpt>
      <trkpt lat="45.40208" lon="6.19825">
        <ele>2192.42</ele>
        <time>2020-06-11T12:00:36Z</time>
      </trkpt>
      <trkpt lat="45.40205" lon="6.19822">
        <ele>2190.5</ele>
        <time>2020-06-11T12:00:51Z</time>
      </trkpt>
      <trkpt lat="45.40202" lon="6.19825">
        <ele>2189.54</ele>
        <time>2020-06-11T12:01:09Z</time>
      </trkpt>
      <trkpt lat="45.40199" lon="6.19829">
        <ele>2190.5</ele>
        <time>2020-06-11T12:01:28Z</time>
      </trkpt>
      <trkpt lat="45.40194" lon="6.19824">
        <ele>2190.5</ele>
        <time>2020-06-11T12:01:49Z</time>
      </trkpt>
      <trkpt lat="45.40186" lon="6.19813">
        <ele>2189.54</ele>
        <time>2020-06-11T12:02:02Z</time>
      </trkpt>
      <trkpt lat="45.40177" lon="6.19807">
        <ele>2190.02</ele>
        <time>2020-06-11T12:02:19Z</time>
      </trkpt>
      <trkpt lat="45.40172" lon="6.19803">
        <ele>2191.94</ele>
        <time>2020-06-11T12:02:36Z</time>
      </trkpt>
      <trkpt lat="45.40166" lon="6.19796">
        <ele>2193.39</ele>
        <time>2020-06-11T12:02:49Z</time>
      </trkpt>
      <trkpt lat="45.40161" lon="6.19789">
        <ele>2192.9</ele>
        <time>2020-06-11T12:03:03Z</time>
      </trkpt>
      <trkpt lat="45.40158" lon="6.19792">
        <ele>2191.94</ele>
        <time>2020-06-11T12:03:17Z</time>
      </trkpt>
      <trkpt lat="45.40152" lon="6.19799">
        <ele>2190.02</ele>
        <time>2020-06-11T12:03:30Z</time>
      </trkpt>
      <trkpt lat="45.40149" lon="6.19809">
        <ele>2187.14</ele>
        <time>2020-06-11T12:03:44Z</time>
      </trkpt>
      <trkpt lat="45.40148" lon="6.19813">
        <ele>2184.73</ele>
        <time>2020-06-11T12:03:58Z</time>
      </trkpt>
      <trkpt lat="45.40144" lon="6.1982">
        <ele>2182.33</ele>
        <time>2020-06-11T12:04:16Z</time>
      </trkpt>
      <trkpt lat="45.40141" lon="6.19825">
        <ele>2180.41</ele>
        <time>2020-06-11T12:04:28Z</time>
      </trkpt>
      <trkpt lat="45.40135" lon="6.19831">
        <ele>2178</ele>
        <time>2020-06-11T12:04:43Z</time>
      </trkpt>
      <trkpt lat="45.40129" lon="6.19839">
        <ele>2177.04</ele>
        <time>2020-06-11T12:04:57Z</time>
      </trkpt>
      <trkpt lat="45.40123" lon="6.19846">
        <ele>2175.12</ele>
        <time>2020-06-11T12:05:09Z</time>
      </trkpt>
      <trkpt lat="45.40122" lon="6.1985">
        <ele>2173.68</ele>
        <time>2020-06-11T12:05:29Z</time>
      </trkpt>
      <trkpt lat="45.40126" lon="6.19851">
        <ele>2173.68</ele>
        <time>2020-06-11T12:05:53Z</time>
      </trkpt>
      <trkpt lat="45.40123" lon="6.19851">
        <ele>2174.64</ele>
        <time>2020-06-11T12:06:16Z</time>
      </trkpt>
      <trkpt lat="45.40114" lon="6.19857">
        <ele>2173.68</ele>
        <time>2020-06-11T12:06:32Z</time>
      </trkpt>
      <trkpt lat="45.40104" lon="6.19863">
        <ele>2170.79</ele>
        <time>2020-06-11T12:06:47Z</time>
      </trkpt>
      <trkpt lat="45.40096" lon="6.19867">
        <ele>2169.83</ele>
        <time>2020-06-11T12:07:01Z</time>
      </trkpt>
      <trkpt lat="45.40092" lon="6.19868">
        <ele>2168.39</ele>
        <time>2020-06-11T12:07:12Z</time>
      </trkpt>
      <trkpt lat="45.40086" lon="6.19869">
        <ele>2165.99</ele>
        <time>2020-06-11T12:07:27Z</time>
      </trkpt>
      <trkpt lat="45.40082" lon="6.19872">
        <ele>2163.58</ele>
        <time>2020-06-11T12:07:40Z</time>
      </trkpt>
      <trkpt lat="45.40079" lon="6.19872">
        <ele>2162.14</ele>
        <time>2020-06-11T12:07:55Z</time>
      </trkpt>
      <trkpt lat="45.40078" lon="6.19871">
        <ele>2160.7</ele>
        <time>2020-06-11T12:08:19Z</time>
      </trkpt>
      <trkpt lat="45.40073" lon="6.19871">
        <ele>2160.22</ele>
        <time>2020-06-11T12:08:41Z</time>
      </trkpt>
      <trkpt lat="45.40066" lon="6.1987">
        <ele>2159.74</ele>
        <time>2020-06-11T12:08:54Z</time>
      </trkpt>
      <trkpt lat="45.40062" lon="6.1987">
        <ele>2158.78</ele>
        <time>2020-06-11T12:09:06Z</time>
      </trkpt>
      <trkpt lat="45.40058" lon="6.19868">
        <ele>2157.34</ele>
        <time>2020-06-11T12:09:20Z</time>
      </trkpt>
      <trkpt lat="45.40057" lon="6.19868">
        <ele>2155.89</ele>
        <time>2020-06-11T12:09:43Z</time>
      </trkpt>
      <trkpt lat="45.40054" lon="6.19865">
        <ele>2155.41</ele>
        <time>2020-06-11T12:09:58Z</time>
      </trkpt>
      <trkpt lat="45.40051" lon="6.19865">
        <ele>2153.01</ele>
        <time>2020-06-11T12:10:14Z</time>
      </trkpt>
      <trkpt lat="45.40046" lon="6.19861">
        <ele>2150.61</ele>
        <time>2020-06-11T12:10:29Z</time>
      </trkpt>
      <trkpt lat="45.40042" lon="6.1986">
        <ele>2148.68</ele>
        <time>2020-06-11T12:10:42Z</time>
      </trkpt>
      <trkpt lat="45.40038" lon="6.19859">
        <ele>2146.76</ele>
        <time>2020-06-11T12:10:54Z</time>
      </trkpt>
      <trkpt lat="45.40035" lon="6.19858">
        <ele>2145.32</ele>
        <time>2020-06-11T12:11:06Z</time>
      </trkpt>
      <trkpt lat="45.40029" lon="6.19863">
        <ele>2142.44</ele>
        <time>2020-06-11T12:11:20Z</time>
      </trkpt>
      <trkpt lat="45.40023" lon="6.19865">
        <ele>2140.03</ele>
        <time>2020-06-11T12:11:33Z</time>
      </trkpt>
      <trkpt lat="45.40019" lon="6.19863">
        <ele>2138.11</ele>
        <time>2020-06-11T12:11:47Z</time>
      </trkpt>
      <trkpt lat="45.40014" lon="6.19863">
        <ele>2135.23</ele>
        <time>2020-06-11T12:12:03Z</time>
      </trkpt>
      <trkpt lat="45.4001" lon="6.19864">
        <ele>2132.82</ele>
        <time>2020-06-11T12:12:18Z</time>
      </trkpt>
      <trkpt lat="45.40003" lon="6.19864">
        <ele>2131.38</ele>
        <time>2020-06-11T12:12:31Z</time>
      </trkpt>
      <trkpt lat="45.4" lon="6.19866">
        <ele>2130.42</ele>
        <time>2020-06-11T12:12:46Z</time>
      </trkpt>
      <trkpt lat="45.39997" lon="6.19865">
        <ele>2128.98</ele>
        <time>2020-06-11T12:13:00Z</time>
      </trkpt>
      <trkpt lat="45.39996" lon="6.19866">
        <ele>2128.02</ele>
        <time>2020-06-11T12:13:17Z</time>
      </trkpt>
      <trkpt lat="45.39994" lon="6.19864">
        <ele>2127.05</ele>
        <time>2020-06-11T12:13:30Z</time>
      </trkpt>
      <trkpt lat="45.39991" lon="6.19862">
        <ele>2125.61</ele>
        <time>2020-06-11T12:13:43Z</time>
      </trkpt>
      <trkpt lat="45.39988" lon="6.19857">
        <ele>2122.73</ele>
        <time>2020-06-11T12:14:02Z</time>
      </trkpt>
      <trkpt lat="45.39986" lon="6.1986">
        <ele>2120.32</ele>
        <time>2020-06-11T12:14:18Z</time>
      </trkpt>
      <trkpt lat="45.39982" lon="6.1986">
        <ele>2118.88</ele>
        <time>2020-06-11T12:14:34Z</time>
      </trkpt>
      <trkpt lat="45.39981" lon="6.19866">
        <ele>2116.96</ele>
        <time>2020-06-11T12:14:47Z</time>
      </trkpt>
      <trkpt lat="45.39979" lon="6.1987">
        <ele>2115.04</ele>
        <time>2020-06-11T12:15:08Z</time>
      </trkpt>
      <trkpt lat="45.39976" lon="6.19873">
        <ele>2113.6</ele>
        <time>2020-06-11T12:15:23Z</time>
      </trkpt>
      <trkpt lat="45.39972" lon="6.19872">
        <ele>2111.67</ele>
        <time>2020-06-11T12:15:39Z</time>
      </trkpt>
      <trkpt lat="45.39968" lon="6.19873">
        <ele>2110.23</ele>
        <time>2020-06-11T12:15:49Z</time>
      </trkpt>
      <trkpt lat="45.39966" lon="6.19873">
        <ele>2110.23</ele>
        <time>2020-06-11T12:15:50Z</time>
      </trkpt>
      <trkpt lat="45.39965" lon="6.19874">
        <ele>2110.23</ele>
        <time>2020-06-11T12:15:51Z</time>
      </trkpt>
      <trkpt lat="45.39962" lon="6.19874">
        <ele>2109.27</ele>
        <time>2020-06-11T12:15:54Z</time>
      </trkpt>
      <trkpt lat="45.39955" lon="6.19874">
        <ele>2107.83</ele>
        <time>2020-06-11T12:16:04Z</time>
      </trkpt>
      <trkpt lat="45.39946" lon="6.19878">
        <ele>2106.39</ele>
        <time>2020-06-11T12:16:19Z</time>
      </trkpt>
      <trkpt lat="45.3994" lon="6.19881">
        <ele>2105.42</ele>
        <time>2020-06-11T12:16:31Z</time>
      </trkpt>
      <trkpt lat="45.39935" lon="6.19883">
        <ele>2103.98</ele>
        <time>2020-06-11T12:16:45Z</time>
      </trkpt>
      <trkpt lat="45.39933" lon="6.19887">
        <ele>2103.5</ele>
        <time>2020-06-11T12:16:57Z</time>
      </trkpt>
      <trkpt lat="45.3993" lon="6.19887">
        <ele>2102.54</ele>
        <time>2020-06-11T12:17:11Z</time>
      </trkpt>
      <trkpt lat="45.39933" lon="6.19878">
        <ele>2101.1</ele>
        <time>2020-06-11T12:17:20Z</time>
      </trkpt>
      <trkpt lat="45.39942" lon="6.19868">
        <ele>2099.66</ele>
        <time>2020-06-11T12:17:33Z</time>
      </trkpt>
      <trkpt lat="45.39951" lon="6.19858">
        <ele>2096.77</ele>
        <time>2020-06-11T12:17:50Z</time>
      </trkpt>
      <trkpt lat="45.39955" lon="6.19847">
        <ele>2093.89</ele>
        <time>2020-06-11T12:18:05Z</time>
      </trkpt>
      <trkpt lat="45.39959" lon="6.19837">
        <ele>2091</ele>
        <time>2020-06-11T12:18:20Z</time>
      </trkpt>
      <trkpt lat="45.39966" lon="6.19829">
        <ele>2088.12</ele>
        <time>2020-06-11T12:18:35Z</time>
      </trkpt>
      <trkpt lat="45.39973" lon="6.19822">
        <ele>2085.24</ele>
        <time>2020-06-11T12:18:52Z</time>
      </trkpt>
      <trkpt lat="45.39975" lon="6.19813">
        <ele>2082.83</ele>
        <time>2020-06-11T12:19:06Z</time>
      </trkpt>
      <trkpt lat="45.39975" lon="6.19806">
        <ele>2081.39</ele>
        <time>2020-06-11T12:19:17Z</time>
      </trkpt>
      <trkpt lat="45.39979" lon="6.19796">
        <ele>2079.47</ele>
        <time>2020-06-11T12:19:31Z</time>
      </trkpt>
      <trkpt lat="45.39983" lon="6.19787">
        <ele>2077.07</ele>
        <time>2020-06-11T12:19:45Z</time>
      </trkpt>
      <trkpt lat="45.39985" lon="6.19773">
        <ele>2074.18</ele>
        <time>2020-06-11T12:20:04Z</time>
      </trkpt>
      <trkpt lat="45.39985" lon="6.19765">
        <ele>2072.74</ele>
        <time>2020-06-11T12:20:18Z</time>
      </trkpt>
      <trkpt lat="45.39982" lon="6.1976">
        <ele>2070.34</ele>
        <time>2020-06-11T12:20:29Z</time>
      </trkpt>
      <trkpt lat="45.39981" lon="6.19752">
        <ele>2067.45</ele>
        <time>2020-06-11T12:20:43Z</time>
      </trkpt>
      <trkpt lat="45.39979" lon="6.19746">
        <ele>2064.57</ele>
        <time>2020-06-11T12:20:56Z</time>
      </trkpt>
      <trkpt lat="45.39977" lon="6.1974">
        <ele>2062.17</ele>
        <time>2020-06-11T12:21:08Z</time>
      </trkpt>
      <trkpt lat="45.39975" lon="6.19738">
        <ele>2059.76</ele>
        <time>2020-06-11T12:21:21Z</time>
      </trkpt>
      <trkpt lat="45.3997" lon="6.19732">
        <ele>2056.88</ele>
        <time>2020-06-11T12:21:37Z</time>
      </trkpt>
      <trkpt lat="45.39967" lon="6.19721">
        <ele>2053.99</ele>
        <time>2020-06-11T12:21:50Z</time>
      </trkpt>
      <trkpt lat="45.39964" lon="6.19714">
        <ele>2050.63</ele>
        <time>2020-06-11T12:22:04Z</time>
      </trkpt>
      <trkpt lat="45.3996" lon="6.19702">
        <ele>2048.23</ele>
        <time>2020-06-11T12:22:17Z</time>
      </trkpt>
      <trkpt lat="45.39958" lon="6.19699">
        <ele>2045.82</ele>
        <time>2020-06-11T12:22:30Z</time>
      </trkpt>
      <trkpt lat="45.39954" lon="6.19689">
        <ele>2042.94</ele>
        <time>2020-06-11T12:22:45Z</time>
      </trkpt>
      <trkpt lat="45.39952" lon="6.19683">
        <ele>2041.02</ele>
        <time>2020-06-11T12:22:58Z</time>
      </trkpt>
      <trkpt lat="45.39952" lon="6.19675">
        <ele>2039.57</ele>
        <time>2020-06-11T12:23:11Z</time>
      </trkpt>
      <trkpt lat="45.39954" lon="6.19666">
        <ele>2036.21</ele>
        <time>2020-06-11T12:23:27Z</time>
      </trkpt>
      <trkpt lat="45.39958" lon="6.19659">
        <ele>2033.81</ele>
        <time>2020-06-11T12:23:41Z</time>
      </trkpt>
      <trkpt lat="45.39961" lon="6.19652">
        <ele>2030.44</ele>
        <time>2020-06-11T12:23:52Z</time>
      </trkpt>
      <trkpt lat="45.39965" lon="6.19644">
        <ele>2027.56</ele>
        <time>2020-06-11T12:24:06Z</time>
      </trkpt>
      <trkpt lat="45.39971" lon="6.19637">
        <ele>2024.19</ele>
        <time>2020-06-11T12:24:21Z</time>
      </trkpt>
      <trkpt lat="45.39976" lon="6.19637">
        <ele>2021.79</ele>
        <time>2020-06-11T12:24:41Z</time>
      </trkpt>
      <trkpt lat="45.39978" lon="6.19634">
        <ele>2019.87</ele>
        <time>2020-06-11T12:24:55Z</time>
      </trkpt>
      <trkpt lat="45.39982" lon="6.19627">
        <ele>2017.94</ele>
        <time>2020-06-11T12:25:10Z</time>
      </trkpt>
      <trkpt lat="45.39983" lon="6.19627">
        <ele>2013.62</ele>
        <time>2020-06-11T12:25:13Z</time>
      </trkpt>
      <trkpt lat="45.39983" lon="6.19628">
        <ele>2017.46</ele>
        <time>2020-06-11T12:25:18Z</time>
      </trkpt>
      <trkpt lat="45.39983" lon="6.19628">
        <ele>2019.87</ele>
        <time>2020-06-11T12:25:20Z</time>
      </trkpt>
      <trkpt lat="45.39981" lon="6.19627">
        <ele>2016.98</ele>
        <time>2020-06-11T12:25:42Z</time>
      </trkpt>
      <trkpt lat="45.39983" lon="6.19626">
        <ele>2015.06</ele>
        <time>2020-06-11T12:26:16Z</time>
      </trkpt>
      <trkpt lat="45.39981" lon="6.19625">
        <ele>2014.58</ele>
        <time>2020-06-11T12:26:55Z</time>
      </trkpt>
      <trkpt lat="45.3998" lon="6.19624">
        <ele>2014.58</ele>
        <time>2020-06-11T12:27:33Z</time>
      </trkpt>
      <trkpt lat="45.3998" lon="6.19625">
        <ele>2015.54</ele>
        <time>2020-06-11T12:28:11Z</time>
      </trkpt>
      <trkpt lat="45.39981" lon="6.19626">
        <ele>2015.54</ele>
        <time>2020-06-11T12:28:32Z</time>
      </trkpt>
      <trkpt lat="45.39981" lon="6.19626">
        <ele>2016.98</ele>
        <time>2020-06-11T12:28:51Z</time>
      </trkpt>
      <trkpt lat="45.39979" lon="6.19626">
        <ele>2016.5</ele>
        <time>2020-06-11T12:29:14Z</time>
      </trkpt>
      <trkpt lat="45.3998" lon="6.19625">
        <ele>2016.98</ele>
        <time>2020-06-11T12:29:36Z</time>
      </trkpt>
      <trkpt lat="45.39986" lon="6.19616">
        <ele>2016.02</ele>
        <time>2020-06-11T12:29:51Z</time>
      </trkpt>
      <trkpt lat="45.39989" lon="6.19608">
        <ele>2014.58</ele>
        <time>2020-06-11T12:30:02Z</time>
      </trkpt>
      <trkpt lat="45.39989" lon="6.19606">
        <ele>2014.58</ele>
        <time>2020-06-11T12:30:03Z</time>
      </trkpt>
      <trkpt lat="45.39994" lon="6.19595">
        <ele>2012.18</ele>
        <time>2020-06-11T12:30:16Z</time>
      </trkpt>
      <trkpt lat="45.39993" lon="6.19587">
        <ele>2009.77</ele>
        <time>2020-06-11T12:30:32Z</time>
      </trkpt>
      <trkpt lat="45.39999" lon="6.1958">
        <ele>2007.37</ele>
        <time>2020-06-11T12:30:49Z</time>
      </trkpt>
      <trkpt lat="45.40005" lon="6.19566">
        <ele>2004.01</ele>
        <time>2020-06-11T12:31:05Z</time>
      </trkpt>
      <trkpt lat="45.40006" lon="6.19565">
        <ele>2004.01</ele>
        <time>2020-06-11T12:31:06Z</time>
      </trkpt>
      <trkpt lat="45.40009" lon="6.19555">
        <ele>2001.6</ele>
        <time>2020-06-11T12:31:19Z</time>
      </trkpt>
      <trkpt lat="45.40013" lon="6.19546">
        <ele>1998.72</ele>
        <time>2020-06-11T12:31:33Z</time>
      </trkpt>
      <trkpt lat="45.40016" lon="6.19538">
        <ele>1996.8</ele>
        <time>2020-06-11T12:31:45Z</time>
      </trkpt>
      <trkpt lat="45.4002" lon="6.19526">
        <ele>1993.43</ele>
        <time>2020-06-11T12:32:04Z</time>
      </trkpt>
      <trkpt lat="45.40022" lon="6.1951">
        <ele>1990.55</ele>
        <time>2020-06-11T12:32:19Z</time>
      </trkpt>
      <trkpt lat="45.40025" lon="6.195">
        <ele>1988.62</ele>
        <time>2020-06-11T12:32:28Z</time>
      </trkpt>
      <trkpt lat="45.4003" lon="6.1948">
        <ele>1986.7</ele>
        <time>2020-06-11T12:32:45Z</time>
      </trkpt>
      <trkpt lat="45.4003" lon="6.19473">
        <ele>1985.74</ele>
        <time>2020-06-11T12:33:00Z</time>
      </trkpt>
      <trkpt lat="45.40028" lon="6.19465">
        <ele>1984.3</ele>
        <time>2020-06-11T12:33:08Z</time>
      </trkpt>
      <trkpt lat="45.4003" lon="6.1945">
        <ele>1981.9</ele>
        <time>2020-06-11T12:33:22Z</time>
      </trkpt>
      <trkpt lat="45.4004" lon="6.19432">
        <ele>1979.49</ele>
        <time>2020-06-11T12:33:39Z</time>
      </trkpt>
      <trkpt lat="45.4005" lon="6.19421">
        <ele>1977.57</ele>
        <time>2020-06-11T12:33:55Z</time>
      </trkpt>
      <trkpt lat="45.40053" lon="6.19418">
        <ele>1977.57</ele>
        <time>2020-06-11T12:33:59Z</time>
      </trkpt>
      <trkpt lat="45.40058" lon="6.19413">
        <ele>1977.57</ele>
        <time>2020-06-11T12:34:09Z</time>
      </trkpt>
      <trkpt lat="45.40061" lon="6.19404">
        <ele>1977.09</ele>
        <time>2020-06-11T12:34:22Z</time>
      </trkpt>
      <trkpt lat="45.40064" lon="6.19391">
        <ele>1976.13</ele>
        <time>2020-06-11T12:34:35Z</time>
      </trkpt>
      <trkpt lat="45.40068" lon="6.1938">
        <ele>1975.17</ele>
        <time>2020-06-11T12:34:46Z</time>
      </trkpt>
      <trkpt lat="45.4007" lon="6.19366">
        <ele>1974.2</ele>
        <time>2020-06-11T12:35:00Z</time>
      </trkpt>
      <trkpt lat="45.40073" lon="6.19354">
        <ele>1973.72</ele>
        <time>2020-06-11T12:35:10Z</time>
      </trkpt>
      <trkpt lat="45.40073" lon="6.19353">
        <ele>1973.72</ele>
        <time>2020-06-11T12:35:11Z</time>
      </trkpt>
      <trkpt lat="45.40074" lon="6.19351">
        <ele>1973.72</ele>
        <time>2020-06-11T12:35:12Z</time>
      </trkpt>
      <trkpt lat="45.40078" lon="6.19337">
        <ele>1973.72</ele>
        <time>2020-06-11T12:35:26Z</time>
      </trkpt>
      <trkpt lat="45.40083" lon="6.19329">
        <ele>1975.65</ele>
        <time>2020-06-11T12:35:43Z</time>
      </trkpt>
      <trkpt lat="45.40083" lon="6.1932">
        <ele>1978.05</ele>
        <time>2020-06-11T12:36:00Z</time>
      </trkpt>
      <trkpt lat="45.40085" lon="6.19314">
        <ele>1977.57</ele>
        <time>2020-06-11T12:36:05Z</time>
      </trkpt>
      <trkpt lat="45.40086" lon="6.19313">
        <ele>1977.57</ele>
        <time>2020-06-11T12:36:06Z</time>
      </trkpt>
      <trkpt lat="45.40093" lon="6.19305">
        <ele>1977.57</ele>
        <time>2020-06-11T12:36:18Z</time>
      </trkpt>
      <trkpt lat="45.40095" lon="6.19301">
        <ele>1978.05</ele>
        <time>2020-06-11T12:36:22Z</time>
      </trkpt>
      <trkpt lat="45.40102" lon="6.19288">
        <ele>1979.49</ele>
        <time>2020-06-11T12:36:39Z</time>
      </trkpt>
      <trkpt lat="45.40106" lon="6.19283">
        <ele>1980.93</ele>
        <time>2020-06-11T12:36:51Z</time>
      </trkpt>
      <trkpt lat="45.40111" lon="6.19274">
        <ele>1982.38</ele>
        <time>2020-06-11T12:37:05Z</time>
      </trkpt>
      <trkpt lat="45.40115" lon="6.19261">
        <ele>1982.86</ele>
        <time>2020-06-11T12:37:19Z</time>
      </trkpt>
      <trkpt lat="45.4012" lon="6.19258">
        <ele>1984.3</ele>
        <time>2020-06-11T12:37:32Z</time>
      </trkpt>
      <trkpt lat="45.40126" lon="6.19251">
        <ele>1986.7</ele>
        <time>2020-06-11T12:37:47Z</time>
      </trkpt>
      <trkpt lat="45.40132" lon="6.19247">
        <ele>1989.1</ele>
        <time>2020-06-11T12:38:03Z</time>
      </trkpt>
      <trkpt lat="45.40137" lon="6.19239">
        <ele>1990.55</ele>
        <time>2020-06-11T12:38:19Z</time>
      </trkpt>
      <trkpt lat="45.40137" lon="6.19237">
        <ele>1990.55</ele>
        <time>2020-06-11T12:38:33Z</time>
      </trkpt>
      <trkpt lat="45.40137" lon="6.19239">
        <ele>1991.51</ele>
        <time>2020-06-11T12:38:57Z</time>
      </trkpt>
      <trkpt lat="45.40145" lon="6.1923">
        <ele>1990.55</ele>
        <time>2020-06-11T12:39:12Z</time>
      </trkpt>
      <trkpt lat="45.40155" lon="6.19228">
        <ele>1989.59</ele>
        <time>2020-06-11T12:39:28Z</time>
      </trkpt>
      <trkpt lat="45.40166" lon="6.19225">
        <ele>1989.59</ele>
        <time>2020-06-11T12:39:44Z</time>
      </trkpt>
      <trkpt lat="45.40173" lon="6.19217">
        <ele>1990.07</ele>
        <time>2020-06-11T12:39:58Z</time>
      </trkpt>
      <trkpt lat="45.40178" lon="6.1921">
        <ele>1990.07</ele>
        <time>2020-06-11T12:40:11Z</time>
      </trkpt>
      <trkpt lat="45.40185" lon="6.19205">
        <ele>1989.59</ele>
        <time>2020-06-11T12:40:27Z</time>
      </trkpt>
      <trkpt lat="45.40191" lon="6.19198">
        <ele>1987.66</ele>
        <time>2020-06-11T12:40:39Z</time>
      </trkpt>
      <trkpt lat="45.40196" lon="6.19189">
        <ele>1985.74</ele>
        <time>2020-06-11T12:40:55Z</time>
      </trkpt>
      <trkpt lat="45.40194" lon="6.19186">
        <ele>1982.38</ele>
        <time>2020-06-11T12:41:08Z</time>
      </trkpt>
      <trkpt lat="45.40197" lon="6.19178">
        <ele>1979.49</ele>
        <time>2020-06-11T12:41:20Z</time>
      </trkpt>
      <trkpt lat="45.40201" lon="6.1917">
        <ele>1976.61</ele>
        <time>2020-06-11T12:41:34Z</time>
      </trkpt>
      <trkpt lat="45.40206" lon="6.1916">
        <ele>1973.24</ele>
        <time>2020-06-11T12:41:49Z</time>
      </trkpt>
      <trkpt lat="45.40209" lon="6.19152">
        <ele>1970.84</ele>
        <time>2020-06-11T12:41:59Z</time>
      </trkpt>
      <trkpt lat="45.40214" lon="6.19146">
        <ele>1967.96</ele>
        <time>2020-06-11T12:42:12Z</time>
      </trkpt>
      <trkpt lat="45.40218" lon="6.19134">
        <ele>1965.07</ele>
        <time>2020-06-11T12:42:29Z</time>
      </trkpt>
      <trkpt lat="45.40218" lon="6.19133">
        <ele>1964.59</ele>
        <time>2020-06-11T12:42:31Z</time>
      </trkpt>
      <trkpt lat="45.40223" lon="6.19127">
        <ele>1961.23</ele>
        <time>2020-06-11T12:42:43Z</time>
      </trkpt>
      <trkpt lat="45.40228" lon="6.19119">
        <ele>1959.78</ele>
        <time>2020-06-11T12:42:57Z</time>
      </trkpt>
      <trkpt lat="45.40231" lon="6.19111">
        <ele>1957.86</ele>
        <time>2020-06-11T12:43:11Z</time>
      </trkpt>
      <trkpt lat="45.40235" lon="6.19106">
        <ele>1955.94</ele>
        <time>2020-06-11T12:43:26Z</time>
      </trkpt>
      <trkpt lat="45.40236" lon="6.19104">
        <ele>1954.02</ele>
        <time>2020-06-11T12:43:43Z</time>
      </trkpt>
      <trkpt lat="45.40236" lon="6.19097">
        <ele>1952.09</ele>
        <time>2020-06-11T12:44:01Z</time>
      </trkpt>
      <trkpt lat="45.40243" lon="6.19086">
        <ele>1949.69</ele>
        <time>2020-06-11T12:44:14Z</time>
      </trkpt>
      <trkpt lat="45.40251" lon="6.19076">
        <ele>1948.25</ele>
        <time>2020-06-11T12:44:28Z</time>
      </trkpt>
      <trkpt lat="45.40255" lon="6.19068">
        <ele>1945.85</ele>
        <time>2020-06-11T12:44:41Z</time>
      </trkpt>
      <trkpt lat="45.40256" lon="6.19066">
        <ele>1945.85</ele>
        <time>2020-06-11T12:44:42Z</time>
      </trkpt>
      <trkpt lat="45.40257" lon="6.19065">
        <ele>1945.36</ele>
        <time>2020-06-11T12:44:43Z</time>
      </trkpt>
      <trkpt lat="45.4026" lon="6.19062">
        <ele>1944.88</ele>
        <time>2020-06-11T12:44:47Z</time>
      </trkpt>
      <trkpt lat="45.40261" lon="6.19061">
        <ele>1944.88</ele>
        <time>2020-06-11T12:44:48Z</time>
      </trkpt>
      <trkpt lat="45.40271" lon="6.1905">
        <ele>1942.96</ele>
        <time>2020-06-11T12:45:03Z</time>
      </trkpt>
      <trkpt lat="45.40275" lon="6.19048">
        <ele>1942</ele>
        <time>2020-06-11T12:45:08Z</time>
      </trkpt>
      <trkpt lat="45.40287" lon="6.19037">
        <ele>1940.56</ele>
        <time>2020-06-11T12:45:23Z</time>
      </trkpt>
      <trkpt lat="45.40303" lon="6.19027">
        <ele>1938.64</ele>
        <time>2020-06-11T12:45:41Z</time>
      </trkpt>
      <trkpt lat="45.40304" lon="6.19027">
        <ele>1938.16</ele>
        <time>2020-06-11T12:45:42Z</time>
      </trkpt>
      <trkpt lat="45.40315" lon="6.19024">
        <ele>1936.23</ele>
        <time>2020-06-11T12:45:57Z</time>
      </trkpt>
      <trkpt lat="45.40326" lon="6.19016">
        <ele>1934.31</ele>
        <time>2020-06-11T12:46:13Z</time>
      </trkpt>
      <trkpt lat="45.40336" lon="6.19015">
        <ele>1931.91</ele>
        <time>2020-06-11T12:46:29Z</time>
      </trkpt>
      <trkpt lat="45.40337" lon="6.19014">
        <ele>1931.43</ele>
        <time>2020-06-11T12:46:30Z</time>
      </trkpt>
      <trkpt lat="45.4034" lon="6.19008">
        <ele>1930.95</ele>
        <time>2020-06-11T12:46:38Z</time>
      </trkpt>
      <trkpt lat="45.40343" lon="6.19004">
        <ele>1930.46</ele>
        <time>2020-06-11T12:46:51Z</time>
      </trkpt>
      <trkpt lat="45.40351" lon="6.18995">
        <ele>1928.54</ele>
        <time>2020-06-11T12:47:10Z</time>
      </trkpt>
      <trkpt lat="45.40357" lon="6.1899">
        <ele>1926.62</ele>
        <time>2020-06-11T12:47:20Z</time>
      </trkpt>
      <trkpt lat="45.40364" lon="6.18985">
        <ele>1925.66</ele>
        <time>2020-06-11T12:47:34Z</time>
      </trkpt>
      <trkpt lat="45.40373" lon="6.18981">
        <ele>1926.62</ele>
        <time>2020-06-11T12:47:45Z</time>
      </trkpt>
      <trkpt lat="45.40381" lon="6.18978">
        <ele>1926.14</ele>
        <time>2020-06-11T12:47:58Z</time>
      </trkpt>
      <trkpt lat="45.40383" lon="6.18977">
        <ele>1926.14</ele>
        <time>2020-06-11T12:47:59Z</time>
      </trkpt>
      <trkpt lat="45.40393" lon="6.18968">
        <ele>1925.18</ele>
        <time>2020-06-11T12:48:14Z</time>
      </trkpt>
      <trkpt lat="45.404" lon="6.18964">
        <ele>1924.7</ele>
        <time>2020-06-11T12:48:26Z</time>
      </trkpt>
      <trkpt lat="45.40408" lon="6.18963">
        <ele>1924.22</ele>
        <time>2020-06-11T12:48:41Z</time>
      </trkpt>
      <trkpt lat="45.40413" lon="6.18964">
        <ele>1922.77</ele>
        <time>2020-06-11T12:48:53Z</time>
      </trkpt>
      <trkpt lat="45.40416" lon="6.18963">
        <ele>1921.33</ele>
        <time>2020-06-11T12:48:59Z</time>
      </trkpt>
      <trkpt lat="45.40418" lon="6.18963">
        <ele>1920.85</ele>
        <time>2020-06-11T12:49:00Z</time>
      </trkpt>
      <trkpt lat="45.40426" lon="6.18962">
        <ele>1918.93</ele>
        <time>2020-06-11T12:49:10Z</time>
      </trkpt>
      <trkpt lat="45.40435" lon="6.18959">
        <ele>1917.49</ele>
        <time>2020-06-11T12:49:21Z</time>
      </trkpt>
      <trkpt lat="45.40436" lon="6.18959">
        <ele>1917.49</ele>
        <time>2020-06-11T12:49:22Z</time>
      </trkpt>
      <trkpt lat="45.40437" lon="6.18959">
        <ele>1917.49</ele>
        <time>2020-06-11T12:49:23Z</time>
      </trkpt>
      <trkpt lat="45.40445" lon="6.1896">
        <ele>1917.01</ele>
        <time>2020-06-11T12:49:37Z</time>
      </trkpt>
      <trkpt lat="45.40454" lon="6.18959">
        <ele>1917.01</ele>
        <time>2020-06-11T12:49:53Z</time>
      </trkpt>
      <trkpt lat="45.40453" lon="6.18954">
        <ele>1917.01</ele>
        <time>2020-06-11T12:50:04Z</time>
      </trkpt>
      <trkpt lat="45.40456" lon="6.18945">
        <ele>1914.6</ele>
        <time>2020-06-11T12:50:17Z</time>
      </trkpt>
      <trkpt lat="45.40461" lon="6.18939">
        <ele>1913.64</ele>
        <time>2020-06-11T12:50:24Z</time>
      </trkpt>
      <trkpt lat="45.40472" lon="6.18929">
        <ele>1913.16</ele>
        <time>2020-06-11T12:50:39Z</time>
      </trkpt>
      <trkpt lat="45.40481" lon="6.18923">
        <ele>1911.72</ele>
        <time>2020-06-11T12:50:57Z</time>
      </trkpt>
      <trkpt lat="45.40483" lon="6.18922">
        <ele>1910.28</ele>
        <time>2020-06-11T12:51:16Z</time>
      </trkpt>
      <trkpt lat="45.40485" lon="6.1892">
        <ele>1908.83</ele>
        <time>2020-06-11T12:51:34Z</time>
      </trkpt>
      <trkpt lat="45.40494" lon="6.18919">
        <ele>1905.47</ele>
        <time>2020-06-11T12:51:50Z</time>
      </trkpt>
      <trkpt lat="45.405" lon="6.18915">
        <ele>1904.51</ele>
        <time>2020-06-11T12:51:59Z</time>
      </trkpt>
      <trkpt lat="45.40501" lon="6.18915">
        <ele>1904.03</ele>
        <time>2020-06-11T12:52:00Z</time>
      </trkpt>
      <trkpt lat="45.40506" lon="6.18913">
        <ele>1903.55</ele>
        <time>2020-06-11T12:52:06Z</time>
      </trkpt>
      <trkpt lat="45.40511" lon="6.18912">
        <ele>1901.63</ele>
        <time>2020-06-11T12:52:22Z</time>
      </trkpt>
      <trkpt lat="45.40512" lon="6.18912">
        <ele>1900.66</ele>
        <time>2020-06-11T12:52:46Z</time>
      </trkpt>
      <trkpt lat="45.4052" lon="6.18906">
        <ele>1900.18</ele>
        <time>2020-06-11T12:53:05Z</time>
      </trkpt>
      <trkpt lat="45.40526" lon="6.18903">
        <ele>1899.22</ele>
        <time>2020-06-11T12:53:12Z</time>
      </trkpt>
      <trkpt lat="45.40527" lon="6.18903">
        <ele>1899.22</ele>
        <time>2020-06-11T12:53:13Z</time>
      </trkpt>
      <trkpt lat="45.40536" lon="6.18897">
        <ele>1897.3</ele>
        <time>2020-06-11T12:53:26Z</time>
      </trkpt>
      <trkpt lat="45.4054" lon="6.18893">
        <ele>1893.93</ele>
        <time>2020-06-11T12:53:33Z</time>
      </trkpt>
      <trkpt lat="45.40544" lon="6.18886">
        <ele>1896.34</ele>
        <time>2020-06-11T12:53:45Z</time>
      </trkpt>
      <trkpt lat="45.40548" lon="6.18881">
        <ele>1892.97</ele>
        <time>2020-06-11T12:53:54Z</time>
      </trkpt>
      <trkpt lat="45.40556" lon="6.18876">
        <ele>1890.09</ele>
        <time>2020-06-11T12:54:04Z</time>
      </trkpt>
      <trkpt lat="45.40559" lon="6.18871">
        <ele>1890.09</ele>
        <time>2020-06-11T12:54:18Z</time>
      </trkpt>
      <trkpt lat="45.40564" lon="6.18869">
        <ele>1884.32</ele>
        <time>2020-06-11T12:54:26Z</time>
      </trkpt>
      <trkpt lat="45.40564" lon="6.18868">
        <ele>1884.32</ele>
        <time>2020-06-11T12:54:27Z</time>
      </trkpt>
      <trkpt lat="45.40569" lon="6.18867">
        <ele>1886.72</ele>
        <time>2020-06-11T12:54:34Z</time>
      </trkpt>
      <trkpt lat="45.40574" lon="6.18866">
        <ele>1883.36</ele>
        <time>2020-06-11T12:54:40Z</time>
      </trkpt>
      <trkpt lat="45.40586" lon="6.18858">
        <ele>1880.96</ele>
        <time>2020-06-11T12:54:57Z</time>
      </trkpt>
      <trkpt lat="45.40588" lon="6.18857">
        <ele>1880.48</ele>
        <time>2020-06-11T12:54:59Z</time>
      </trkpt>
      <trkpt lat="45.40592" lon="6.18854">
        <ele>1877.59</ele>
        <time>2020-06-11T12:55:13Z</time>
      </trkpt>
      <trkpt lat="45.40598" lon="6.18847">
        <ele>1879.03</ele>
        <time>2020-06-11T12:55:23Z</time>
      </trkpt>
      <trkpt lat="45.40601" lon="6.18846">
        <ele>1875.67</ele>
        <time>2020-06-11T12:55:26Z</time>
      </trkpt>
      <trkpt lat="45.40612" lon="6.18832">
        <ele>1874.23</ele>
        <time>2020-06-11T12:55:46Z</time>
      </trkpt>
      <trkpt lat="45.40615" lon="6.18828">
        <ele>1872.79</ele>
        <time>2020-06-11T12:55:53Z</time>
      </trkpt>
      <trkpt lat="45.40617" lon="6.18821">
        <ele>1873.27</ele>
        <time>2020-06-11T12:56:03Z</time>
      </trkpt>
      <trkpt lat="45.40618" lon="6.18819">
        <ele>1871.34</ele>
        <time>2020-06-11T12:56:07Z</time>
      </trkpt>
      <trkpt lat="45.40621" lon="6.18812">
        <ele>1871.82</ele>
        <time>2020-06-11T12:56:21Z</time>
      </trkpt>
      <trkpt lat="45.40624" lon="6.18808">
        <ele>1868.46</ele>
        <time>2020-06-11T12:56:30Z</time>
      </trkpt>
      <trkpt lat="45.40625" lon="6.18805">
        <ele>1867.02</ele>
        <time>2020-06-11T12:56:42Z</time>
      </trkpt>
      <trkpt lat="45.40626" lon="6.18805">
        <ele>1866.54</ele>
        <time>2020-06-11T12:57:03Z</time>
      </trkpt>
      <trkpt lat="45.40625" lon="6.18804">
        <ele>1866.54</ele>
        <time>2020-06-11T12:57:30Z</time>
      </trkpt>
      <trkpt lat="45.40625" lon="6.18805">
        <ele>1866.54</ele>
        <time>2020-06-11T12:58:00Z</time>
      </trkpt>
      <trkpt lat="45.40625" lon="6.18805">
        <ele>1867.5</ele>
        <time>2020-06-11T12:58:32Z</time>
      </trkpt>
      <trkpt lat="45.40625" lon="6.18805">
        <ele>1867.02</ele>
        <time>2020-06-11T12:59:06Z</time>
      </trkpt>
      <trkpt lat="45.40624" lon="6.18805">
        <ele>1864.61</ele>
        <time>2020-06-11T12:59:54Z</time>
      </trkpt>
      <trkpt lat="45.40625" lon="6.18805">
        <ele>1861.25</ele>
        <time>2020-06-11T13:00:05Z</time>
      </trkpt>
      <trkpt lat="45.40625" lon="6.18805">
        <ele>1860.77</ele>
        <time>2020-06-11T13:00:06Z</time>
      </trkpt>
      <trkpt lat="45.40625" lon="6.18805">
        <ele>1864.61</ele>
        <time>2020-06-11T13:00:09Z</time>
      </trkpt>
      <trkpt lat="45.40625" lon="6.18805">
        <ele>1865.58</ele>
        <time>2020-06-11T13:00:48Z</time>
      </trkpt>
      <trkpt lat="45.40625" lon="6.18806">
        <ele>1862.21</ele>
        <time>2020-06-11T13:01:00Z</time>
      </trkpt>
      <trkpt lat="45.40625" lon="6.18807">
        <ele>1860.29</ele>
        <time>2020-06-11T13:01:03Z</time>
      </trkpt>
      <trkpt lat="45.40625" lon="6.18807">
        <ele>1863.17</ele>
        <time>2020-06-11T13:01:08Z</time>
      </trkpt>
      <trkpt lat="45.40625" lon="6.18805">
        <ele>1867.5</ele>
        <time>2020-06-11T13:01:18Z</time>
      </trkpt>
      <trkpt lat="45.40625" lon="6.18805">
        <ele>1866.06</ele>
        <time>2020-06-11T13:01:44Z</time>
      </trkpt>
      <trkpt lat="45.40626" lon="6.18804">
        <ele>1866.06</ele>
        <time>2020-06-11T13:02:08Z</time>
      </trkpt>
      <trkpt lat="45.40628" lon="6.18798">
        <ele>1865.58</ele>
        <time>2020-06-11T13:02:21Z</time>
      </trkpt>
      <trkpt lat="45.4063" lon="6.18789">
        <ele>1865.58</ele>
        <time>2020-06-11T13:02:36Z</time>
      </trkpt>
      <trkpt lat="45.40636" lon="6.18778">
        <ele>1864.13</ele>
        <time>2020-06-11T13:02:51Z</time>
      </trkpt>
      <trkpt lat="45.40643" lon="6.18771">
        <ele>1863.17</ele>
        <time>2020-06-11T13:03:05Z</time>
      </trkpt>
      <trkpt lat="45.40644" lon="6.18762">
        <ele>1862.69</ele>
        <time>2020-06-11T13:03:20Z</time>
      </trkpt>
      <trkpt lat="45.40643" lon="6.18755">
        <ele>1862.21</ele>
        <time>2020-06-11T13:03:33Z</time>
      </trkpt>
      <trkpt lat="45.40647" lon="6.18747">
        <ele>1861.73</ele>
        <time>2020-06-11T13:03:45Z</time>
      </trkpt>
      <trkpt lat="45.40656" lon="6.18739">
        <ele>1863.65</ele>
        <time>2020-06-11T13:04:01Z</time>
      </trkpt>
      <trkpt lat="45.40664" lon="6.18733">
        <ele>1863.65</ele>
        <time>2020-06-11T13:04:14Z</time>
      </trkpt>
      <trkpt lat="45.4067" lon="6.18725">
        <ele>1863.17</ele>
        <time>2020-06-11T13:04:24Z</time>
      </trkpt>
      <trkpt lat="45.40675" lon="6.1872">
        <ele>1863.17</ele>
        <time>2020-06-11T13:04:32Z</time>
      </trkpt>
      <trkpt lat="45.40683" lon="6.18714">
        <ele>1863.17</ele>
        <time>2020-06-11T13:04:45Z</time>
      </trkpt>
      <trkpt lat="45.40693" lon="6.1871">
        <ele>1862.69</ele>
        <time>2020-06-11T13:05:01Z</time>
      </trkpt>
      <trkpt lat="45.40697" lon="6.18705">
        <ele>1861.25</ele>
        <time>2020-06-11T13:05:13Z</time>
      </trkpt>
      <trkpt lat="45.407" lon="6.18697">
        <ele>1859.33</ele>
        <time>2020-06-11T13:05:27Z</time>
      </trkpt>
      <trkpt lat="45.40702" lon="6.18693">
        <ele>1858.37</ele>
        <time>2020-06-11T13:05:32Z</time>
      </trkpt>
      <trkpt lat="45.40703" lon="6.18691">
        <ele>1858.37</ele>
        <time>2020-06-11T13:05:33Z</time>
      </trkpt>
      <trkpt lat="45.4071" lon="6.18683">
        <ele>1856.92</ele>
        <time>2020-06-11T13:05:47Z</time>
      </trkpt>
      <trkpt lat="45.40715" lon="6.18679">
        <ele>1855.96</ele>
        <time>2020-06-11T13:06:00Z</time>
      </trkpt>
      <trkpt lat="45.40726" lon="6.18674">
        <ele>1854.04</ele>
        <time>2020-06-11T13:06:15Z</time>
      </trkpt>
      <trkpt lat="45.40733" lon="6.18675">
        <ele>1852.6</ele>
        <time>2020-06-11T13:06:28Z</time>
      </trkpt>
      <trkpt lat="45.40737" lon="6.18673">
        <ele>1852.12</ele>
        <time>2020-06-11T13:06:44Z</time>
      </trkpt>
      <trkpt lat="45.4074" lon="6.18665">
        <ele>1850.68</ele>
        <time>2020-06-11T13:06:58Z</time>
      </trkpt>
      <trkpt lat="45.40746" lon="6.18657">
        <ele>1848.75</ele>
        <time>2020-06-11T13:07:13Z</time>
      </trkpt>
      <trkpt lat="45.4075" lon="6.18657">
        <ele>1847.79</ele>
        <time>2020-06-11T13:07:18Z</time>
      </trkpt>
      <trkpt lat="45.40757" lon="6.18652">
        <ele>1848.27</ele>
        <time>2020-06-11T13:07:33Z</time>
      </trkpt>
      <trkpt lat="45.40759" lon="6.18651">
        <ele>1848.75</ele>
        <time>2020-06-11T13:07:50Z</time>
      </trkpt>
      <trkpt lat="45.40762" lon="6.18647">
        <ele>1849.23</ele>
        <time>2020-06-11T13:08:03Z</time>
      </trkpt>
      <trkpt lat="45.40769" lon="6.18634">
        <ele>1849.71</ele>
        <time>2020-06-11T13:08:19Z</time>
      </trkpt>
      <trkpt lat="45.40778" lon="6.18629">
        <ele>1850.68</ele>
        <time>2020-06-11T13:08:33Z</time>
      </trkpt>
      <trkpt lat="45.40783" lon="6.18623">
        <ele>1853.08</ele>
        <time>2020-06-11T13:08:47Z</time>
      </trkpt>
      <trkpt lat="45.40786" lon="6.18615">
        <ele>1854.04</ele>
        <time>2020-06-11T13:09:03Z</time>
      </trkpt>
      <trkpt lat="45.40788" lon="6.18613">
        <ele>1855</ele>
        <time>2020-06-11T13:09:20Z</time>
      </trkpt>
      <trkpt lat="45.40789" lon="6.18612">
        <ele>1855.48</ele>
        <time>2020-06-11T13:09:39Z</time>
      </trkpt>
      <trkpt lat="45.40789" lon="6.18611">
        <ele>1855</ele>
        <time>2020-06-11T13:10:06Z</time>
      </trkpt>
      <trkpt lat="45.40787" lon="6.18606">
        <ele>1855</ele>
        <time>2020-06-11T13:10:22Z</time>
      </trkpt>
      <trkpt lat="45.40787" lon="6.18603">
        <ele>1854.52</ele>
        <time>2020-06-11T13:10:49Z</time>
      </trkpt>
      <trkpt lat="45.40787" lon="6.18601">
        <ele>1854.04</ele>
        <time>2020-06-11T13:11:07Z</time>
      </trkpt>
      <trkpt lat="45.40783" lon="6.18594">
        <ele>1852.6</ele>
        <time>2020-06-11T13:11:21Z</time>
      </trkpt>
      <trkpt lat="45.4078" lon="6.18578">
        <ele>1850.19</ele>
        <time>2020-06-11T13:11:36Z</time>
      </trkpt>
      <trkpt lat="45.4078" lon="6.18561">
        <ele>1846.83</ele>
        <time>2020-06-11T13:11:50Z</time>
      </trkpt>
      <trkpt lat="45.40779" lon="6.18547">
        <ele>1844.91</ele>
        <time>2020-06-11T13:12:06Z</time>
      </trkpt>
      <trkpt lat="45.40776" lon="6.18548">
        <ele>1844.43</ele>
        <time>2020-06-11T13:12:18Z</time>
      </trkpt>
      <trkpt lat="45.4077" lon="6.18538">
        <ele>1841.06</ele>
        <time>2020-06-11T13:12:34Z</time>
      </trkpt>
      <trkpt lat="45.40761" lon="6.18534">
        <ele>1837.7</ele>
        <time>2020-06-11T13:12:47Z</time>
      </trkpt>
      <trkpt lat="45.40755" lon="6.1853">
        <ele>1834.81</ele>
        <time>2020-06-11T13:12:59Z</time>
      </trkpt>
      <trkpt lat="45.40756" lon="6.18537">
        <ele>1832.89</ele>
        <time>2020-06-11T13:13:17Z</time>
      </trkpt>
      <trkpt lat="45.40756" lon="6.18537">
        <ele>1836.26</ele>
        <time>2020-06-11T13:13:34Z</time>
      </trkpt>
      <trkpt lat="45.40754" lon="6.18532">
        <ele>1833.85</ele>
        <time>2020-06-11T13:13:58Z</time>
      </trkpt>
      <trkpt lat="45.40754" lon="6.18531">
        <ele>1833.37</ele>
        <time>2020-06-11T13:14:30Z</time>
      </trkpt>
      <trkpt lat="45.40761" lon="6.18536">
        <ele>1833.37</ele>
        <time>2020-06-11T13:14:45Z</time>
      </trkpt>
      <trkpt lat="45.40768" lon="6.18537">
        <ele>1834.81</ele>
        <time>2020-06-11T13:14:59Z</time>
      </trkpt>
      <trkpt lat="45.40773" lon="6.18537">
        <ele>1837.22</ele>
        <time>2020-06-11T13:15:13Z</time>
      </trkpt>
      <trkpt lat="45.40776" lon="6.18536">
        <ele>1839.62</ele>
        <time>2020-06-11T13:15:26Z</time>
      </trkpt>
      <trkpt lat="45.4078" lon="6.1853">
        <ele>1841.54</ele>
        <time>2020-06-11T13:15:40Z</time>
      </trkpt>
      <trkpt lat="45.4078" lon="6.18517">
        <ele>1844.43</ele>
        <time>2020-06-11T13:15:57Z</time>
      </trkpt>
      <trkpt lat="45.40784" lon="6.18515">
        <ele>1845.39</ele>
        <time>2020-06-11T13:16:04Z</time>
      </trkpt>
      <trkpt lat="45.40791" lon="6.18509">
        <ele>1846.35</ele>
        <time>2020-06-11T13:16:13Z</time>
      </trkpt>
      <trkpt lat="45.40792" lon="6.18507">
        <ele>1846.35</ele>
        <time>2020-06-11T13:16:15Z</time>
      </trkpt>
      <trkpt lat="45.408" lon="6.18506">
        <ele>1847.79</ele>
        <time>2020-06-11T13:16:28Z</time>
      </trkpt>
      <trkpt lat="45.40808" lon="6.18505">
        <ele>1849.23</ele>
        <time>2020-06-11T13:16:36Z</time>
      </trkpt>
      <trkpt lat="45.40814" lon="6.18504">
        <ele>1849.71</ele>
        <time>2020-06-11T13:16:44Z</time>
      </trkpt>
      <trkpt lat="45.40826" lon="6.18499">
        <ele>1851.64</ele>
        <time>2020-06-11T13:16:59Z</time>
      </trkpt>
      <trkpt lat="45.40835" lon="6.18497">
        <ele>1853.08</ele>
        <time>2020-06-11T13:17:11Z</time>
      </trkpt>
      <trkpt lat="45.40847" lon="6.18501">
        <ele>1855</ele>
        <time>2020-06-11T13:17:27Z</time>
      </trkpt>
      <trkpt lat="45.40848" lon="6.18498">
        <ele>1855</ele>
        <time>2020-06-11T13:17:30Z</time>
      </trkpt>
      <trkpt lat="45.40852" lon="6.18496">
        <ele>1855</ele>
        <time>2020-06-11T13:17:35Z</time>
      </trkpt>
      <trkpt lat="45.40865" lon="6.18494">
        <ele>1855.96</ele>
        <time>2020-06-11T13:17:49Z</time>
      </trkpt>
      <trkpt lat="45.40877" lon="6.18489">
        <ele>1855.48</ele>
        <time>2020-06-11T13:18:01Z</time>
      </trkpt>
      <trkpt lat="45.40887" lon="6.18481">
        <ele>1856.44</ele>
        <time>2020-06-11T13:18:17Z</time>
      </trkpt>
      <trkpt lat="45.40895" lon="6.18479">
        <ele>1857.89</ele>
        <time>2020-06-11T13:18:25Z</time>
      </trkpt>
      <trkpt lat="45.40898" lon="6.18478">
        <ele>1857.89</ele>
        <time>2020-06-11T13:18:28Z</time>
      </trkpt>
      <trkpt lat="45.40905" lon="6.18478">
        <ele>1858.85</ele>
        <time>2020-06-11T13:18:36Z</time>
      </trkpt>
      <trkpt lat="45.40917" lon="6.18476">
        <ele>1860.29</ele>
        <time>2020-06-11T13:18:51Z</time>
      </trkpt>
      <trkpt lat="45.40928" lon="6.18472">
        <ele>1862.21</ele>
        <time>2020-06-11T13:19:06Z</time>
      </trkpt>
      <trkpt lat="45.40945" lon="6.18474">
        <ele>1864.13</ele>
        <time>2020-06-11T13:19:24Z</time>
      </trkpt>
      <trkpt lat="45.40963" lon="6.18478">
        <ele>1865.09</ele>
        <time>2020-06-11T13:19:42Z</time>
      </trkpt>
      <trkpt lat="45.40968" lon="6.18478">
        <ele>1865.09</ele>
        <time>2020-06-11T13:19:47Z</time>
      </trkpt>
      <trkpt lat="45.4098" lon="6.18474">
        <ele>1866.54</ele>
        <time>2020-06-11T13:20:03Z</time>
      </trkpt>
      <trkpt lat="45.40981" lon="6.18474">
        <ele>1866.54</ele>
        <time>2020-06-11T13:20:04Z</time>
      </trkpt>
      <trkpt lat="45.40984" lon="6.18473">
        <ele>1866.54</ele>
        <time>2020-06-11T13:20:07Z</time>
      </trkpt>
      <trkpt lat="45.41004" lon="6.18477">
        <ele>1864.13</ele>
        <time>2020-06-11T13:20:26Z</time>
      </trkpt>
      <trkpt lat="45.41017" lon="6.18467">
        <ele>1863.65</ele>
        <time>2020-06-11T13:20:42Z</time>
      </trkpt>
      <trkpt lat="45.41019" lon="6.18466">
        <ele>1862.21</ele>
        <time>2020-06-11T13:20:45Z</time>
      </trkpt>
      <trkpt lat="45.41023" lon="6.18466">
        <ele>1866.06</ele>
        <time>2020-06-11T13:20:49Z</time>
      </trkpt>
      <trkpt lat="45.41024" lon="6.18465">
        <ele>1866.54</ele>
        <time>2020-06-11T13:20:51Z</time>
      </trkpt>
      <trkpt lat="45.4103" lon="6.18463">
        <ele>1867.02</ele>
        <time>2020-06-11T13:21:00Z</time>
      </trkpt>
      <trkpt lat="45.41031" lon="6.1846">
        <ele>1870.38</ele>
        <time>2020-06-11T13:21:16Z</time>
      </trkpt>
      <trkpt lat="45.41031" lon="6.1846">
        <ele>1871.34</ele>
        <time>2020-06-11T13:21:18Z</time>
      </trkpt>
      <trkpt lat="45.41034" lon="6.18458">
        <ele>1868.94</ele>
        <time>2020-06-11T13:21:37Z</time>
      </trkpt>
      <trkpt lat="45.41041" lon="6.18457">
        <ele>1867.98</ele>
        <time>2020-06-11T13:21:46Z</time>
      </trkpt>
      <trkpt lat="45.41042" lon="6.18457">
        <ele>1867.98</ele>
        <time>2020-06-11T13:21:47Z</time>
      </trkpt>
      <trkpt lat="45.41043" lon="6.18457">
        <ele>1867.98</ele>
        <time>2020-06-11T13:21:48Z</time>
      </trkpt>
      <trkpt lat="45.41056" lon="6.18453">
        <ele>1867.5</ele>
        <time>2020-06-11T13:22:02Z</time>
      </trkpt>
      <trkpt lat="45.41071" lon="6.18446">
        <ele>1867.5</ele>
        <time>2020-06-11T13:22:18Z</time>
      </trkpt>
      <trkpt lat="45.41087" lon="6.18449">
        <ele>1866.54</ele>
        <time>2020-06-11T13:22:33Z</time>
      </trkpt>
      <trkpt lat="45.411" lon="6.18454">
        <ele>1867.02</ele>
        <time>2020-06-11T13:22:48Z</time>
      </trkpt>
      <trkpt lat="45.41101" lon="6.18453">
        <ele>1867.02</ele>
        <time>2020-06-11T13:22:49Z</time>
      </trkpt>
      <trkpt lat="45.41105" lon="6.18453">
        <ele>1867.02</ele>
        <time>2020-06-11T13:22:53Z</time>
      </trkpt>
      <trkpt lat="45.41115" lon="6.18454">
        <ele>1867.98</ele>
        <time>2020-06-11T13:23:05Z</time>
      </trkpt>
      <trkpt lat="45.41126" lon="6.18455">
        <ele>1869.9</ele>
        <time>2020-06-11T13:23:18Z</time>
      </trkpt>
      <trkpt lat="45.41127" lon="6.18455">
        <ele>1869.9</ele>
        <time>2020-06-11T13:23:19Z</time>
      </trkpt>
      <trkpt lat="45.41137" lon="6.18457">
        <ele>1867.98</ele>
        <time>2020-06-11T13:23:29Z</time>
      </trkpt>
      <trkpt lat="45.41141" lon="6.18456">
        <ele>1870.86</ele>
        <time>2020-06-11T13:23:34Z</time>
      </trkpt>
      <trkpt lat="45.41142" lon="6.18456">
        <ele>1872.3</ele>
        <time>2020-06-11T13:23:35Z</time>
      </trkpt>
      <trkpt lat="45.4115" lon="6.18455">
        <ele>1874.71</ele>
        <time>2020-06-11T13:23:44Z</time>
      </trkpt>
      <trkpt lat="45.41151" lon="6.18455">
        <ele>1874.71</ele>
        <time>2020-06-11T13:23:45Z</time>
      </trkpt>
      <trkpt lat="45.41159" lon="6.18454">
        <ele>1874.23</ele>
        <time>2020-06-11T13:23:57Z</time>
      </trkpt>
      <trkpt lat="45.41162" lon="6.18451">
        <ele>1874.71</ele>
        <time>2020-06-11T13:24:06Z</time>
      </trkpt>
      <trkpt lat="45.41168" lon="6.18449">
        <ele>1874.71</ele>
        <time>2020-06-11T13:24:12Z</time>
      </trkpt>
      <trkpt lat="45.41169" lon="6.18449">
        <ele>1874.71</ele>
        <time>2020-06-11T13:24:13Z</time>
      </trkpt>
      <trkpt lat="45.41179" lon="6.18443">
        <ele>1874.71</ele>
        <time>2020-06-11T13:24:26Z</time>
      </trkpt>
      <trkpt lat="45.4118" lon="6.18442">
        <ele>1874.71</ele>
        <time>2020-06-11T13:24:27Z</time>
      </trkpt>
      <trkpt lat="45.41181" lon="6.18441">
        <ele>1874.71</ele>
        <time>2020-06-11T13:24:28Z</time>
      </trkpt>
      <trkpt lat="45.41185" lon="6.18437">
        <ele>1874.71</ele>
        <time>2020-06-11T13:24:35Z</time>
      </trkpt>
      <trkpt lat="45.41194" lon="6.18426">
        <ele>1874.23</ele>
        <time>2020-06-11T13:24:48Z</time>
      </trkpt>
      <trkpt lat="45.41196" lon="6.18425">
        <ele>1874.23</ele>
        <time>2020-06-11T13:24:51Z</time>
      </trkpt>
      <trkpt lat="45.41209" lon="6.18418">
        <ele>1873.75</ele>
        <time>2020-06-11T13:25:04Z</time>
      </trkpt>
      <trkpt lat="45.4121" lon="6.18417">
        <ele>1873.75</ele>
        <time>2020-06-11T13:25:05Z</time>
      </trkpt>
      <trkpt lat="45.41222" lon="6.18404">
        <ele>1872.3</ele>
        <time>2020-06-11T13:25:21Z</time>
      </trkpt>
      <trkpt lat="45.41231" lon="6.18404">
        <ele>1871.34</ele>
        <time>2020-06-11T13:25:31Z</time>
      </trkpt>
      <trkpt lat="45.41232" lon="6.18403">
        <ele>1871.34</ele>
        <time>2020-06-11T13:25:32Z</time>
      </trkpt>
      <trkpt lat="45.41233" lon="6.18401">
        <ele>1870.86</ele>
        <time>2020-06-11T13:25:33Z</time>
      </trkpt>
      <trkpt lat="45.41234" lon="6.18399">
        <ele>1870.86</ele>
        <time>2020-06-11T13:25:35Z</time>
      </trkpt>
      <trkpt lat="45.41235" lon="6.18398">
        <ele>1870.86</ele>
        <time>2020-06-11T13:25:36Z</time>
      </trkpt>
      <trkpt lat="45.41243" lon="6.1839">
        <ele>1870.86</ele>
        <time>2020-06-11T13:25:45Z</time>
      </trkpt>
      <trkpt lat="45.41244" lon="6.18389">
        <ele>1870.86</ele>
        <time>2020-06-11T13:25:46Z</time>
      </trkpt>
      <trkpt lat="45.41245" lon="6.18388">
        <ele>1870.86</ele>
        <time>2020-06-11T13:25:47Z</time>
      </trkpt>
      <trkpt lat="45.41248" lon="6.18384">
        <ele>1870.86</ele>
        <time>2020-06-11T13:25:51Z</time>
      </trkpt>
      <trkpt lat="45.41258" lon="6.18372">
        <ele>1870.86</ele>
        <time>2020-06-11T13:26:05Z</time>
      </trkpt>
      <trkpt lat="45.41268" lon="6.18357">
        <ele>1870.38</ele>
        <time>2020-06-11T13:26:19Z</time>
      </trkpt>
      <trkpt lat="45.41269" lon="6.18354">
        <ele>1870.38</ele>
        <time>2020-06-11T13:26:21Z</time>
      </trkpt>
      <trkpt lat="45.41269" lon="6.18353">
        <ele>1870.38</ele>
        <time>2020-06-11T13:26:22Z</time>
      </trkpt>
      <trkpt lat="45.41275" lon="6.18339">
        <ele>1870.38</ele>
        <time>2020-06-11T13:26:36Z</time>
      </trkpt>
      <trkpt lat="45.41275" lon="6.18338">
        <ele>1869.9</ele>
        <time>2020-06-11T13:27:01Z</time>
      </trkpt>
      <trkpt lat="45.41277" lon="6.18332">
        <ele>1869.42</ele>
        <time>2020-06-11T13:27:53Z</time>
      </trkpt>
      <trkpt lat="45.41279" lon="6.18317">
        <ele>1867.02</ele>
        <time>2020-06-11T13:28:09Z</time>
      </trkpt>
      <trkpt lat="45.41287" lon="6.18305">
        <ele>1863.65</ele>
        <time>2020-06-11T13:28:24Z</time>
      </trkpt>
      <trkpt lat="45.41294" lon="6.18286">
        <ele>1861.25</ele>
        <time>2020-06-11T13:28:42Z</time>
      </trkpt>
      <trkpt lat="45.41299" lon="6.18263">
        <ele>1859.33</ele>
        <time>2020-06-11T13:29:04Z</time>
      </trkpt>
      <trkpt lat="45.41301" lon="6.18238">
        <ele>1858.85</ele>
        <time>2020-06-11T13:29:24Z</time>
      </trkpt>
      <trkpt lat="45.41304" lon="6.18227">
        <ele>1858.85</ele>
        <time>2020-06-11T13:29:34Z</time>
      </trkpt>
      <trkpt lat="45.41312" lon="6.18219">
        <ele>1858.85</ele>
        <time>2020-06-11T13:29:47Z</time>
      </trkpt>
      <trkpt lat="45.41317" lon="6.18209">
        <ele>1857.4</ele>
        <time>2020-06-11T13:30:04Z</time>
      </trkpt>
      <trkpt lat="45.41317" lon="6.18209">
        <ele>1854.52</ele>
        <time>2020-06-11T13:30:19Z</time>
      </trkpt>
      <trkpt lat="45.41317" lon="6.18209">
        <ele>1852.6</ele>
        <time>2020-06-11T13:30:22Z</time>
      </trkpt>
      <trkpt lat="45.41317" lon="6.18208">
        <ele>1857.89</ele>
        <time>2020-06-11T13:30:29Z</time>
      </trkpt>
      <trkpt lat="45.41316" lon="6.18208">
        <ele>1859.81</ele>
        <time>2020-06-11T13:30:32Z</time>
      </trkpt>
      <trkpt lat="45.41319" lon="6.18196">
        <ele>1856.92</ele>
        <time>2020-06-11T13:30:50Z</time>
      </trkpt>
      <trkpt lat="45.41321" lon="6.18189">
        <ele>1856.92</ele>
        <time>2020-06-11T13:30:55Z</time>
      </trkpt>
      <trkpt lat="45.41324" lon="6.18171">
        <ele>1856.92</ele>
        <time>2020-06-11T13:31:10Z</time>
      </trkpt>
      <trkpt lat="45.41326" lon="6.18158">
        <ele>1856.92</ele>
        <time>2020-06-11T13:31:21Z</time>
      </trkpt>
      <trkpt lat="45.4133" lon="6.18138">
        <ele>1856.92</ele>
        <time>2020-06-11T13:31:36Z</time>
      </trkpt>
      <trkpt lat="45.4133" lon="6.18135">
        <ele>1856.92</ele>
        <time>2020-06-11T13:31:38Z</time>
      </trkpt>
      <trkpt lat="45.41334" lon="6.1812">
        <ele>1857.89</ele>
        <time>2020-06-11T13:31:51Z</time>
      </trkpt>
      <trkpt lat="45.41337" lon="6.18102">
        <ele>1856.92</ele>
        <time>2020-06-11T13:32:06Z</time>
      </trkpt>
      <trkpt lat="45.41336" lon="6.18088">
        <ele>1855</ele>
        <time>2020-06-11T13:32:20Z</time>
      </trkpt>
      <trkpt lat="45.41335" lon="6.18072">
        <ele>1851.64</ele>
        <time>2020-06-11T13:32:38Z</time>
      </trkpt>
      <trkpt lat="45.41331" lon="6.18049">
        <ele>1848.75</ele>
        <time>2020-06-11T13:32:58Z</time>
      </trkpt>
      <trkpt lat="45.41332" lon="6.18036">
        <ele>1847.31</ele>
        <time>2020-06-11T13:33:11Z</time>
      </trkpt>
      <trkpt lat="45.41333" lon="6.18018">
        <ele>1845.39</ele>
        <time>2020-06-11T13:33:25Z</time>
      </trkpt>
      <trkpt lat="45.41335" lon="6.17997">
        <ele>1842.98</ele>
        <time>2020-06-11T13:33:44Z</time>
      </trkpt>
      <trkpt lat="45.41334" lon="6.17976">
        <ele>1842.02</ele>
        <time>2020-06-11T13:34:00Z</time>
      </trkpt>
      <trkpt lat="45.41331" lon="6.17964">
        <ele>1840.58</ele>
        <time>2020-06-11T13:34:14Z</time>
      </trkpt>
      <trkpt lat="45.41331" lon="6.17964">
        <ele>1840.1</ele>
        <time>2020-06-11T13:34:43Z</time>
      </trkpt>
      <trkpt lat="45.41332" lon="6.17964">
        <ele>1840.1</ele>
        <time>2020-06-11T13:35:09Z</time>
      </trkpt>
      <trkpt lat="45.41333" lon="6.17963">
        <ele>1837.7</ele>
        <time>2020-06-11T13:35:52Z</time>
      </trkpt>
      <trkpt lat="45.41334" lon="6.17961">
        <ele>1840.58</ele>
        <time>2020-06-11T13:35:58Z</time>
      </trkpt>
      <trkpt lat="45.41334" lon="6.1796">
        <ele>1841.06</ele>
        <time>2020-06-11T13:35:59Z</time>
      </trkpt>
      <trkpt lat="45.41328" lon="6.17947">
        <ele>1838.18</ele>
        <time>2020-06-11T13:36:14Z</time>
      </trkpt>
      <trkpt lat="45.41326" lon="6.17943">
        <ele>1837.22</ele>
        <time>2020-06-11T13:36:18Z</time>
      </trkpt>
      <trkpt lat="45.41323" lon="6.17932">
        <ele>1833.37</ele>
        <time>2020-06-11T13:36:29Z</time>
      </trkpt>
      <trkpt lat="45.41316" lon="6.17923">
        <ele>1830.01</ele>
        <time>2020-06-11T13:36:45Z</time>
      </trkpt>
      <trkpt lat="45.41316" lon="6.17922">
        <ele>1828.08</ele>
        <time>2020-06-11T13:36:48Z</time>
      </trkpt>
      <trkpt lat="45.4131" lon="6.17918">
        <ele>1830.01</ele>
        <time>2020-06-11T13:37:03Z</time>
      </trkpt>
      <trkpt lat="45.41309" lon="6.17918">
        <ele>1828.08</ele>
        <time>2020-06-11T13:37:18Z</time>
      </trkpt>
      <trkpt lat="45.41308" lon="6.17911">
        <ele>1825.68</ele>
        <time>2020-06-11T13:37:47Z</time>
      </trkpt>
      <trkpt lat="45.41306" lon="6.17906">
        <ele>1827.12</ele>
        <time>2020-06-11T13:37:53Z</time>
      </trkpt>
      <trkpt lat="45.413" lon="6.17894">
        <ele>1824.24</ele>
        <time>2020-06-11T13:38:09Z</time>
      </trkpt>
      <trkpt lat="45.41296" lon="6.17886">
        <ele>1822.8</ele>
        <time>2020-06-11T13:38:28Z</time>
      </trkpt>
      <trkpt lat="45.41291" lon="6.17871">
        <ele>1819.43</ele>
        <time>2020-06-11T13:38:46Z</time>
      </trkpt>
      <trkpt lat="45.41289" lon="6.17865">
        <ele>1816.55</ele>
        <time>2020-06-11T13:39:02Z</time>
      </trkpt>
      <trkpt lat="45.41288" lon="6.17862">
        <ele>1815.59</ele>
        <time>2020-06-11T13:39:22Z</time>
      </trkpt>
      <trkpt lat="45.41288" lon="6.1786">
        <ele>1814.63</ele>
        <time>2020-06-11T13:39:50Z</time>
      </trkpt>
      <trkpt lat="45.41286" lon="6.17855">
        <ele>1814.15</ele>
        <time>2020-06-11T13:40:09Z</time>
      </trkpt>
      <trkpt lat="45.41281" lon="6.17844">
        <ele>1812.7</ele>
        <time>2020-06-11T13:40:25Z</time>
      </trkpt>
      <trkpt lat="45.41278" lon="6.17836">
        <ele>1810.78</ele>
        <time>2020-06-11T13:40:43Z</time>
      </trkpt>
      <trkpt lat="45.41275" lon="6.17822">
        <ele>1808.38</ele>
        <time>2020-06-11T13:40:54Z</time>
      </trkpt>
      <trkpt lat="45.41279" lon="6.1782">
        <ele>1807.42</ele>
        <time>2020-06-11T13:41:00Z</time>
      </trkpt>
      <trkpt lat="45.41293" lon="6.17829">
        <ele>1805.01</ele>
        <time>2020-06-11T13:41:15Z</time>
      </trkpt>
      <trkpt lat="45.41297" lon="6.17831">
        <ele>1802.13</ele>
        <time>2020-06-11T13:41:19Z</time>
      </trkpt>
      <trkpt lat="45.41298" lon="6.17831">
        <ele>1802.13</ele>
        <time>2020-06-11T13:41:20Z</time>
      </trkpt>
      <trkpt lat="45.41307" lon="6.17835">
        <ele>1805.01</ele>
        <time>2020-06-11T13:41:31Z</time>
      </trkpt>
      <trkpt lat="45.41317" lon="6.1784">
        <ele>1806.94</ele>
        <time>2020-06-11T13:41:47Z</time>
      </trkpt>
      <trkpt lat="45.41317" lon="6.1784">
        <ele>1806.94</ele>
        <time>2020-06-11T13:41:48Z</time>
      </trkpt>
      <trkpt lat="45.4133" lon="6.17843">
        <ele>1805.49</ele>
        <time>2020-06-11T13:42:04Z</time>
      </trkpt>
      <trkpt lat="45.41341" lon="6.17846">
        <ele>1805.49</ele>
        <time>2020-06-11T13:42:17Z</time>
      </trkpt>
      <trkpt lat="45.41342" lon="6.17846">
        <ele>1805.01</ele>
        <time>2020-06-11T13:42:18Z</time>
      </trkpt>
      <trkpt lat="45.41343" lon="6.17846">
        <ele>1805.01</ele>
        <time>2020-06-11T13:42:19Z</time>
      </trkpt>
      <trkpt lat="45.41344" lon="6.17847">
        <ele>1805.01</ele>
        <time>2020-06-11T13:42:20Z</time>
      </trkpt>
      <trkpt lat="45.41352" lon="6.1785">
        <ele>1804.05</ele>
        <time>2020-06-11T13:42:33Z</time>
      </trkpt>
      <trkpt lat="45.41368" lon="6.17853">
        <ele>1805.01</ele>
        <time>2020-06-11T13:42:51Z</time>
      </trkpt>
      <trkpt lat="45.41371" lon="6.17854">
        <ele>1804.05</ele>
        <time>2020-06-11T13:42:55Z</time>
      </trkpt>
      <trkpt lat="45.41373" lon="6.17854">
        <ele>1804.05</ele>
        <time>2020-06-11T13:42:57Z</time>
      </trkpt>
      <trkpt lat="45.41388" lon="6.17857">
        <ele>1804.05</ele>
        <time>2020-06-11T13:43:19Z</time>
      </trkpt>
      <trkpt lat="45.41394" lon="6.1786">
        <ele>1804.05</ele>
        <time>2020-06-11T13:43:28Z</time>
      </trkpt>
      <trkpt lat="45.41395" lon="6.17859">
        <ele>1804.05</ele>
        <time>2020-06-11T13:43:29Z</time>
      </trkpt>
      <trkpt lat="45.41396" lon="6.17859">
        <ele>1804.05</ele>
        <time>2020-06-11T13:43:30Z</time>
      </trkpt>
      <trkpt lat="45.41411" lon="6.17853">
        <ele>1804.05</ele>
        <time>2020-06-11T13:43:46Z</time>
      </trkpt>
      <trkpt lat="45.41414" lon="6.17853">
        <ele>1804.05</ele>
        <time>2020-06-11T13:43:49Z</time>
      </trkpt>
      <trkpt lat="45.41432" lon="6.17851">
        <ele>1803.57</ele>
        <time>2020-06-11T13:44:10Z</time>
      </trkpt>
      <trkpt lat="45.41436" lon="6.17852">
        <ele>1803.57</ele>
        <time>2020-06-11T13:44:29Z</time>
      </trkpt>
      <trkpt lat="45.41436" lon="6.17852">
        <ele>1804.05</ele>
        <time>2020-06-11T13:44:57Z</time>
      </trkpt>
      <trkpt lat="45.41449" lon="6.17854">
        <ele>1803.57</ele>
        <time>2020-06-11T13:45:13Z</time>
      </trkpt>
      <trkpt lat="45.4147" lon="6.17854">
        <ele>1801.65</ele>
        <time>2020-06-11T13:45:32Z</time>
      </trkpt>
      <trkpt lat="45.4148" lon="6.17856">
        <ele>1800.69</ele>
        <time>2020-06-11T13:45:47Z</time>
      </trkpt>
      <trkpt lat="45.41486" lon="6.1786">
        <ele>1800.21</ele>
        <time>2020-06-11T13:46:01Z</time>
      </trkpt>
      <trkpt lat="45.41488" lon="6.1786">
        <ele>1800.21</ele>
        <time>2020-06-11T13:46:02Z</time>
      </trkpt>
      <trkpt lat="45.4149" lon="6.17859">
        <ele>1800.21</ele>
        <time>2020-06-11T13:46:04Z</time>
      </trkpt>
      <trkpt lat="45.415" lon="6.17849">
        <ele>1798.76</ele>
        <time>2020-06-11T13:46:20Z</time>
      </trkpt>
      <trkpt lat="45.41515" lon="6.17839">
        <ele>1799.24</ele>
        <time>2020-06-11T13:46:39Z</time>
      </trkpt>
      <trkpt lat="45.41533" lon="6.17832">
        <ele>1797.8</ele>
        <time>2020-06-11T13:46:58Z</time>
      </trkpt>
      <trkpt lat="45.41549" lon="6.17829">
        <ele>1797.8</ele>
        <time>2020-06-11T13:47:17Z</time>
      </trkpt>
      <trkpt lat="45.41553" lon="6.17828">
        <ele>1797.8</ele>
        <time>2020-06-11T13:47:34Z</time>
      </trkpt>
      <trkpt lat="45.41559" lon="6.17827">
        <ele>1798.28</ele>
        <time>2020-06-11T13:47:46Z</time>
      </trkpt>
      <trkpt lat="45.41562" lon="6.17825">
        <ele>1798.28</ele>
        <time>2020-06-11T13:47:49Z</time>
      </trkpt>
      <trkpt lat="45.41563" lon="6.17824">
        <ele>1798.28</ele>
        <time>2020-06-11T13:47:50Z</time>
      </trkpt>
      <trkpt lat="45.4157" lon="6.17811">
        <ele>1797.32</ele>
        <time>2020-06-11T13:48:04Z</time>
      </trkpt>
      <trkpt lat="45.4157" lon="6.17811">
        <ele>1797.32</ele>
        <time>2020-06-11T13:48:05Z</time>
      </trkpt>
      <trkpt lat="45.4158" lon="6.17797">
        <ele>1796.36</ele>
        <time>2020-06-11T13:48:21Z</time>
      </trkpt>
      <trkpt lat="45.41589" lon="6.17784">
        <ele>1795.4</ele>
        <time>2020-06-11T13:48:36Z</time>
      </trkpt>
      <trkpt lat="45.41598" lon="6.17766">
        <ele>1794.92</ele>
        <time>2020-06-11T13:48:55Z</time>
      </trkpt>
      <trkpt lat="45.41599" lon="6.17765">
        <ele>1794.92</ele>
        <time>2020-06-11T13:48:57Z</time>
      </trkpt>
      <trkpt lat="45.41599" lon="6.17763">
        <ele>1794.92</ele>
        <time>2020-06-11T13:48:58Z</time>
      </trkpt>
      <trkpt lat="45.41605" lon="6.17746">
        <ele>1793.48</ele>
        <time>2020-06-11T13:49:14Z</time>
      </trkpt>
      <trkpt lat="45.41607" lon="6.17738">
        <ele>1793</ele>
        <time>2020-06-11T13:49:20Z</time>
      </trkpt>
      <trkpt lat="45.41608" lon="6.1772">
        <ele>1792.03</ele>
        <time>2020-06-11T13:49:37Z</time>
      </trkpt>
      <trkpt lat="45.41611" lon="6.17696">
        <ele>1790.59</ele>
        <time>2020-06-11T13:49:57Z</time>
      </trkpt>
      <trkpt lat="45.41618" lon="6.17676">
        <ele>1788.19</ele>
        <time>2020-06-11T13:50:18Z</time>
      </trkpt>
      <trkpt lat="45.41622" lon="6.17662">
        <ele>1787.23</ele>
        <time>2020-06-11T13:50:39Z</time>
      </trkpt>
      <trkpt lat="45.41622" lon="6.17655">
        <ele>1786.27</ele>
        <time>2020-06-11T13:51:18Z</time>
      </trkpt>
      <trkpt lat="45.41622" lon="6.1765">
        <ele>1785.79</ele>
        <time>2020-06-11T13:51:30Z</time>
      </trkpt>
      <trkpt lat="45.41622" lon="6.17649">
        <ele>1785.79</ele>
        <time>2020-06-11T13:51:31Z</time>
      </trkpt>
      <trkpt lat="45.41624" lon="6.1764">
        <ele>1785.31</ele>
        <time>2020-06-11T13:51:47Z</time>
      </trkpt>
      <trkpt lat="45.41626" lon="6.17635">
        <ele>1784.34</ele>
        <time>2020-06-11T13:52:23Z</time>
      </trkpt>
      <trkpt lat="45.4163" lon="6.17637">
        <ele>1783.86</ele>
        <time>2020-06-11T13:53:09Z</time>
      </trkpt>
      <trkpt lat="45.41628" lon="6.17642">
        <ele>1783.86</ele>
        <time>2020-06-11T13:53:37Z</time>
      </trkpt>
      <trkpt lat="45.41631" lon="6.17632">
        <ele>1783.86</ele>
        <time>2020-06-11T13:54:04Z</time>
      </trkpt>
      <trkpt lat="45.41637" lon="6.17617">
        <ele>1783.38</ele>
        <time>2020-06-11T13:54:19Z</time>
      </trkpt>
      <trkpt lat="45.41648" lon="6.17598">
        <ele>1783.38</ele>
        <time>2020-06-11T13:54:43Z</time>
      </trkpt>
      <trkpt lat="45.41657" lon="6.17576">
        <ele>1781.46</ele>
        <time>2020-06-11T13:55:02Z</time>
      </trkpt>
      <trkpt lat="45.41662" lon="6.17566">
        <ele>1779.54</ele>
        <time>2020-06-11T13:55:13Z</time>
      </trkpt>
      <trkpt lat="45.41663" lon="6.17565">
        <ele>1779.06</ele>
        <time>2020-06-11T13:55:14Z</time>
      </trkpt>
      <trkpt lat="45.41664" lon="6.17563">
        <ele>1779.06</ele>
        <time>2020-06-11T13:55:15Z</time>
      </trkpt>
      <trkpt lat="45.41664" lon="6.17562">
        <ele>1779.06</ele>
        <time>2020-06-11T13:55:16Z</time>
      </trkpt>
      <trkpt lat="45.41665" lon="6.17561">
        <ele>1778.58</ele>
        <time>2020-06-11T13:55:17Z</time>
      </trkpt>
      <trkpt lat="45.41668" lon="6.1756">
        <ele>1778.1</ele>
        <time>2020-06-11T13:55:21Z</time>
      </trkpt>
      <trkpt lat="45.41669" lon="6.17559">
        <ele>1777.61</ele>
        <time>2020-06-11T13:55:22Z</time>
      </trkpt>
      <trkpt lat="45.4167" lon="6.17557">
        <ele>1777.61</ele>
        <time>2020-06-11T13:55:23Z</time>
      </trkpt>
      <trkpt lat="45.41671" lon="6.17556">
        <ele>1777.61</ele>
        <time>2020-06-11T13:55:24Z</time>
      </trkpt>
      <trkpt lat="45.41672" lon="6.17555">
        <ele>1777.61</ele>
        <time>2020-06-11T13:55:25Z</time>
      </trkpt>
      <trkpt lat="45.41673" lon="6.17554">
        <ele>1777.13</ele>
        <time>2020-06-11T13:55:26Z</time>
      </trkpt>
      <trkpt lat="45.41687" lon="6.17546">
        <ele>1776.17</ele>
        <time>2020-06-11T13:55:41Z</time>
      </trkpt>
      <trkpt lat="45.41703" lon="6.17534">
        <ele>1776.17</ele>
        <time>2020-06-11T13:56:01Z</time>
      </trkpt>
      <trkpt lat="45.4171" lon="6.17527">
        <ele>1775.21</ele>
        <time>2020-06-11T13:56:13Z</time>
      </trkpt>
      <trkpt lat="45.41711" lon="6.17526">
        <ele>1775.21</ele>
        <time>2020-06-11T13:56:14Z</time>
      </trkpt>
      <trkpt lat="45.41712" lon="6.17525">
        <ele>1774.73</ele>
        <time>2020-06-11T13:56:15Z</time>
      </trkpt>
      <trkpt lat="45.41725" lon="6.17511">
        <ele>1773.77</ele>
        <time>2020-06-11T13:56:34Z</time>
      </trkpt>
      <trkpt lat="45.41738" lon="6.17497">
        <ele>1773.29</ele>
        <time>2020-06-11T13:56:55Z</time>
      </trkpt>
      <trkpt lat="45.4175" lon="6.17485">
        <ele>1773.29</ele>
        <time>2020-06-11T13:57:20Z</time>
      </trkpt>
      <trkpt lat="45.41756" lon="6.17474">
        <ele>1771.85</ele>
        <time>2020-06-11T13:57:34Z</time>
      </trkpt>
      <trkpt lat="45.41763" lon="6.17468">
        <ele>1770.89</ele>
        <time>2020-06-11T13:57:41Z</time>
      </trkpt>
      <trkpt lat="45.41774" lon="6.17456">
        <ele>1768.96</ele>
        <time>2020-06-11T13:57:56Z</time>
      </trkpt>
      <trkpt lat="45.41779" lon="6.17448">
        <ele>1768</ele>
        <time>2020-06-11T13:58:14Z</time>
      </trkpt>
      <trkpt lat="45.41788" lon="6.17439">
        <ele>1765.6</ele>
        <time>2020-06-11T13:58:32Z</time>
      </trkpt>
      <trkpt lat="45.41805" lon="6.17427">
        <ele>1765.12</ele>
        <time>2020-06-11T13:58:54Z</time>
      </trkpt>
      <trkpt lat="45.41809" lon="6.17424">
        <ele>1764.64</ele>
        <time>2020-06-11T13:59:18Z</time>
      </trkpt>
      <trkpt lat="45.4181" lon="6.17423">
        <ele>1764.64</ele>
        <time>2020-06-11T13:59:19Z</time>
      </trkpt>
      <trkpt lat="45.41819" lon="6.17412">
        <ele>1762.71</ele>
        <time>2020-06-11T13:59:36Z</time>
      </trkpt>
      <trkpt lat="45.41838" lon="6.17402">
        <ele>1760.79</ele>
        <time>2020-06-11T13:59:57Z</time>
      </trkpt>
      <trkpt lat="45.41851" lon="6.17389">
        <ele>1761.27</ele>
        <time>2020-06-11T14:00:14Z</time>
      </trkpt>
      <trkpt lat="45.41862" lon="6.17369">
        <ele>1761.27</ele>
        <time>2020-06-11T14:00:34Z</time>
      </trkpt>
      <trkpt lat="45.41865" lon="6.17359">
        <ele>1761.27</ele>
        <time>2020-06-11T14:00:50Z</time>
      </trkpt>
      <trkpt lat="45.41873" lon="6.17349">
        <ele>1760.79</ele>
        <time>2020-06-11T14:01:12Z</time>
      </trkpt>
      <trkpt lat="45.41881" lon="6.17326">
        <ele>1756.95</ele>
        <time>2020-06-11T14:01:29Z</time>
      </trkpt>
      <trkpt lat="45.41881" lon="6.17325">
        <ele>1755.99</ele>
        <time>2020-06-11T14:01:31Z</time>
      </trkpt>
      <trkpt lat="45.41883" lon="6.17323">
        <ele>1759.83</ele>
        <time>2020-06-11T14:01:34Z</time>
      </trkpt>
      <trkpt lat="45.41885" lon="6.17313">
        <ele>1756.95</ele>
        <time>2020-06-11T14:01:43Z</time>
      </trkpt>
      <trkpt lat="45.41891" lon="6.17303">
        <ele>1757.43</ele>
        <time>2020-06-11T14:01:52Z</time>
      </trkpt>
      <trkpt lat="45.41893" lon="6.17296">
        <ele>1760.31</ele>
        <time>2020-06-11T14:01:59Z</time>
      </trkpt>
      <trkpt lat="45.41893" lon="6.17294">
        <ele>1760.79</ele>
        <time>2020-06-11T14:02:00Z</time>
      </trkpt>
      <trkpt lat="45.41899" lon="6.17269">
        <ele>1758.87</ele>
        <time>2020-06-11T14:02:15Z</time>
      </trkpt>
      <trkpt lat="45.41901" lon="6.17247">
        <ele>1755.99</ele>
        <time>2020-06-11T14:02:31Z</time>
      </trkpt>
      <trkpt lat="45.41903" lon="6.17223">
        <ele>1752.62</ele>
        <time>2020-06-11T14:02:58Z</time>
      </trkpt>
      <trkpt lat="45.4191" lon="6.17185">
        <ele>1751.18</ele>
        <time>2020-06-11T14:03:31Z</time>
      </trkpt>
      <trkpt lat="45.41912" lon="6.17162">
        <ele>1750.7</ele>
        <time>2020-06-11T14:03:52Z</time>
      </trkpt>
      <trkpt lat="45.41912" lon="6.1716">
        <ele>1750.7</ele>
        <time>2020-06-11T14:03:53Z</time>
      </trkpt>
      <trkpt lat="45.41921" lon="6.17122">
        <ele>1750.22</ele>
        <time>2020-06-11T14:04:23Z</time>
      </trkpt>
      <trkpt lat="45.41931" lon="6.17092">
        <ele>1752.14</ele>
        <time>2020-06-11T14:04:53Z</time>
      </trkpt>
      <trkpt lat="45.41933" lon="6.17074">
        <ele>1751.66</ele>
        <time>2020-06-11T14:05:13Z</time>
      </trkpt>
      <trkpt lat="45.41933" lon="6.17061">
        <ele>1750.22</ele>
        <time>2020-06-11T14:05:34Z</time>
      </trkpt>
      <trkpt lat="45.41936" lon="6.17056">
        <ele>1749.26</ele>
        <time>2020-06-11T14:05:48Z</time>
      </trkpt>
      <trkpt lat="45.41933" lon="6.17057">
        <ele>1748.78</ele>
        <time>2020-06-11T14:06:13Z</time>
      </trkpt>
      <trkpt lat="45.41933" lon="6.17055">
        <ele>1748.29</ele>
        <time>2020-06-11T14:07:19Z</time>
      </trkpt>
      <trkpt lat="45.41932" lon="6.17056">
        <ele>1748.29</ele>
        <time>2020-06-11T14:08:02Z</time>
      </trkpt>
      <trkpt lat="45.41929" lon="6.17052">
        <ele>1748.29</ele>
        <time>2020-06-11T14:08:30Z</time>
      </trkpt>
      <trkpt lat="45.41928" lon="6.17041">
        <ele>1748.29</ele>
        <time>2020-06-11T14:08:44Z</time>
      </trkpt>
      <trkpt lat="45.41924" lon="6.17029">
        <ele>1748.29</ele>
        <time>2020-06-11T14:09:00Z</time>
      </trkpt>
      <trkpt lat="45.41924" lon="6.17028">
        <ele>1748.29</ele>
        <time>2020-06-11T14:09:01Z</time>
      </trkpt>
      <trkpt lat="45.41923" lon="6.17026">
        <ele>1748.29</ele>
        <time>2020-06-11T14:09:02Z</time>
      </trkpt>
      <trkpt lat="45.41924" lon="6.17022">
        <ele>1744.93</ele>
        <time>2020-06-11T14:09:06Z</time>
      </trkpt>
      <trkpt lat="45.41924" lon="6.17021">
        <ele>1741.08</ele>
        <time>2020-06-11T14:09:08Z</time>
      </trkpt>
      <trkpt lat="45.41924" lon="6.17021">
        <ele>1739.16</ele>
        <time>2020-06-11T14:09:11Z</time>
      </trkpt>
      <trkpt lat="45.41924" lon="6.17015">
        <ele>1737.24</ele>
        <time>2020-06-11T14:09:24Z</time>
      </trkpt>
      <trkpt lat="45.41922" lon="6.16994">
        <ele>1734.84</ele>
        <time>2020-06-11T14:09:42Z</time>
      </trkpt>
      <trkpt lat="45.41917" lon="6.16977">
        <ele>1731.95</ele>
        <time>2020-06-11T14:09:56Z</time>
      </trkpt>
      <trkpt lat="45.41917" lon="6.1697">
        <ele>1730.51</ele>
        <time>2020-06-11T14:10:02Z</time>
      </trkpt>
      <trkpt lat="45.41916" lon="6.16969">
        <ele>1730.51</ele>
        <time>2020-06-11T14:10:03Z</time>
      </trkpt>
      <trkpt lat="45.4191" lon="6.16956">
        <ele>1727.63</ele>
        <time>2020-06-11T14:10:15Z</time>
      </trkpt>
      <trkpt lat="45.4191" lon="6.16955">
        <ele>1727.15</ele>
        <time>2020-06-11T14:10:16Z</time>
      </trkpt>
      <trkpt lat="45.41908" lon="6.16937">
        <ele>1724.26</ele>
        <time>2020-06-11T14:10:28Z</time>
      </trkpt>
      <trkpt lat="45.41909" lon="6.16934">
        <ele>1721.38</ele>
        <time>2020-06-11T14:10:32Z</time>
      </trkpt>
      <trkpt lat="45.41909" lon="6.16913">
        <ele>1718.97</ele>
        <time>2020-06-11T14:10:51Z</time>
      </trkpt>
      <trkpt lat="45.41911" lon="6.16902">
        <ele>1716.09</ele>
        <time>2020-06-11T14:11:03Z</time>
      </trkpt>
      <trkpt lat="45.41911" lon="6.16896">
        <ele>1715.61</ele>
        <time>2020-06-11T14:11:17Z</time>
      </trkpt>
      <trkpt lat="45.41913" lon="6.16891">
        <ele>1715.61</ele>
        <time>2020-06-11T14:11:22Z</time>
      </trkpt>
      <trkpt lat="45.41914" lon="6.1689">
        <ele>1715.61</ele>
        <time>2020-06-11T14:11:23Z</time>
      </trkpt>
      <trkpt lat="45.41915" lon="6.16887">
        <ele>1715.13</ele>
        <time>2020-06-11T14:11:26Z</time>
      </trkpt>
      <trkpt lat="45.41911" lon="6.16876">
        <ele>1714.17</ele>
        <time>2020-06-11T14:11:36Z</time>
      </trkpt>
      <trkpt lat="45.41899" lon="6.1687">
        <ele>1712.25</ele>
        <time>2020-06-11T14:11:52Z</time>
      </trkpt>
      <trkpt lat="45.41896" lon="6.16867">
        <ele>1711.76</ele>
        <time>2020-06-11T14:11:56Z</time>
      </trkpt>
      <trkpt lat="45.41895" lon="6.16866">
        <ele>1711.76</ele>
        <time>2020-06-11T14:11:57Z</time>
      </trkpt>
      <trkpt lat="45.41894" lon="6.16865">
        <ele>1711.76</ele>
        <time>2020-06-11T14:11:58Z</time>
      </trkpt>
      <trkpt lat="45.41893" lon="6.16864">
        <ele>1711.76</ele>
        <time>2020-06-11T14:11:59Z</time>
      </trkpt>
      <trkpt lat="45.41887" lon="6.16853">
        <ele>1709.84</ele>
        <time>2020-06-11T14:12:15Z</time>
      </trkpt>
      <trkpt lat="45.41884" lon="6.16843">
        <ele>1708.4</ele>
        <time>2020-06-11T14:12:30Z</time>
      </trkpt>
      <trkpt lat="45.41878" lon="6.16832">
        <ele>1705.04</ele>
        <time>2020-06-11T14:12:45Z</time>
      </trkpt>
      <trkpt lat="45.41872" lon="6.1682">
        <ele>1702.15</ele>
        <time>2020-06-11T14:12:58Z</time>
      </trkpt>
      <trkpt lat="45.41865" lon="6.16811">
        <ele>1698.79</ele>
        <time>2020-06-11T14:13:12Z</time>
      </trkpt>
      <trkpt lat="45.41863" lon="6.16811">
        <ele>1698.31</ele>
        <time>2020-06-11T14:13:14Z</time>
      </trkpt>
      <trkpt lat="45.41856" lon="6.16806">
        <ele>1696.86</ele>
        <time>2020-06-11T14:13:23Z</time>
      </trkpt>
      <trkpt lat="45.41855" lon="6.16805">
        <ele>1696.86</ele>
        <time>2020-06-11T14:13:24Z</time>
      </trkpt>
      <trkpt lat="45.41854" lon="6.16804">
        <ele>1696.86</ele>
        <time>2020-06-11T14:13:25Z</time>
      </trkpt>
      <trkpt lat="45.41844" lon="6.16801">
        <ele>1695.42</ele>
        <time>2020-06-11T14:13:35Z</time>
      </trkpt>
      <trkpt lat="45.41843" lon="6.16802">
        <ele>1694.94</ele>
        <time>2020-06-11T14:13:36Z</time>
      </trkpt>
      <trkpt lat="45.41842" lon="6.16804">
        <ele>1694.94</ele>
        <time>2020-06-11T14:13:37Z</time>
      </trkpt>
      <trkpt lat="45.41842" lon="6.16805">
        <ele>1694.94</ele>
        <time>2020-06-11T14:13:38Z</time>
      </trkpt>
      <trkpt lat="45.41841" lon="6.16807">
        <ele>1694.46</ele>
        <time>2020-06-11T14:13:39Z</time>
      </trkpt>
      <trkpt lat="45.41841" lon="6.16809">
        <ele>1694.46</ele>
        <time>2020-06-11T14:13:40Z</time>
      </trkpt>
      <trkpt lat="45.41847" lon="6.16821">
        <ele>1693.98</ele>
        <time>2020-06-11T14:13:55Z</time>
      </trkpt>
      <trkpt lat="45.41847" lon="6.16822">
        <ele>1693.98</ele>
        <time>2020-06-11T14:14:18Z</time>
      </trkpt>
      <trkpt lat="45.41846" lon="6.1682">
        <ele>1692.54</ele>
        <time>2020-06-11T14:14:43Z</time>
      </trkpt>
      <trkpt lat="45.41846" lon="6.16819">
        <ele>1691.58</ele>
        <time>2020-06-11T14:15:15Z</time>
      </trkpt>
      <trkpt lat="45.41847" lon="6.1682">
        <ele>1688.69</ele>
        <time>2020-06-11T14:15:54Z</time>
      </trkpt>
    </trkseg>
  </trk>
</gpx>